ftp/pub/palmer/observations_modified/2019/March/original_files/AR190303_BASE.txt
Download
Sample DateTime Unit Id WS Avg 2min WD Avg 2min WGS 10min WGD 10min Air Temp Rel Humidity Dew Point Pyranometer Quantum Air Pressure Snow Level Rainfall PW Current Visibility CBase 1 CBase 2 CBase 3 Vert Vis
2019/03/03 00:00:01 BASE 0.00 103 M M 0.2 100 0.2 0 0 998.4 NA 0.0000 9999 1050 0 0 0
2019/03/03 00:01:01 BASE 0.18 114 1.13 122 0.2 100 0.2 0 0 998.4 NA 0.0000 9999 1050 0 0 0
2019/03/03 00:02:01 BASE 0.18 118 1.13 122 0.2 100 0.2 0 0 998.4 NA 0.0000 9999 1050 0 0 0
2019/03/03 00:03:01 BASE 0.14 126 1.18 136 0.2 100 0.2 0 0 998.4 NA 0.0000 9999 1050 0 0 0
2019/03/03 00:04:01 BASE 0.72 134 1.29 134 0.2 100 0.2 0 0 998.4 NA 0.0000 9999 1020 0 0 0
2019/03/03 00:05:01 BASE 1.24 134 1.44 137 0.2 100 0.2 0 0 998.4 NA 0.0000 9999 1020 0 0 0
2019/03/03 00:06:01 BASE 1.29 136 1.49 137 0.2 100 0.2 0 0 998.4 NA 0.0000 9999 1080 0 0 0
2019/03/03 00:07:00 BASE 1.22 139 1.49 141 0.2 100 0.2 0 0 998.4 NA 0.0000 9999 1020 0 0 0
2019/03/03 00:08:01 BASE 1.34 140 1.75 140 0.1 100 0.1 0 0 998.4 NA 0.0000 9999 1050 0 0 0
2019/03/03 00:09:00 BASE 1.66 141 2.52 140 0.1 100 0.1 0 0 998.3 NA 0.0000 9999 980 0 0 0
2019/03/03 00:10:01 BASE 2.31 137 3.19 128 0.1 100 0.1 0 0 998.3 NA 0.0000 9999 1020 0 0 0
2019/03/03 00:11:00 BASE 2.88 129 3.24 124 0.1 100 0.1 0 0 998.3 NA 0.0000 9999 1020 0 0 0
2019/03/03 00:12:01 BASE 2.75 124 3.24 124 0.1 100 0.1 0 0 998.3 NA 0.0000 9999 1050 0 0 0
2019/03/03 00:13:00 BASE 2.60 123 3.24 124 0.1 100 0.1 0 0 998.3 NA 0.0000 9999 1050 0 0 0
2019/03/03 00:14:00 BASE 2.71 122 3.24 124 0.1 100 0.1 0 0 998.3 NA 0.0000 9999 950 0 0 0
2019/03/03 00:15:01 BASE 2.90 118 3.29 117 0.1 100 0.1 0 0 998.3 NA 0.0000 9999 920 0 0 0
2019/03/03 00:16:00 BASE 3.17 118 3.55 120 0.1 100 0.1 0 0 998.3 NA 0.0000 9999 920 0 0 0
2019/03/03 00:17:00 BASE 3.01 118 3.55 120 0.0 100 0.0 0 0 998.3 NA 0.0000 9999 920 0 0 0
2019/03/03 00:18:01 BASE 2.63 119 3.55 120 0.0 100 0.0 0 0 998.3 NA 0.0000 9999 950 0 0 0
2019/03/03 00:19:00 BASE 2.69 121 3.55 120 -0.0 100 -0.0 0 0 998.3 NA 0.0000 9999 980 0 0 0
2019/03/03 00:20:00 BASE 2.87 124 3.55 120 -0.1 100 -0.1 0 0 998.3 NA 0.0000 9999 1020 0 0 0
2019/03/03 00:21:01 BASE 2.94 125 3.76 125 -0.1 100 -0.1 0 0 998.3 NA 0.0000 9999 980 0 0 0
2019/03/03 00:22:01 BASE 3.04 124 3.76 125 -0.1 100 -0.1 0 0 998.3 NA 0.0000 9999 1050 0 0 0
2019/03/03 00:23:00 BASE 3.14 122 3.86 130 -0.0 100 -0.0 0 0 998.3 NA 0.0000 9999 1020 0 0 0
2019/03/03 00:24:01 BASE 3.62 123 4.48 125 -0.0 100 -0.0 0 0 998.3 NA 0.0000 9999 1020 0 0 0
2019/03/03 00:25:00 BASE 3.82 123 4.48 125 -0.0 100 -0.0 0 0 998.3 NA 0.0000 9999 1020 0 0 0
2019/03/03 00:26:00 BASE 3.68 122 4.48 125 -0.0 100 -0.0 0 0 998.3 NA 0.0000 9999 1020 0 0 0
2019/03/03 00:27:00 BASE 3.34 122 4.48 125 -0.0 100 -0.0 0 0 998.3 NA 0.0000 9999 1020 0 0 0
2019/03/03 00:28:00 BASE 3.37 118 4.48 109 -0.1 100 -0.1 0 0 998.3 NA 0.0000 9999 1020 0 0 0
2019/03/03 00:29:00 BASE 3.61 114 4.48 109 -0.1 100 -0.1 0 0 998.3 NA 0.0000 9999 1080 0 0 0
2019/03/03 00:30:00 BASE 3.61 119 4.48 109 -0.1 100 -0.1 0 0 998.3 NA 0.0000 9999 1020 0 0 0
2019/03/03 00:31:00 BASE 3.50 127 4.48 109 -0.1 100 -0.1 0 0 998.3 NA 0.0000 9999 980 0 0 0
2019/03/03 00:32:00 BASE 2.80 126 4.48 109 -0.1 100 -0.1 0 0 998.3 NA 0.0000 9999 980 0 0 0
2019/03/03 00:33:01 BASE 1.90 126 4.48 109 -0.1 100 -0.1 0 0 998.3 NA 0.0000 9999 980 0 0 0
2019/03/03 00:34:01 BASE 1.53 123 4.48 109 -0.1 100 -0.1 0 0 998.3 NA 0.0000 9999 1020 0 0 0
2019/03/03 00:35:00 BASE 1.92 122 4.48 109 -0.1 100 -0.1 0 0 998.3 NA 0.0000 9999 1020 0 0 0
2019/03/03 00:36:01 BASE 2.15 120 4.48 109 -0.1 100 -0.1 0 0 998.3 NA 0.0000 9999 1020 0 0 0
2019/03/03 00:37:01 BASE 2.26 123 4.48 109 -0.1 100 -0.1 0 0 998.3 NA 0.0000 9999 1020 0 0 0
2019/03/03 00:38:01 BASE 2.19 129 4.12 123 -0.1 100 -0.1 0 0 998.3 NA 0.0000 9999 980 0 0 0
2019/03/03 00:39:01 BASE 1.81 125 4.12 123 -0.1 100 -0.1 0 0 998.3 NA 0.0000 9999 1020 0 0 0
2019/03/03 00:40:01 BASE 1.64 122 3.45 128 -0.1 100 -0.1 0 0 998.3 NA 0.0000 9999 1020 0 0 0
2019/03/03 00:41:01 BASE 1.72 123 3.19 137 -0.0 100 -0.0 0 0 998.3 NA 0.0000 9999 950 0 0 0
2019/03/03 00:42:01 BASE 1.94 123 2.78 126 -0.0 100 -0.0 0 0 998.3 NA 0.0000 9999 950 0 0 0
2019/03/03 00:43:01 BASE 2.31 123 2.78 126 -0.0 100 -0.0 0 0 998.3 NA 0.0000 9999 980 0 0 0
2019/03/03 00:44:01 BASE 2.37 123 2.78 126 -0.0 100 -0.0 0 0 998.3 NA 0.0000 9999 950 0 0 0
2019/03/03 00:45:01 BASE 2.25 124 2.78 126 -0.0 100 -0.0 0 0 998.2 NA 0.0000 9999 980 0 0 0
2019/03/03 00:46:01 BASE 2.25 122 2.78 126 -0.1 100 -0.1 0 0 998.3 NA 0.0000 9999 980 0 0 0
2019/03/03 00:47:01 BASE 2.12 123 2.68 126 -0.1 100 -0.1 0 0 998.3 NA 0.0000 9999 980 0 0 0
2019/03/03 00:48:01 BASE 1.69 125 2.68 126 -0.1 100 -0.1 0 0 998.2 NA 0.0000 9999 980 0 0 0
2019/03/03 00:49:01 BASE 1.52 123 2.68 126 -0.0 100 -0.0 0 0 998.2 NA 0.0000 9999 980 0 0 0
2019/03/03 00:50:01 BASE 1.77 118 2.68 126 -0.0 100 -0.0 0 0 998.2 NA 0.0000 9999 1020 0 0 0
2019/03/03 00:51:01 BASE 2.05 115 2.68 126 0.0 100 0.0 0 0 998.2 NA 0.0000 9999 890 0 0 0
2019/03/03 00:52:01 BASE 1.94 114 2.68 126 0.1 100 0.1 0 0 998.2 NA 0.0000 9999 890 0 0 0
2019/03/03 00:53:01 BASE 1.62 114 2.62 118 0.1 100 0.1 0 0 998.2 NA 0.0000 9999 890 0 0 0
2019/03/03 00:54:01 BASE 2.04 118 3.24 120 0.1 100 0.1 0 0 998.2 NA 0.0000 9999 980 0 0 0
2019/03/03 00:55:01 BASE 2.86 119 3.45 119 0.2 100 0.2 0 0 998.2 NA 0.0000 9999 980 0 0 0
2019/03/03 00:56:01 BASE 2.90 118 3.45 119 0.2 100 0.2 0 0 998.2 NA 0.0000 9999 950 0 0 0
2019/03/03 00:57:01 BASE 2.36 120 3.45 119 0.2 100 0.2 0 0 998.2 NA 0.0000 9999 950 0 0 0
2019/03/03 00:58:01 BASE 1.97 119 3.45 119 0.1 100 0.1 0 0 998.2 NA 0.0000 9999 890 0 0 0
2019/03/03 00:59:01 BASE 1.99 120 3.45 119 0.1 100 0.1 0 0 998.2 NA 0.0000 9999 890 0 0 0
2019/03/03 01:00:01 BASE 2.16 117 3.45 119 0.1 100 0.1 0 0 998.2 NA 0.0000 9999 850 0 0 0
2019/03/03 01:01:01 BASE 2.01 108 3.45 119 0.1 100 0.1 0 0 998.1 NA 0.0000 9999 890 0 0 0
2019/03/03 01:02:01 BASE 1.76 107 3.45 119 0.1 100 0.1 0 0 998.0 NA 0.0000 9999 920 0 0 0
2019/03/03 01:03:01 BASE 1.83 118 3.45 119 0.2 100 0.2 0 0 998.0 NA 0.0000 9999 890 0 0 0
2019/03/03 01:04:01 BASE 2.35 124 3.45 124 0.2 100 0.2 0 0 998.0 NA 0.0000 9999 920 0 0 0
2019/03/03 01:05:01 BASE 2.82 119 3.50 117 0.2 100 0.2 0 0 998.0 NA 0.0000 9999 950 0 0 0
2019/03/03 01:06:01 BASE 3.15 117 3.76 122 0.1 100 0.1 0 0 998.0 NA 0.0000 9999 980 0 0 0
2019/03/03 01:07:01 BASE 3.45 120 3.91 121 0.1 100 0.1 0 0 998.0 NA 0.0000 9999 950 0 0 0
2019/03/03 01:08:01 BASE 3.66 120 4.17 122 0.1 100 0.1 0 0 998.0 NA 0.0000 9999 950 0 0 0
2019/03/03 01:09:01 BASE 3.75 116 4.17 122 0.0 100 0.0 0 0 998.0 NA 0.0000 9999 980 0 0 0
2019/03/03 01:10:01 BASE 3.35 113 4.17 122 0.0 100 0.0 0 0 998.0 NA 0.0000 9999 980 0 0 0
2019/03/03 01:11:01 BASE 2.68 112 4.17 122 0.0 100 0.0 0 0 998.0 NA 0.0000 9999 950 0 0 0
2019/03/03 01:12:01 BASE 1.96 117 4.17 122 0.0 100 0.0 0 0 998.0 NA 0.0000 9999 950 0 0 0
2019/03/03 01:13:01 BASE 2.36 123 4.17 122 0.0 100 0.0 0 0 998.0 NA 0.0000 9999 950 0 0 0
2019/03/03 01:14:01 BASE 3.62 121 4.37 111 0.0 100 0.0 0 0 998.0 NA 0.0000 9999 920 0 0 0
2019/03/03 01:15:01 BASE 4.16 119 4.58 116 0.0 100 0.0 0 0 998.0 NA 0.0000 9999 920 0 0 0
2019/03/03 01:16:01 BASE 4.23 119 4.58 116 0.0 100 0.0 0 0 998.0 NA 0.0000 9999 890 0 0 0
2019/03/03 01:17:01 BASE 4.11 120 4.58 116 -0.0 100 -0.0 0 0 998.0 NA 0.0000 9999 850 0 0 0
2019/03/03 01:18:01 BASE 4.06 123 4.58 116 -0.1 100 -0.1 0 0 998.0 NA 0.0000 9999 890 0 0 0
2019/03/03 01:19:01 BASE 3.88 127 4.58 116 -0.1 100 -0.1 0 0 998.0 NA 0.0000 9999 920 0 0 0
2019/03/03 01:20:01 BASE 3.89 125 5.45 118 -0.1 100 -0.1 0 0 998.0 NA 0.0000 9999 950 0 0 0
2019/03/03 01:21:01 BASE 4.02 121 5.45 118 -0.1 100 -0.1 0 0 998.0 NA 0.0000 9999 950 0 0 0
2019/03/03 01:22:01 BASE 3.70 116 5.45 118 -0.1 100 -0.1 0 0 998.0 NA 0.0000 9999 950 0 0 0
2019/03/03 01:23:01 BASE 3.87 115 5.45 118 -0.1 100 -0.1 0 0 998.0 NA 0.0000 9999 920 0 0 0
2019/03/03 01:24:01 BASE 4.31 117 5.45 118 -0.1 100 -0.1 0 0 998.0 NA 0.0000 9999 920 0 0 0
2019/03/03 01:25:01 BASE 4.19 117 5.45 118 -0.0 100 -0.0 0 0 998.0 NA 0.0000 9999 920 0 0 0
2019/03/03 01:26:01 BASE 3.78 119 5.45 118 -0.0 100 -0.0 0 0 998.0 NA 0.0000 9999 820 0 0 0
2019/03/03 01:27:01 BASE 3.01 120 5.45 118 -0.0 100 -0.0 0 0 997.9 NA 0.0000 9999 850 0 0 0
2019/03/03 01:28:01 BASE 2.82 112 5.45 118 -0.0 100 -0.0 0 0 997.9 NA 0.0000 9999 890 0 0 0
2019/03/03 01:29:00 BASE 3.09 110 5.45 118 0.0 100 0.0 0 0 997.9 NA 0.0000 9999 950 0 0 0
2019/03/03 01:30:00 BASE 3.14 111 4.68 114 0.0 100 0.0 0 0 997.9 NA 0.0000 9999 950 0 0 0
2019/03/03 01:31:01 BASE 2.81 105 4.68 114 0.1 100 0.1 0 0 997.9 NA 0.0000 9999 950 0 0 0
2019/03/03 01:32:01 BASE 1.98 104 4.68 114 0.1 100 0.1 0 0 997.9 NA 0.0000 9999 950 0 0 0
2019/03/03 01:33:00 BASE 1.53 111 4.68 114 0.1 100 0.1 0 0 997.8 NA 0.0000 9999 950 0 0 0
2019/03/03 01:34:00 BASE 1.61 121 4.68 114 0.1 100 0.1 0 0 997.8 NA 0.0000 9999 920 0 0 0
2019/03/03 01:35:00 BASE 1.62 123 4.68 114 0.1 100 0.1 0 0 997.8 NA 0.0000 9999 920 0 0 0
2019/03/03 01:36:01 BASE 1.83 117 3.50 103 0.1 100 0.1 0 0 997.8 NA 0.0000 9999 950 0 0 0
2019/03/03 01:37:00 BASE 2.47 104 3.50 103 0.2 100 0.2 0 0 997.8 NA 0.0000 9999 920 0 0 0
2019/03/03 01:38:01 BASE 2.58 95 3.45 103 0.2 100 0.2 0 0 997.8 NA 0.0000 9999 950 0 0 0
2019/03/03 01:39:00 BASE 2.19 96 3.45 103 0.2 100 0.2 0 0 997.8 NA 0.0000 9999 850 0 0 0
2019/03/03 01:40:00 BASE 1.81 95 2.98 103 0.2 100 0.2 0 0 997.8 NA 0.0000 9999 850 0 0 0
2019/03/03 01:41:00 BASE 0.90 97 2.93 102 0.2 100 0.2 0 0 997.8 NA 0.0000 9999 890 0 0 0
2019/03/03 01:42:01 BASE 0.09 92 2.93 102 0.2 100 0.2 0 0 997.8 NA 0.0000 9999 850 0 0 0
2019/03/03 01:43:01 BASE 0.00 87 2.93 102 0.2 100 0.2 0 0 997.8 NA 0.0000 9999 890 0 0 0
2019/03/03 01:44:01 BASE 0.09 64 2.93 102 0.2 100 0.2 0 0 997.8 NA 0.0000 9999 850 0 0 0
2019/03/03 01:45:00 BASE 0.25 28 2.93 102 0.2 100 0.2 0 0 997.7 NA 0.0000 9999 890 0 0 0
2019/03/03 01:46:00 BASE 1.00 17 2.93 102 0.2 100 0.2 0 0 997.7 NA 0.0000 9999 890 0 0 0
2019/03/03 01:47:00 BASE 1.85 17 2.88 94 0.2 100 0.2 0 0 997.8 NA 0.0000 9999 890 0 0 0
2019/03/03 01:48:00 BASE 2.18 28 2.73 7 0.2 100 0.2 0 0 997.8 NA 0.0000 9999 850 0 0 0
2019/03/03 01:49:00 BASE 1.99 31 2.73 7 0.2 100 0.2 0 0 997.8 NA 0.0000 9999 820 0 0 0
2019/03/03 01:50:00 BASE 1.66 27 2.73 7 0.2 100 0.2 0 0 997.8 NA 0.0000 9999 820 0 0 0
2019/03/03 01:51:00 BASE 1.31 26 2.73 7 0.2 100 0.2 0 0 997.8 NA 0.0000 9999 820 0 0 0
2019/03/03 01:52:00 BASE 0.90 32 2.73 7 0.2 100 0.2 0 0 997.8 NA 0.0000 9999 820 0 0 0
2019/03/03 01:53:00 BASE 0.71 34 2.73 7 0.2 100 0.2 0 0 997.8 NA 0.0000 9999 820 0 0 0
2019/03/03 01:54:00 BASE 0.30 33 2.73 7 0.1 100 0.1 0 0 997.8 NA 0.0000 9999 890 0 0 0
2019/03/03 01:55:00 BASE 0.00 32 2.73 7 0.1 100 0.1 0 0 997.8 NA 0.0000 9999 890 0 0 0
2019/03/03 01:56:00 BASE 0.39 30 2.73 7 0.1 100 0.1 0 0 997.7 NA 0.0000 9999 890 0 0 0
2019/03/03 01:57:00 BASE 1.21 36 2.62 37 0.2 100 0.2 0 0 997.7 NA 0.0000 9999 850 0 0 0
2019/03/03 01:58:00 BASE 1.72 43 2.11 47 0.2 100 0.2 0 0 997.7 NA 0.0000 9999 890 0 0 0
2019/03/03 01:59:00 BASE 1.97 41 2.47 46 0.3 100 0.3 0 0 997.7 NA 0.0000 9999 890 0 0 0
2019/03/03 02:00:00 BASE 2.11 34 2.47 46 0.3 100 0.3 0 0 997.7 NA 0.0000 9999 890 0 0 0
2019/03/03 02:01:00 BASE 2.29 22 3.09 7 0.3 100 0.3 0 0 997.7 NA 0.0000 9999 790 0 0 0
2019/03/03 02:02:00 BASE 2.30 10 3.09 7 0.3 100 0.3 0 0 997.7 NA 0.0000 9999 820 0 0 0
2019/03/03 02:03:00 BASE 1.67 6 3.09 7 0.3 100 0.3 0 0 997.7 NA 0.0000 9999 820 0 0 0
2019/03/03 02:04:00 BASE 1.41 351 3.09 7 0.2 100 0.2 0 0 997.7 NA 0.0000 9999 820 0 0 0
2019/03/03 02:05:00 BASE 1.40 335 3.09 7 0.2 100 0.2 0 0 997.7 NA 0.0000 9999 820 0 0 0
2019/03/03 02:06:00 BASE 0.84 329 3.09 7 0.2 100 0.2 0 0 997.7 NA 0.0000 9999 820 0 0 0
2019/03/03 02:07:00 BASE 0.77 335 3.09 7 0.2 100 0.2 0 0 997.7 NA 0.0000 9999 820 0 0 0
2019/03/03 02:08:00 BASE 1.38 343 3.09 7 0.2 100 0.2 0 0 997.6 NA 0.0000 9999 820 0 0 0
2019/03/03 02:09:00 BASE 1.85 344 3.09 7 0.2 100 0.2 0 0 997.6 NA 0.0000 9999 820 0 0 0
2019/03/03 02:10:00 BASE 2.36 338 3.09 327 0.2 100 0.2 0 0 997.6 NA 0.0000 9999 790 0 0 0
2019/03/03 02:11:00 BASE 2.94 330 3.91 326 0.2 100 0.2 0 0 997.6 NA 0.0000 9999 790 0 0 0
2019/03/03 02:12:00 BASE 3.66 329 4.48 328 0.2 100 0.2 0 0 997.7 NA 0.0000 9999 820 0 0 0
2019/03/03 02:13:00 BASE 3.70 334 4.48 328 0.2 100 0.2 0 0 997.7 NA 0.0000 9999 790 0 0 0
2019/03/03 02:14:00 BASE 3.17 332 4.48 328 0.2 100 0.2 0 0 997.7 NA 0.0000 9999 790 0 0 0
2019/03/03 02:15:00 BASE 3.09 330 4.48 328 0.2 100 0.2 0 0 997.6 NA 0.0000 9999 750 0 0 0
2019/03/03 02:16:00 BASE 3.42 325 4.48 328 0.2 100 0.2 0 0 997.6 NA 0.0000 9999 790 0 0 0
2019/03/03 02:17:00 BASE 3.53 320 4.48 328 0.2 100 0.2 0 0 997.6 NA 0.0000 9999 790 0 0 0
2019/03/03 02:18:00 BASE 3.20 325 4.48 328 0.2 100 0.2 0 0 997.6 NA 0.0000 9999 790 0 0 0
2019/03/03 02:19:00 BASE 3.11 323 4.48 328 0.1 100 0.1 0 0 997.6 NA 0.0000 9999 820 0 0 0
2019/03/03 02:20:00 BASE 2.90 322 4.48 328 0.1 100 0.1 0 0 997.6 NA 0.0000 9999 850 0 0 0
2019/03/03 02:21:00 BASE 3.10 325 4.48 328 0.1 100 0.1 0 0 997.6 NA 0.0000 9999 890 0 0 0
2019/03/03 02:22:00 BASE 3.74 330 4.37 331 0.1 100 0.1 0 0 997.6 NA 0.0000 9999 820 0 0 0
2019/03/03 02:23:00 BASE 4.00 329 4.42 328 0.1 100 0.1 0 0 997.6 NA 0.0000 9999 820 0 0 0
2019/03/03 02:24:00 BASE 3.76 332 4.42 328 0.0 100 0.0 0 0 997.6 NA 0.0000 9999 790 0 0 0
2019/03/03 02:25:00 BASE 3.10 338 4.42 328 0.1 100 0.1 0 0 997.6 NA 0.0000 9999 790 0 0 0
2019/03/03 02:26:00 BASE 2.69 339 4.42 328 0.0 100 0.0 0 0 997.6 NA 0.0000 9999 820 0 0 0
2019/03/03 02:27:00 BASE 2.68 337 4.42 328 0.1 100 0.1 0 0 997.6 NA 0.0000 9999 790 0 0 0
2019/03/03 02:28:00 BASE 2.46 331 4.42 328 0.1 100 0.0 0 0 997.6 NA 0.0000 9999 790 0 0 0
2019/03/03 02:29:00 BASE 2.16 331 4.42 328 0.1 100 0.1 0 0 997.6 NA 0.0000 9999 790 0 0 0
2019/03/03 02:30:00 BASE 1.97 334 4.42 328 0.0 100 0.0 0 0 997.6 NA 0.0000 9999 790 0 0 0
2019/03/03 02:31:00 BASE 1.69 339 4.42 328 0.0 100 0.0 0 0 997.6 NA 0.0000 9999 790 0 0 0
2019/03/03 02:32:00 BASE 1.23 342 4.42 328 -0.0 100 -0.0 0 0 997.6 NA 0.0000 9999 750 0 0 0
2019/03/03 02:33:00 BASE 1.13 342 4.12 328 -0.0 100 -0.0 0 0 997.6 NA 0.0000 9999 790 0 0 0
2019/03/03 02:34:00 BASE 1.29 341 3.45 327 -0.0 100 -0.0 0 0 997.5 NA 0.0000 9999 750 0 0 0
2019/03/03 02:35:00 BASE 1.35 342 3.45 327 -0.0 100 -0.0 0 0 997.5 NA 0.0000 9999 750 0 0 0
2019/03/03 02:36:00 BASE 1.22 348 2.88 330 -0.0 100 -0.0 0 0 997.5 NA 0.0000 9999 750 0 0 0
2019/03/03 02:37:00 BASE 0.87 345 2.68 339 -0.0 100 -0.0 0 0 997.5 NA 0.0000 9999 750 0 0 0
2019/03/03 02:38:00 BASE 0.51 337 2.42 332 -0.0 100 -0.0 0 0 997.5 NA 0.0000 9999 750 0 0 0
2019/03/03 02:39:00 BASE 0.66 335 2.11 334 -0.1 100 -0.1 0 0 997.5 NA 0.0000 9999 720 0 0 0
2019/03/03 02:40:00 BASE 1.27 338 1.90 343 -0.1 100 -0.1 0 0 997.5 NA 0.0000 9999 720 0 0 0
2019/03/03 02:41:00 BASE 1.48 336 1.75 340 -0.0 100 -0.0 0 0 997.5 NA 0.0000 9999 720 0 0 0
2019/03/03 02:42:00 BASE 1.42 331 1.75 340 -0.0 100 -0.0 0 0 997.5 NA 0.0000 9999 720 0 0 0
2019/03/03 02:43:00 BASE 1.39 327 1.80 326 0.0 100 0.0 0 0 997.5 NA 0.0000 9999 720 0 0 0
2019/03/03 02:44:00 BASE 1.59 327 1.85 330 0.0 100 0.0 0 0 997.5 NA 0.0000 9999 720 0 0 0
2019/03/03 02:45:00 BASE 1.61 329 1.85 330 -0.0 100 -0.0 0 0 997.5 NA 0.0000 9999 750 0 0 0
2019/03/03 02:46:00 BASE 1.36 330 1.85 330 -0.0 100 -0.0 0 0 997.5 NA 0.0000 9999 720 0 0 0
2019/03/03 02:47:00 BASE 1.24 328 1.85 330 -0.0 100 -0.0 0 0 997.5 NA 0.0000 9999 690 0 0 0
2019/03/03 02:48:00 BASE 1.19 324 1.85 330 -0.1 100 -0.1 0 0 997.5 NA 0.0000 9999 660 0 0 0
2019/03/03 02:49:00 BASE 0.97 320 1.85 330 -0.1 100 -0.1 0 0 997.4 NA 0.0000 9999 690 0 0 0
2019/03/03 02:50:00 BASE 1.58 317 2.83 306 -0.1 100 -0.1 0 0 997.4 NA 0.0000 9999 660 0 0 0
2019/03/03 02:51:00 BASE 2.69 316 3.45 316 -0.1 100 -0.1 0 0 997.3 NA 0.0000 9999 750 0 0 0
2019/03/03 02:52:01 BASE 3.50 312 4.89 306 -0.1 100 -0.1 0 0 997.3 NA 0.0000 9999 790 0 0 0
2019/03/03 02:53:00 BASE 4.23 313 4.89 306 -0.1 100 -0.1 0 0 997.3 NA 0.0000 9999 790 0 0 0
2019/03/03 02:54:01 BASE 4.18 317 4.89 306 -0.1 100 -0.1 0 0 997.3 NA 0.0000 9999 750 0 0 0
2019/03/03 02:55:01 BASE 4.43 318 5.61 319 -0.0 100 -0.0 0 0 997.3 NA 0.0000 9999 820 0 0 0
2019/03/03 02:56:00 BASE 5.08 318 5.61 319 -0.0 100 -0.0 0 0 997.3 NA 0.0000 9999 820 0 0 0
2019/03/03 02:57:00 BASE 5.44 316 6.02 315 -0.0 100 -0.0 0 0 997.3 NA 0.0000 9999 890 0 0 0
2019/03/03 02:58:01 BASE 5.79 315 6.48 315 -0.0 100 -0.0 0 0 997.3 NA 0.0000 9999 890 0 0 0
2019/03/03 02:59:01 BASE 5.81 314 6.48 315 -0.0 100 -0.0 0 0 997.3 NA 0.0000 9999 890 0 0 0
2019/03/03 03:00:01 BASE 5.73 310 6.48 315 -0.0 100 -0.0 0 0 997.3 NA 0.0000 9999 890 0 0 0
2019/03/03 03:01:01 BASE 5.77 312 6.48 315 -0.0 100 -0.0 0 0 997.3 NA 0.0000 9999 890 0 0 0
2019/03/03 03:02:01 BASE 5.71 314 6.48 315 -0.0 100 -0.0 0 0 997.3 NA 0.0000 9999 920 0 0 0
2019/03/03 03:03:01 BASE 5.47 312 6.48 315 -0.0 100 -0.0 0 0 997.3 NA 0.0000 9999 950 0 0 0
2019/03/03 03:04:01 BASE 5.14 310 6.48 315 -0.0 100 -0.0 0 0 997.3 NA 0.0000 9999 1020 0 0 0
2019/03/03 03:05:01 BASE 5.22 310 6.48 315 -0.0 100 -0.0 0 0 997.3 NA 0.0000 9999 1020 0 0 0
2019/03/03 03:06:01 BASE 5.48 308 6.48 315 -0.0 100 -0.0 0 0 997.3 NA 0.0000 9999 1020 0 0 0
2019/03/03 03:07:01 BASE 5.76 307 6.48 305 -0.0 100 -0.0 0 0 997.3 NA 0.0000 9999 920 0 0 0
2019/03/03 03:08:01 BASE 5.89 307 6.48 305 -0.0 100 -0.0 0 0 997.3 NA 0.0000 9999 1020 0 0 0
2019/03/03 03:09:01 BASE 5.56 306 6.48 305 -0.0 100 -0.0 0 0 997.3 NA 0.0000 9999 920 0 0 0
2019/03/03 03:10:01 BASE 5.39 303 6.48 305 -0.0 100 -0.0 0 0 997.3 NA 0.0000 9999 950 0 0 0
2019/03/03 03:11:00 BASE 5.75 304 6.84 303 -0.0 100 -0.0 0 0 997.2 NA 0.0000 9999 950 0 0 0
2019/03/03 03:12:01 BASE 6.38 305 7.05 303 0.0 100 -0.0 0 0 997.2 NA 0.0000 9999 950 0 0 0
2019/03/03 03:13:01 BASE 6.10 302 7.05 303 0.0 100 0.0 0 0 997.2 NA 0.0000 9999 1080 0 0 0
2019/03/03 03:14:00 BASE 5.72 300 7.05 303 0.0 100 0.0 0 0 997.2 NA 0.0000 9999 1080 0 0 0
2019/03/03 03:15:01 BASE 6.01 301 7.41 304 0.0 100 0.0 0 0 997.2 NA 0.0000 9999 1080 0 0 0
2019/03/03 03:16:00 BASE 6.74 303 8.64 304 0.0 100 0.0 0 0 997.2 NA 0.0000 9999 1080 0 0 0
2019/03/03 03:17:00 BASE 7.22 301 8.64 304 0.0 100 0.0 0 0 997.2 NA 0.0000 9999 1080 0 0 0
2019/03/03 03:18:01 BASE 6.54 298 8.64 304 0.0 100 0.0 0 0 997.2 NA 0.0000 9999 1050 0 0 0
2019/03/03 03:19:00 BASE 5.98 294 8.64 304 0.0 100 0.0 0 0 997.2 NA 0.0000 9999 1080 0 0 0
2019/03/03 03:20:01 BASE 5.86 295 8.64 304 0.0 100 0.0 0 0 997.2 NA 0.0000 9999 1120 0 0 0
2019/03/03 03:21:00 BASE 5.73 294 8.64 304 0.0 100 0.0 0 0 997.2 NA 0.0000 9999 1280 0 0 0
2019/03/03 03:22:00 BASE 5.86 288 8.64 304 0.1 100 0.1 0 0 997.2 NA 0.0000 9999 1310 0 0 0
2019/03/03 03:23:00 BASE 5.69 283 8.64 304 0.1 100 0.1 0 0 997.2 NA 0.0000 9999 1080 0 0 0
2019/03/03 03:24:00 BASE 5.47 279 8.64 304 0.1 100 0.1 0 0 997.2 NA 0.0000 9999 1120 0 0 0
2019/03/03 03:25:00 BASE 5.50 280 8.64 304 0.1 100 0.1 0 0 997.2 NA 0.0000 9999 1180 0 0 0
2019/03/03 03:26:01 BASE 4.79 278 7.82 297 0.1 100 0.1 0 0 997.2 NA 0.0000 9999 1180 0 0 0
2019/03/03 03:27:00 BASE 4.55 272 7.05 281 0.1 100 0.1 0 0 997.2 NA 0.0000 9999 1150 0 0 0
2019/03/03 03:28:01 BASE 4.96 270 7.05 281 0.1 100 0.1 0 0 997.2 NA 0.0000 9999 1250 0 0 0
2019/03/03 03:29:00 BASE 4.97 277 7.05 281 0.1 100 0.1 0 0 997.2 NA 0.0000 9999 1210 0 0 0
2019/03/03 03:30:01 BASE 4.72 287 7.05 281 0.1 100 0.1 0 0 997.2 NA 0.0000 9999 1280 0 0 0
2019/03/03 03:31:00 BASE 4.70 289 7.05 281 0.0 100 0.0 0 0 997.1 NA 0.0000 9999 1310 0 0 0
2019/03/03 03:32:01 BASE 4.98 291 6.74 279 0.0 100 0.0 0 0 997.1 NA 0.0000 9999 1310 0 0 0
2019/03/03 03:33:00 BASE 5.42 291 6.74 279 -0.0 100 -0.0 0 0 997.1 NA 0.0000 9999 1310 0 0 0
2019/03/03 03:34:00 BASE 5.51 291 6.58 274 -0.0 100 -0.0 0 0 997.1 NA 0.0000 9999 1310 0 0 0
2019/03/03 03:35:00 BASE 5.55 293 6.58 274 -0.0 100 -0.0 0 0 997.1 NA 0.0000 9999 1350 0 0 0
2019/03/03 03:36:00 BASE 5.81 295 6.58 274 -0.0 100 -0.0 0 0 997.1 NA 0.0000 9999 1380 0 0 0
2019/03/03 03:37:00 BASE 5.74 296 6.74 303 -0.0 100 -0.0 0 0 997.1 NA 0.0000 9999 1350 0 0 0
2019/03/03 03:38:00 BASE 5.91 293 6.74 291 -0.0 100 -0.0 0 0 997.0 NA 0.0000 9999 1480 0 0 0
2019/03/03 03:39:00 BASE 5.79 289 6.74 291 -0.0 100 -0.0 0 0 997.0 NA 0.0000 9999 1480 14080 0 0
2019/03/03 03:40:00 BASE 5.06 286 6.74 291 -0.0 100 -0.0 0 0 997.1 NA 0.0000 9999 1480 14040 0 0
2019/03/03 03:41:01 BASE 4.20 282 6.74 291 -0.0 100 -0.0 0 0 997.0 NA 0.0000 9999 1350 0 0 0
2019/03/03 03:42:00 BASE 3.80 280 6.74 291 0.0 100 0.0 0 0 997.0 NA 0.0000 9999 1380 14110 0 0
2019/03/03 03:43:00 BASE 3.71 279 6.74 291 0.0 100 0.0 0 0 997.0 NA 0.0000 9999 1280 0 0 0
2019/03/03 03:44:01 BASE 4.13 282 6.74 291 0.0 100 0.0 0 0 997.0 NA 0.0000 9999 1020 0 0 0
2019/03/03 03:45:00 BASE 4.93 288 6.74 291 0.1 100 0.1 0 0 997.0 NA 0.0000 9999 1020 0 0 0
2019/03/03 03:46:01 BASE 5.07 292 6.74 291 0.1 100 0.1 0 0 997.0 NA 0.0000 9999 980 0 0 0
2019/03/03 03:47:00 BASE 4.59 294 6.74 291 0.0 100 0.0 0 0 997.0 NA 0.0000 9999 980 0 0 0
2019/03/03 03:48:00 BASE 4.28 294 6.12 286 0.0 100 0.0 0 0 997.0 NA 0.0000 9999 950 0 0 0
2019/03/03 03:49:01 BASE 4.61 292 5.71 289 0.0 100 0.0 0 0 997.0 NA 0.0000 9999 950 0 0 0
2019/03/03 03:50:00 BASE 4.64 291 5.71 289 -0.0 100 -0.0 0 0 997.0 NA 0.0000 9999 950 0 0 0
2019/03/03 03:51:00 BASE 3.96 289 5.71 289 -0.0 100 -0.0 0 0 997.0 NA 0.0000 9999 1180 0 0 0
2019/03/03 03:52:00 BASE 3.10 289 5.71 289 -0.0 100 -0.0 0 0 997.0 NA 0.0000 9999 13390 16960 0 0
2019/03/03 03:53:00 BASE 2.25 283 5.71 289 -0.0 100 -0.0 0 0 996.9 NA 0.0000 9999 13390 17000 0 0
2019/03/03 03:54:00 BASE 2.41 278 5.71 289 -0.0 100 -0.0 0 0 996.8 NA 0.0000 9999 1020 0 0 0
2019/03/03 03:55:00 BASE 3.02 284 5.40 294 -0.1 100 -0.1 0 0 996.8 NA 0.0000 9999 1080 0 0 0
2019/03/03 03:56:00 BASE 2.63 281 5.20 290 -0.1 100 -0.1 0 0 996.8 NA 0.0000 9999 1080 0 0 0
2019/03/03 03:57:00 BASE 1.93 266 5.20 290 -0.0 100 -0.0 0 0 996.8 NA 0.0000 9999 1150 0 0 0
2019/03/03 03:58:01 BASE 2.05 253 5.20 290 -0.1 100 -0.1 0 0 996.8 NA 0.0000 9999 1120 0 0 0
2019/03/03 03:59:00 BASE 2.31 248 4.68 293 -0.1 100 -0.1 0 0 996.8 NA 0.0000 9999 1120 0 0 0
2019/03/03 04:00:01 BASE 2.06 242 3.91 285 -0.1 100 -0.1 0 0 996.8 NA 0.0000 9999 1120 0 0 0
2019/03/03 04:01:00 BASE 2.15 237 3.45 289 -0.1 100 -0.1 0 0 996.8 NA 0.0000 9999 0 0 0 0
2019/03/03 04:02:00 BASE 2.35 237 3.45 289 -0.1 100 -0.1 0 0 996.7 NA 0.0000 9999 0 0 0 0
2019/03/03 04:03:00 BASE 2.65 239 3.55 242 -0.1 100 -0.1 0 0 996.7 NA 0.0000 9999 16900 0 0 0
2019/03/03 04:04:01 BASE 2.96 255 3.55 242 -0.2 100 -0.2 0 0 996.7 NA 0.0000 9999 16700 0 0 0
2019/03/03 04:05:00 BASE 2.78 266 3.55 242 -0.2 100 -0.2 0 0 996.7 NA 0.0000 9999 0 0 0 0
2019/03/03 04:06:00 BASE 2.54 264 3.55 242 -0.2 100 -0.2 0 0 996.7 NA 0.0000 9999 0 0 0 0
2019/03/03 04:07:00 BASE 2.43 263 3.55 242 -0.2 100 -0.2 0 0 996.7 NA 0.0000 9999 0 0 0 0
2019/03/03 04:08:01 BASE 2.24 260 3.55 242 -0.2 100 -0.2 0 0 996.7 NA 0.0000 9999 0 0 0 0
2019/03/03 04:09:00 BASE 1.58 258 3.55 242 -0.2 100 -0.2 0 0 996.7 NA 0.0000 9999 850 0 0 0
2019/03/03 04:10:00 BASE 0.51 253 3.55 242 -0.2 100 -0.2 0 0 996.7 NA 0.0000 9999 920 0 0 0
2019/03/03 04:11:00 BASE 0.00 238 3.55 242 -0.3 100 -0.3 0 0 996.7 NA 0.0000 9999 820 0 0 0
2019/03/03 04:12:00 BASE 0.05 216 3.55 242 -0.3 100 -0.3 0 0 996.7 NA 0.0000 9999 850 0 0 0
2019/03/03 04:13:00 BASE 0.76 206 3.34 267 -0.2 100 -0.2 0 0 996.7 NA 0.0000 9999 790 0 0 0
2019/03/03 04:14:00 BASE 1.93 212 2.98 208 -0.2 100 -0.2 0 0 996.6 NA 0.0000 9999 790 0 0 0
2019/03/03 04:15:00 BASE 2.60 217 3.19 215 -0.2 100 -0.2 0 0 996.7 NA 0.0000 9999 790 0 0 0
2019/03/03 04:16:01 BASE 2.72 210 3.19 221 -0.2 100 -0.2 0 0 996.7 NA 0.0000 9999 820 0 0 0
2019/03/03 04:17:00 BASE 2.31 192 3.19 221 -0.2 100 -0.2 0 0 996.7 NA 0.0000 9999 820 0 0 0
2019/03/03 04:18:00 BASE 1.17 178 3.19 221 -0.2 100 -0.2 0 0 996.6 NA 0.0000 9999 850 0 0 0
2019/03/03 04:19:00 BASE 1.26 182 3.19 221 -0.2 100 -0.2 0 0 996.6 NA 0.0000 9999 850 0 0 0
2019/03/03 04:20:00 BASE 2.15 181 3.19 221 -0.3 100 -0.3 0 0 996.6 NA 0.0000 9999 890 0 0 0
2019/03/03 04:21:00 BASE 2.30 165 3.19 221 -0.3 100 -0.3 0 0 996.6 NA 0.0000 9999 850 0 0 0
2019/03/03 04:22:00 BASE 2.45 154 3.19 221 -0.3 100 -0.3 0 0 996.6 NA 0.0000 9999 820 0 0 0
2019/03/03 04:23:00 BASE 2.34 150 3.19 221 -0.3 100 -0.3 0 0 996.6 NA 0.0000 9999 820 0 0 0
2019/03/03 04:24:00 BASE 1.96 150 3.19 221 -0.3 100 -0.3 0 0 996.6 NA 0.0000 9999 850 0 0 0
2019/03/03 04:25:00 BASE 1.69 139 3.19 221 -0.3 100 -0.3 0 0 996.6 NA 0.0000 9999 820 0 0 0
2019/03/03 04:26:00 BASE 1.99 128 2.83 201 -0.3 100 -0.3 0 0 996.6 NA 0.0000 9999 850 0 0 0
2019/03/03 04:27:00 BASE 2.57 131 3.45 142 -0.3 100 -0.3 0 0 996.6 NA 0.0000 9999 850 0 0 0
2019/03/03 04:28:00 BASE 2.83 142 3.55 140 -0.3 100 -0.3 0 0 996.6 NA 0.0000 9999 820 0 0 0
2019/03/03 04:29:00 BASE 2.82 146 3.55 140 -0.3 100 -0.3 0 0 996.6 NA 0.0000 9999 850 0 0 0
2019/03/03 04:30:00 BASE 2.91 146 3.55 140 -0.3 100 -0.3 0 0 996.6 NA 0.0000 9999 850 0 0 0
2019/03/03 04:31:00 BASE 3.18 151 3.55 140 -0.2 100 -0.2 0 0 996.6 NA 0.0000 9999 850 0 0 0
2019/03/03 04:32:00 BASE 3.32 151 3.91 150 -0.2 100 -0.2 0 0 996.6 NA 0.0000 9999 850 0 0 0
2019/03/03 04:33:00 BASE 3.42 150 3.91 150 -0.2 100 -0.2 0 0 996.6 NA 0.0000 9999 890 0 0 0
2019/03/03 04:34:00 BASE 3.47 151 3.91 150 -0.2 100 -0.2 0 0 996.6 NA 0.0000 9999 850 0 0 0
2019/03/03 04:35:00 BASE 3.27 149 3.91 150 -0.2 100 -0.2 0 0 996.6 NA 0.0000 9999 850 0 0 0
2019/03/03 04:36:00 BASE 3.14 141 3.91 150 -0.2 100 -0.2 0 0 996.6 NA 0.0000 9999 850 0 0 0
2019/03/03 04:37:00 BASE 3.40 142 4.12 145 -0.2 100 -0.2 0 0 996.6 NA 0.0000 9999 850 0 0 0
2019/03/03 04:38:00 BASE 3.60 143 4.12 145 -0.2 100 -0.2 0 0 996.6 NA 0.0000 9999 890 0 0 0
2019/03/03 04:39:00 BASE 4.06 140 5.04 136 -0.2 100 -0.2 0 0 996.6 NA 0.0000 9999 920 0 0 0
2019/03/03 04:40:00 BASE 4.74 137 5.86 139 -0.2 100 -0.2 0 0 996.6 NA 0.0000 9999 920 0 0 0
2019/03/03 04:41:00 BASE 4.62 144 5.86 139 -0.2 100 -0.2 0 0 996.6 NA 0.0000 9999 890 0 0 0
2019/03/03 04:42:00 BASE 3.81 150 5.86 139 -0.2 100 -0.2 0 0 996.6 NA 0.0000 9999 890 0 0 0
2019/03/03 04:43:00 BASE 3.27 144 5.86 139 -0.2 100 -0.2 0 0 996.6 NA 0.0000 9999 1050 16340 0 0
2019/03/03 04:44:00 BASE 3.34 146 5.86 139 -0.2 100 -0.2 0 0 996.6 NA 0.0000 9999 980 0 0 0
2019/03/03 04:45:00 BASE 3.57 153 5.86 139 -0.2 100 -0.2 0 0 996.6 NA 0.0000 9999 0 0 0 0
2019/03/03 04:46:00 BASE 3.73 151 5.86 139 -0.2 100 -0.2 0 0 996.6 NA 0.0000 9999 16240 0 0 0
2019/03/03 04:47:00 BASE 3.72 151 5.86 139 -0.3 100 -0.3 0 0 996.6 NA 0.0000 9999 16110 0 0 0
2019/03/03 04:48:00 BASE 3.54 157 5.86 139 -0.3 100 -0.3 0 0 996.6 NA 0.0000 9999 16010 0 0 0
2019/03/03 04:49:00 BASE 3.36 154 5.86 139 -0.3 100 -0.3 0 0 996.6 NA 0.0000 9999 15980 0 0 0
2019/03/03 04:50:00 BASE 3.59 147 5.30 147 -0.3 100 -0.3 0 0 996.6 NA 0.0000 9999 1120 16080 0 0
2019/03/03 04:51:00 BASE 4.14 142 4.94 138 -0.3 100 -0.3 0 0 996.6 NA 0.0000 9999 16080 0 0 0
2019/03/03 04:52:00 BASE 4.76 138 5.56 142 -0.3 100 -0.3 0 0 996.6 NA 0.0000 9999 15910 0 0 0
2019/03/03 04:53:00 BASE 4.91 137 5.56 142 -0.3 100 -0.3 0 0 996.6 NA 0.0000 9999 15910 0 0 0
2019/03/03 04:54:00 BASE 5.01 142 6.07 154 -0.3 100 -0.3 0 0 996.6 NA 0.0000 9999 950 16040 0 0
2019/03/03 04:55:00 BASE 4.84 157 6.07 154 -0.3 100 -0.3 0 0 996.6 NA 0.0000 9999 890 0 0 0
2019/03/03 04:56:00 BASE 4.14 177 6.07 154 -0.3 100 -0.3 0 0 996.6 NA 0.0000 9999 890 15950 0 0
2019/03/03 04:57:00 BASE 3.80 182 6.07 154 -0.2 100 -0.2 0 0 996.6 NA 0.0000 9999 920 15980 0 0
2019/03/03 04:58:00 BASE 3.79 178 6.07 154 -0.2 100 -0.2 0 0 996.6 NA 0.0000 9999 890 0 0 0
2019/03/03 04:59:00 BASE 4.46 175 6.28 181 -0.2 100 -0.2 0 0 996.6 NA 0.0000 9999 890 0 0 0
2019/03/03 05:00:00 BASE 5.26 175 6.28 181 -0.2 100 -0.2 0 0 996.6 NA 0.0000 9999 980 0 0 0
2019/03/03 05:01:00 BASE 5.47 173 6.28 181 -0.3 100 -0.3 0 0 996.6 NA 0.0000 9999 980 0 0 0
2019/03/03 05:02:00 BASE 4.94 167 6.28 181 -0.3 100 -0.3 0 0 996.6 NA 0.0000 9999 0 0 0 0
2019/03/03 05:03:00 BASE 4.66 159 6.28 181 -0.3 100 -0.3 0 0 996.6 NA 0.0000 9999 1120 0 0 0
2019/03/03 05:04:00 BASE 5.09 153 6.28 181 -0.3 100 -0.3 0 0 996.6 NA 0.0000 9999 1150 0 0 0
2019/03/03 05:05:00 BASE 4.79 156 6.28 181 -0.3 100 -0.3 0 0 996.6 NA 0.0000 9999 1150 0 0 0
2019/03/03 05:06:00 BASE 4.40 159 6.28 181 -0.3 100 -0.3 0 0 996.7 NA 0.0000 9999 1180 0 0 0
2019/03/03 05:07:00 BASE 4.47 155 6.28 181 -0.3 100 -0.3 0 0 996.6 NA 0.0000 9999 1020 1570 0 0
2019/03/03 05:08:00 BASE 4.43 150 6.28 181 -0.2 100 -0.2 0 0 996.7 NA 0.0000 9999 1250 0 0 0
2019/03/03 05:09:00 BASE 4.31 150 6.17 169 -0.2 100 -0.2 0 0 996.7 NA 0.0000 9999 1180 0 0 0
2019/03/03 05:10:00 BASE 4.52 148 6.17 169 -0.2 100 -0.2 0 0 996.7 NA 0.0000 9999 1050 0 0 0
2019/03/03 05:11:00 BASE 4.61 143 6.12 153 -0.2 100 -0.2 0 0 996.7 NA 0.0000 9999 1180 0 0 0
2019/03/03 05:12:00 BASE 4.30 147 6.12 153 -0.2 100 -0.2 0 0 996.7 NA 0.0000 9999 1080 0 0 0
2019/03/03 05:13:00 BASE 4.10 153 6.12 153 -0.2 100 -0.2 0 0 996.7 NA 0.0000 9999 1150 0 0 0
2019/03/03 05:14:00 BASE 3.81 150 5.71 158 -0.2 100 -0.2 0 0 996.7 NA 0.0000 9999 1020 0 0 0
2019/03/03 05:15:00 BASE 3.81 144 5.71 158 -0.2 100 -0.2 0 0 996.7 NA 0.0000 9999 1020 0 0 0
2019/03/03 05:16:00 BASE 4.21 148 5.71 158 -0.2 100 -0.2 0 0 996.7 NA 0.0000 9999 1080 0 0 0
2019/03/03 05:17:00 BASE 4.03 148 5.45 151 -0.2 100 -0.2 0 0 996.7 NA 0.0000 9999 950 0 0 0
2019/03/03 05:18:00 BASE 3.47 145 5.45 151 -0.2 100 -0.2 0 0 996.7 NA 0.0000 9999 920 0 0 0
2019/03/03 05:19:00 BASE 3.04 146 5.45 151 -0.2 100 -0.2 0 0 996.7 NA 0.0000 9999 1080 0 0 0
2019/03/03 05:20:00 BASE 3.32 141 5.45 151 -0.2 100 -0.2 0 0 996.7 NA 0.0000 9999 1080 0 0 0
2019/03/03 05:21:00 BASE 4.41 138 5.45 151 -0.2 100 -0.2 0 0 996.6 NA 0.0000 9999 1020 0 0 0
2019/03/03 05:22:00 BASE 5.00 140 5.45 147 -0.2 100 -0.2 0 0 996.6 NA 0.0000 9999 980 0 0 0
2019/03/03 05:23:00 BASE 5.00 138 5.45 147 -0.2 100 -0.2 0 0 996.6 NA 0.0000 9999 920 0 0 0
2019/03/03 05:24:00 BASE 5.18 137 5.97 139 -0.2 100 -0.2 0 0 996.6 NA 0.0000 9999 950 0 0 0
2019/03/03 05:25:00 BASE 5.06 138 5.97 139 -0.2 100 -0.2 0 0 996.6 NA 0.0000 9999 980 0 0 0
2019/03/03 05:26:00 BASE 5.05 140 6.02 144 -0.2 100 -0.2 0 0 996.6 NA 0.0000 9999 1050 0 0 0
2019/03/03 05:27:00 BASE 5.23 142 6.02 144 -0.2 100 -0.2 0 0 996.6 NA 0.0000 9999 950 0 0 0
2019/03/03 05:28:00 BASE 5.03 138 6.02 144 -0.2 100 -0.2 0 0 996.6 NA 0.0000 9999 1080 0 0 0
2019/03/03 05:29:00 BASE 5.08 134 6.02 144 -0.2 100 -0.2 0 0 996.6 NA 0.0000 9999 850 0 0 0
2019/03/03 05:30:00 BASE 5.41 133 6.02 144 -0.2 100 -0.2 0 0 996.6 NA 0.0000 9999 890 0 0 0
2019/03/03 05:31:00 BASE 5.44 133 6.02 144 -0.2 100 -0.2 0 0 996.6 NA 0.0000 9999 950 0 0 0
2019/03/03 05:32:00 BASE 5.49 134 6.33 132 -0.2 100 -0.2 0 0 996.6 NA 0.0000 9999 850 0 0 0
2019/03/03 05:33:00 BASE 5.64 137 6.33 132 -0.2 100 -0.2 0 0 996.6 NA 0.0000 9999 1050 0 0 0
2019/03/03 05:34:00 BASE 5.79 143 6.38 142 -0.2 100 -0.2 0 0 996.6 NA 0.0000 9999 920 0 0 0
2019/03/03 05:35:00 BASE 5.57 148 6.38 142 -0.2 100 -0.2 0 0 996.6 NA 0.0000 9999 850 0 0 0
2019/03/03 05:36:00 BASE 4.61 142 6.38 142 -0.2 100 -0.2 0 0 996.6 NA 0.0000 9999 950 0 0 0
2019/03/03 05:37:00 BASE 4.52 137 6.38 142 -0.2 100 -0.2 0 0 996.6 NA 0.0000 9999 1020 0 0 0
2019/03/03 05:38:00 BASE 5.02 138 6.38 142 -0.2 100 -0.2 0 0 996.6 NA 0.0000 9999 980 0 0 0
2019/03/03 05:39:00 BASE 5.16 138 6.38 142 -0.2 100 -0.2 0 0 996.6 NA 0.0000 9999 920 0 0 0
2019/03/03 05:40:01 BASE 5.25 140 6.38 142 -0.2 100 -0.2 0 0 996.6 NA 0.0000 9999 1020 0 0 0
2019/03/03 05:41:00 BASE 5.47 141 6.38 142 -0.2 100 -0.2 0 0 996.6 NA 0.0000 9999 890 0 0 0
2019/03/03 05:42:00 BASE 5.54 139 6.38 142 -0.2 100 -0.2 0 0 996.6 NA 0.0000 9999 890 0 0 0
2019/03/03 05:43:00 BASE 4.92 137 6.38 142 -0.2 100 -0.2 0 0 996.6 NA 0.0000 9999 890 0 0 0
2019/03/03 05:44:00 BASE 4.45 136 6.28 141 -0.2 100 -0.2 0 0 996.6 NA 0.0000 9999 980 0 0 0
2019/03/03 05:45:00 BASE 5.25 134 7.41 129 -0.2 100 -0.2 0 0 996.6 NA 0.0000 9999 980 0 0 0
2019/03/03 05:46:00 BASE 6.10 134 7.41 129 -0.2 100 -0.2 0 0 996.6 NA 0.0000 9999 850 0 0 0
2019/03/03 05:47:00 BASE 5.98 126 7.41 129 -0.2 100 -0.2 0 0 996.6 NA 0.0000 9999 850 0 0 0
2019/03/03 05:48:00 BASE 5.93 116 7.41 129 -0.2 100 -0.2 0 0 996.5 NA 0.0000 9999 950 0 0 0
2019/03/03 05:49:00 BASE 6.03 115 7.41 129 -0.2 100 -0.2 0 0 996.5 NA 0.0000 9999 980 0 0 0
2019/03/03 05:50:00 BASE 6.16 122 7.41 129 -0.2 100 -0.2 0 0 996.5 NA 0.0000 9999 980 0 0 0
2019/03/03 05:51:00 BASE 5.95 126 7.41 129 -0.2 100 -0.2 0 0 996.5 NA 0.0000 9999 980 0 0 0
2019/03/03 05:52:00 BASE 6.13 125 7.61 128 -0.2 100 -0.2 0 0 996.5 NA 0.0000 9999 920 0 0 0
2019/03/03 05:53:00 BASE 6.82 123 7.61 128 -0.2 100 -0.2 0 0 996.4 NA 0.0000 9999 920 0 0 0
2019/03/03 05:54:00 BASE 6.24 122 7.61 128 -0.2 100 -0.2 0 0 996.4 NA 0.0000 9999 850 0 0 0
2019/03/03 05:55:00 BASE 5.17 129 7.61 128 -0.2 100 -0.2 0 0 996.4 NA 0.0000 9999 920 0 0 0
2019/03/03 05:56:00 BASE 4.78 133 7.61 128 -0.2 100 -0.2 0 0 996.4 NA 0.0000 9999 920 0 0 0
2019/03/03 05:57:00 BASE 4.97 138 7.61 128 -0.2 100 -0.2 0 0 996.4 NA 0.0000 9999 950 0 0 0
2019/03/03 05:58:00 BASE 5.54 150 7.92 157 -0.2 100 -0.2 0 0 996.4 NA 0.0000 9999 820 0 0 0
2019/03/03 05:59:00 BASE 5.01 153 7.92 157 -0.2 100 -0.2 0 0 996.4 NA 0.0000 9999 790 0 0 0
2019/03/03 06:00:01 BASE 4.53 140 7.92 157 -0.2 100 -0.2 0 0 996.4 NA 0.0000 9999 820 0 0 0
2019/03/03 06:01:00 BASE 4.97 132 7.92 157 -0.2 100 -0.2 0 0 996.4 NA 0.0000 9999 890 0 0 0
2019/03/03 06:02:00 BASE 5.05 129 7.92 157 -0.2 100 -0.2 0 0 996.4 NA 0.0000 9999 920 0 0 0
2019/03/03 06:03:00 BASE 4.94 129 7.92 157 -0.2 100 -0.2 0 0 996.4 NA 0.0000 9999 920 0 0 0
2019/03/03 06:04:00 BASE 4.83 136 7.92 157 -0.2 100 -0.2 0 0 996.4 NA 0.0000 9999 890 0 0 0
2019/03/03 06:05:00 BASE 4.55 136 7.92 157 -0.2 100 -0.2 0 0 996.4 NA 0.0000 9999 890 0 0 0
2019/03/03 06:06:00 BASE 4.29 134 7.92 157 -0.2 100 -0.2 0 0 996.4 NA 0.0000 9999 920 0 0 0
2019/03/03 06:07:00 BASE 4.15 137 7.92 157 -0.2 100 -0.2 0 0 996.4 NA 0.0000 9999 920 0 0 0
2019/03/03 06:08:00 BASE 3.98 129 6.17 118 -0.2 100 -0.2 0 0 996.4 NA 0.0000 9999 890 0 0 0
2019/03/03 06:09:00 BASE 3.50 117 6.17 118 -0.2 100 -0.2 0 0 996.4 NA 0.0000 9999 890 0 0 0
2019/03/03 06:10:00 BASE 3.29 119 6.17 118 -0.2 100 -0.2 0 0 996.5 NA 0.0000 9999 890 0 0 0
2019/03/03 06:11:00 BASE 3.39 127 6.17 118 -0.2 100 -0.2 0 0 996.5 NA 0.0000 9999 890 0 0 0
2019/03/03 06:12:00 BASE 2.68 131 5.40 136 -0.2 100 -0.2 0 0 996.5 NA 0.0000 9999 920 0 0 0
2019/03/03 06:13:00 BASE 2.44 124 5.40 136 -0.2 100 -0.2 0 0 996.5 NA 0.0000 9999 850 0 0 0
2019/03/03 06:14:00 BASE 2.16 111 4.78 133 -0.2 100 -0.2 0 0 996.6 NA 0.0000 9999 820 0 0 0
2019/03/03 06:15:00 BASE 1.59 111 4.78 133 -0.2 100 -0.2 0 0 996.5 NA 0.0000 9999 920 0 0 0
2019/03/03 06:16:00 BASE 1.88 118 4.58 134 -0.2 100 -0.2 0 0 996.5 NA 0.0000 9999 920 0 0 0
2019/03/03 06:17:00 BASE 2.76 114 4.58 134 -0.2 100 -0.2 0 0 996.5 NA 0.0000 9999 890 0 0 0
2019/03/03 06:18:00 BASE 3.79 124 6.48 150 -0.1 100 -0.1 0 0 996.5 NA 0.0000 9999 890 0 0 0
2019/03/03 06:19:00 BASE 4.79 143 6.58 152 -0.1 100 -0.1 0 0 996.5 NA 0.0000 9999 920 0 0 0
2019/03/03 06:20:00 BASE 5.24 146 6.58 152 -0.1 100 -0.1 0 0 996.5 NA 0.0000 9999 890 0 0 0
2019/03/03 06:21:00 BASE 3.99 152 6.58 152 -0.1 100 -0.1 0 0 996.5 NA 0.0000 9999 750 0 0 0
2019/03/03 06:22:00 BASE 1.87 167 6.58 152 -0.1 100 -0.1 0 0 996.5 NA 0.0000 9999 820 0 0 0
2019/03/03 06:23:00 BASE 0.51 170 6.58 152 -0.2 100 -0.2 0 0 996.5 NA 0.0000 9999 890 0 0 0
2019/03/03 06:24:00 BASE 0.23 152 6.58 152 -0.2 100 -0.2 0 0 996.5 NA 0.0000 9999 850 0 0 0
2019/03/03 06:25:00 BASE 0.73 135 6.58 152 -0.2 100 -0.2 0 0 996.5 NA 0.0000 9999 890 0 0 0
2019/03/03 06:26:00 BASE 1.28 127 6.58 152 -0.2 100 -0.2 0 0 996.5 NA 0.0000 9999 890 0 0 0
2019/03/03 06:27:00 BASE 1.78 121 6.58 152 -0.1 100 -0.1 0 0 996.5 NA 0.0000 9999 890 0 0 0
2019/03/03 06:28:00 BASE 2.17 108 6.58 152 -0.1 100 -0.1 0 0 996.5 NA 0.0000 9999 920 0 0 0
2019/03/03 06:29:00 BASE 2.32 93 5.81 145 -0.1 100 -0.1 0 0 996.5 NA 0.0000 9999 920 0 0 0
2019/03/03 06:30:00 BASE 2.39 91 3.70 147 -0.1 100 -0.1 0 0 996.5 NA 0.0000 9999 890 0 0 0
2019/03/03 06:31:00 BASE 2.05 101 2.88 91 -0.2 100 -0.2 0 0 996.5 NA 0.0000 9999 850 0 0 0
2019/03/03 06:32:00 BASE 0.95 122 2.88 91 -0.2 100 -0.2 0 0 996.4 NA 0.0000 9999 890 0 0 0
2019/03/03 06:33:00 BASE 0.05 111 2.88 91 -0.2 100 -0.2 0 0 996.4 NA 0.0000 9999 920 0 0 0
2019/03/03 06:34:00 BASE 0.00 96 2.88 91 -0.2 100 -0.2 0 0 996.4 NA 0.0000 9999 920 0 0 0
2019/03/03 06:35:00 BASE 0.09 107 2.88 91 -0.2 100 -0.2 0 0 996.4 NA 0.0000 9999 920 0 0 0
2019/03/03 06:36:00 BASE 0.09 115 2.88 91 -0.2 100 -0.2 0 0 996.4 NA 0.0000 9999 920 0 0 0
2019/03/03 06:37:00 BASE 0.00 112 2.88 91 -0.2 100 -0.2 0 0 996.3 NA 0.0000 9999 950 0 0 0
2019/03/03 06:38:00 BASE 0.05 108 2.88 91 -0.2 100 -0.2 0 0 996.3 NA 0.0000 9999 920 0 0 0
2019/03/03 06:39:00 BASE 0.43 102 2.78 98 -0.2 100 -0.2 0 0 996.3 NA 0.0000 9999 920 0 0 0
2019/03/03 06:40:00 BASE 0.38 92 2.26 125 -0.2 100 -0.2 0 0 996.3 NA 0.0000 9999 890 0 0 0
2019/03/03 06:41:00 BASE 0.00 84 1.29 97 -0.2 100 -0.2 0 0 996.3 NA 0.0000 9999 850 0 0 0
2019/03/03 06:42:00 BASE 0.00 83 1.29 97 -0.2 100 -0.2 0 0 996.3 NA 0.0000 9999 850 0 0 0
2019/03/03 06:43:00 BASE 0.00 91 1.29 97 -0.2 100 -0.2 0 0 996.3 NA 0.0000 9999 920 0 0 0
2019/03/03 06:44:00 BASE 0.00 101 1.29 97 -0.2 100 -0.2 0 0 996.2 NA 0.0000 9999 920 0 0 0
2019/03/03 06:45:00 BASE 0.00 119 1.29 97 -0.2 100 -0.2 0 0 996.1 NA 0.0000 9999 850 0 0 0
2019/03/03 06:46:00 BASE 0.00 126 1.29 97 -0.2 100 -0.2 0 0 996.1 NA 0.0000 9999 850 0 0 0
2019/03/03 06:47:00 BASE 0.00 122 1.29 97 -0.2 100 -0.2 0 0 996.1 NA 0.0000 9999 850 0 0 0
2019/03/03 06:48:00 BASE 0.00 116 1.29 97 -0.2 100 -0.2 0 0 996.1 NA 0.0000 9999 850 0 0 0
2019/03/03 06:49:00 BASE 0.00 111 M M -0.2 100 -0.2 0 0 996.1 NA 0.0000 9999 850 0 0 0
2019/03/03 06:50:00 BASE 0.09 110 1.18 104 -0.2 100 -0.2 0 0 996.1 NA 0.0000 9999 950 0 0 0
2019/03/03 06:51:00 BASE 0.37 102 1.18 86 -0.2 100 -0.2 0 0 996.1 NA 0.0000 9999 920 0 0 0
2019/03/03 06:52:00 BASE 0.56 91 1.29 85 -0.2 100 -0.2 0 0 996.0 NA 0.0000 9999 920 0 0 0
2019/03/03 06:53:00 BASE 0.64 91 1.80 83 -0.2 100 -0.2 0 0 996.0 NA 0.0000 9999 920 0 0 0
2019/03/03 06:54:00 BASE 0.72 119 1.80 83 -0.2 100 -0.2 0 0 996.0 NA 0.0000 9999 890 0 0 0
2019/03/03 06:55:00 BASE 1.44 133 2.78 117 -0.1 100 -0.1 0 0 996.0 NA 0.0000 9999 890 0 0 0
2019/03/03 06:56:00 BASE 2.45 122 3.19 117 -0.1 100 -0.1 0 0 996.0 NA 0.0000 9999 850 0 0 0
2019/03/03 06:57:00 BASE 2.98 117 3.40 116 -0.1 100 -0.1 0 0 996.0 NA 0.0000 9999 890 0 0 0
2019/03/03 06:58:00 BASE 3.12 111 3.40 116 -0.2 100 -0.2 0 0 996.0 NA 0.0000 9999 890 0 0 0
2019/03/03 06:59:00 BASE 2.86 103 3.40 116 -0.2 100 -0.2 0 0 996.0 NA 0.0000 9999 920 0 0 0
2019/03/03 07:00:00 BASE 2.65 99 3.40 116 -0.2 100 -0.2 0 0 996.0 NA 0.0000 9999 850 0 0 0
2019/03/03 07:01:00 BASE 2.50 100 3.40 116 -0.2 100 -0.2 0 0 996.0 NA 0.0000 9999 890 0 0 0
2019/03/03 07:02:00 BASE 2.39 102 3.40 116 -0.2 100 -0.2 0 0 996.0 NA 0.0000 9999 920 0 0 0
2019/03/03 07:03:00 BASE 2.41 101 3.40 116 -0.2 100 -0.2 0 0 996.0 NA 0.0000 9999 920 0 0 0
2019/03/03 07:04:00 BASE 2.41 96 3.40 116 -0.2 100 -0.2 0 0 996.0 NA 0.0000 9999 920 0 0 0
2019/03/03 07:05:00 BASE 2.34 90 3.40 116 -0.2 100 -0.2 0 0 996.0 NA 0.0000 9999 950 0 0 0
2019/03/03 07:06:00 BASE 2.21 88 3.40 116 -0.2 100 -0.2 0 0 995.9 NA 0.0000 9999 920 0 0 0
2019/03/03 07:07:00 BASE 2.45 93 3.24 103 -0.2 100 -0.2 0 0 995.9 NA 0.0000 9999 920 0 0 0
2019/03/03 07:08:00 BASE 2.93 99 3.55 95 -0.2 100 -0.2 0 0 995.9 NA 0.0000 9999 920 0 0 0
2019/03/03 07:09:00 BASE 3.20 110 3.91 129 -0.2 100 -0.2 0 0 995.9 NA 0.0000 9999 890 0 0 0
2019/03/03 07:10:00 BASE 3.50 122 4.06 123 -0.2 100 -0.2 0 0 995.9 NA 0.0000 9999 850 0 0 0
2019/03/03 07:11:00 BASE 3.44 122 4.06 123 -0.2 100 -0.2 0 0 995.9 NA 0.0000 9999 850 0 0 0
2019/03/03 07:12:00 BASE 2.91 122 4.06 123 -0.2 100 -0.2 0 0 995.9 NA 0.0000 9999 850 0 0 0
2019/03/03 07:13:00 BASE 3.13 124 4.06 123 -0.3 100 -0.3 0 0 995.9 NA 0.0000 9999 850 0 0 0
2019/03/03 07:14:00 BASE 3.36 123 4.06 123 -0.3 100 -0.3 0 0 995.9 NA 0.0000 9999 820 0 0 0
2019/03/03 07:15:00 BASE 3.14 122 4.06 123 -0.3 100 -0.3 0 0 995.9 NA 0.0000 9999 790 0 0 0
2019/03/03 07:16:00 BASE 3.12 117 4.06 123 -0.3 100 -0.3 0 0 995.9 NA 0.0000 9999 790 0 0 0
2019/03/03 07:17:00 BASE 3.09 111 4.06 123 -0.3 100 -0.3 0 0 995.9 NA 0.0000 9999 820 0 0 0
2019/03/03 07:18:00 BASE 3.17 108 4.06 123 -0.3 100 -0.3 0 0 995.9 NA 0.0000 9999 790 0 0 0
2019/03/03 07:19:00 BASE 3.31 109 4.06 123 -0.3 100 -0.3 0 0 995.9 NA 0.0000 9999 790 0 0 0
2019/03/03 07:20:00 BASE 3.41 114 3.91 124 -0.3 100 -0.3 0 0 995.9 NA 0.0000 9999 820 0 0 0
2019/03/03 07:21:00 BASE 3.26 115 3.91 124 -0.3 100 -0.3 0 0 995.9 NA 0.0000 9999 820 0 0 0
2019/03/03 07:22:00 BASE 3.20 119 4.06 132 -0.3 100 -0.3 0 0 995.9 NA 0.0000 9999 820 0 0 0
2019/03/03 07:23:00 BASE 3.64 128 4.37 138 -0.3 100 -0.3 0 0 995.9 NA 0.0000 9999 820 0 0 0
2019/03/03 07:24:00 BASE 3.33 130 4.37 138 -0.3 100 -0.3 0 0 995.9 NA 0.0000 9999 820 0 0 0
2019/03/03 07:25:00 BASE 2.36 127 4.37 138 -0.3 100 -0.3 0 0 996.0 NA 0.0000 9999 890 0 0 0
2019/03/03 07:26:00 BASE 2.35 124 4.37 138 -0.4 100 -0.4 0 0 996.0 NA 0.0000 9999 850 0 0 0
2019/03/03 07:27:00 BASE 2.96 125 4.37 138 -0.4 100 -0.4 0 0 996.0 NA 0.0000 9999 850 0 0 0
2019/03/03 07:28:00 BASE 2.45 120 4.37 138 -0.4 100 -0.4 0 0 996.0 NA 0.0000 9999 820 0 0 0
2019/03/03 07:29:00 BASE 1.03 92 4.37 138 -0.4 100 -0.4 0 0 995.9 NA 0.0000 9999 790 0 0 0
2019/03/03 07:30:00 BASE 0.21 78 4.37 138 -0.4 100 -0.4 0 0 995.9 NA 0.0000 9999 820 0 0 0
2019/03/03 07:31:00 BASE 0.77 119 4.37 138 -0.4 100 -0.4 0 0 995.9 NA 0.0000 9999 820 0 0 0
2019/03/03 07:32:00 BASE 1.96 140 4.37 138 -0.4 100 -0.4 0 0 995.9 NA 0.0000 9999 820 0 0 0
2019/03/03 07:33:00 BASE 2.56 132 4.01 125 -0.4 100 -0.4 0 0 995.9 NA 0.0000 9999 820 0 0 0
2019/03/03 07:34:00 BASE 2.27 126 4.01 125 -0.4 100 -0.4 0 0 995.9 NA 0.0000 9999 820 0 0 0
2019/03/03 07:35:00 BASE 1.84 127 4.01 125 -0.3 100 -0.3 0 0 995.9 NA 0.0000 9999 850 0 0 0
2019/03/03 07:36:00 BASE 2.06 132 4.01 125 -0.4 100 -0.4 0 0 995.9 NA 0.0000 9999 850 0 0 0
2019/03/03 07:37:00 BASE 2.38 135 3.19 118 -0.4 100 -0.4 0 0 995.9 NA 0.0000 9999 820 0 0 0
2019/03/03 07:38:00 BASE 2.59 133 3.19 118 -0.4 100 -0.4 0 0 995.9 NA 0.0000 9999 820 0 0 0
2019/03/03 07:39:00 BASE 2.32 129 3.19 118 -0.4 100 -0.4 0 0 995.9 NA 0.0000 9999 850 0 0 0
2019/03/03 07:40:00 BASE 2.04 130 3.19 118 -0.4 100 -0.4 0 0 995.9 NA 0.0000 9999 850 0 0 0
2019/03/03 07:41:00 BASE 2.45 135 3.19 118 -0.4 100 -0.4 0 0 995.9 NA 0.0000 9999 850 0 0 0
2019/03/03 07:42:00 BASE 2.70 137 3.45 143 -0.5 100 -0.5 0 0 995.9 NA 0.0000 9999 850 0 0 0
2019/03/03 07:43:00 BASE 2.72 144 3.45 153 -0.5 100 -0.5 0 0 995.9 NA 0.0000 9999 850 0 0 0
2019/03/03 07:44:00 BASE 2.27 155 3.45 153 -0.5 100 -0.5 0 0 996.0 NA 0.0000 9999 890 0 0 0
2019/03/03 07:45:00 BASE 1.78 158 3.45 153 -0.4 100 -0.4 0 0 996.0 NA 0.0000 9999 890 0 0 0
2019/03/03 07:46:00 BASE 1.62 158 3.45 153 -0.4 100 -0.4 0 0 996.0 NA 0.0000 9999 890 0 0 0
2019/03/03 07:47:00 BASE 1.09 165 3.45 153 -0.4 100 -0.4 0 0 996.0 NA 0.0000 9999 890 0 0 0
2019/03/03 07:48:00 BASE 0.91 173 3.45 153 -0.4 100 -0.4 0 0 995.9 NA 0.0000 9999 850 0 0 0
2019/03/03 07:49:00 BASE 0.91 169 3.45 153 -0.4 100 -0.4 0 0 995.9 NA 0.0000 9999 890 0 0 0
2019/03/03 07:50:00 BASE 1.20 160 3.45 153 -0.4 100 -0.4 0 0 995.9 NA 0.0000 9999 890 0 0 0
2019/03/03 07:51:00 BASE 2.16 153 3.45 153 -0.4 100 -0.4 0 0 995.9 NA 0.0000 9999 890 0 0 0
2019/03/03 07:52:00 BASE 2.78 150 3.50 150 -0.4 100 -0.4 0 0 995.9 NA 0.0000 9999 890 0 0 0
2019/03/03 07:53:00 BASE 2.60 151 3.50 150 -0.4 100 -0.4 0 0 995.8 NA 0.0000 9999 890 0 0 0
2019/03/03 07:54:00 BASE 1.94 154 3.50 150 -0.4 100 -0.4 0 0 995.8 NA 0.0000 9999 920 0 0 0
2019/03/03 07:55:00 BASE 1.73 165 3.50 150 -0.4 100 -0.4 0 0 995.8 NA 0.0000 9999 890 0 0 0
2019/03/03 07:56:00 BASE 2.29 186 3.50 150 -0.4 100 -0.4 0 0 995.8 NA 0.0000 9999 890 0 0 0
2019/03/03 07:57:00 BASE 2.83 194 3.55 193 -0.4 100 -0.4 0 0 995.8 NA 0.0000 9999 890 0 0 0
2019/03/03 07:58:00 BASE 2.39 176 3.55 193 -0.4 100 -0.4 0 0 995.8 NA 0.0000 9999 920 0 0 0
2019/03/03 07:59:00 BASE 1.19 191 3.55 193 -0.4 100 -0.4 0 0 995.8 NA 0.0000 9999 920 0 0 0
2019/03/03 08:00:00 BASE 0.49 233 3.55 193 -0.4 100 -0.4 0 0 995.8 NA 0.0000 9999 920 0 0 0
2019/03/03 08:01:00 BASE 1.30 255 3.55 193 -0.5 100 -0.5 0 0 995.8 NA 0.0000 9999 920 0 0 0
2019/03/03 08:02:00 BASE 2.63 270 3.55 193 -0.6 100 -0.6 0 0 995.8 NA 0.0000 9999 950 0 0 0
2019/03/03 08:03:00 BASE 3.26 284 4.22 294 -0.6 100 -0.6 0 0 995.8 NA 0.0000 9999 950 0 0 0
2019/03/03 08:04:00 BASE 3.71 293 4.32 296 -0.7 100 -0.7 0 0 995.8 NA 0.0000 9999 950 0 0 0
2019/03/03 08:05:00 BASE 4.20 299 4.68 309 -0.7 100 -0.7 0 0 995.8 NA 0.0000 9999 920 0 0 0
2019/03/03 08:06:00 BASE 4.54 307 5.35 307 -0.7 100 -0.7 0 0 995.8 NA 0.0000 9999 920 0 0 0
2019/03/03 08:07:00 BASE 4.83 313 5.35 307 -0.7 100 -0.7 0 0 995.8 NA 0.0000 9999 920 0 0 0
2019/03/03 08:08:00 BASE 4.74 319 5.35 307 -0.7 100 -0.7 0 0 995.8 NA 0.0000 9999 920 0 0 0
2019/03/03 08:09:00 BASE 4.00 327 5.35 307 -0.7 100 -0.7 0 0 995.9 NA 0.0000 9999 890 0 0 0
2019/03/03 08:10:00 BASE 3.12 333 5.35 307 -0.7 100 -0.7 0 0 995.8 NA 0.0000 9999 890 0 0 0
2019/03/03 08:11:00 BASE 2.99 338 5.35 307 -0.6 100 -0.6 0 0 995.8 NA 0.0000 9999 890 0 0 0
2019/03/03 08:12:00 BASE 3.67 345 5.35 307 -0.6 100 -0.6 0 0 995.8 NA 0.0000 9999 890 0 0 0
2019/03/03 08:13:00 BASE 4.07 346 5.35 307 -0.6 100 -0.6 0 0 995.8 NA 0.0000 9999 890 0 0 0
2019/03/03 08:14:00 BASE 4.04 340 5.35 307 -0.7 100 -0.7 0 0 995.8 NA 0.0000 9999 890 0 0 0
2019/03/03 08:15:00 BASE 4.23 338 5.35 307 -0.7 100 -0.7 0 0 995.8 NA 0.0000 9999 890 0 0 0
2019/03/03 08:16:00 BASE 4.15 339 5.25 315 -0.8 100 -0.8 0 0 995.7 NA 0.0000 9999 890 0 0 0
2019/03/03 08:17:00 BASE 3.67 337 4.99 340 -0.8 100 -0.8 0 0 995.7 NA 0.0000 9999 890 0 0 0
2019/03/03 08:18:00 BASE 3.57 338 4.99 340 -0.8 100 -0.8 0 0 995.7 NA 0.0000 9999 890 0 0 0
2019/03/03 08:19:00 BASE 3.58 337 4.99 340 -0.8 100 -0.8 0 0 995.7 NA 0.0000 9999 890 0 0 0
2019/03/03 08:20:00 BASE 3.31 335 4.99 340 -0.8 100 -0.8 0 0 995.6 NA 0.0000 9999 890 0 0 0
2019/03/03 08:21:00 BASE 3.06 333 4.99 340 -0.8 100 -0.8 0 0 995.5 NA 0.0000 9999 890 0 0 0
2019/03/03 08:22:00 BASE 2.68 334 4.99 340 -0.8 100 -0.8 0 0 995.5 NA 0.0000 9999 890 0 0 0
2019/03/03 08:23:00 BASE 2.18 336 4.99 340 -0.8 100 -0.8 0 0 995.5 NA 0.0000 9999 890 0 0 0
2019/03/03 08:24:00 BASE 2.13 334 4.99 340 -0.8 100 -0.8 0 0 995.5 NA 0.0000 9999 890 0 0 0
2019/03/03 08:25:00 BASE 2.30 333 4.37 338 -0.8 100 -0.8 0 0 995.5 NA 0.0000 9999 890 0 0 0
2019/03/03 08:26:00 BASE 2.68 333 3.91 338 -0.8 100 -0.8 0 0 995.5 NA 0.0000 9999 890 0 0 0
2019/03/03 08:27:00 BASE 3.09 333 3.91 338 -0.8 100 -0.8 0 0 995.5 NA 0.0000 9999 920 0 0 0
2019/03/03 08:28:00 BASE 2.96 333 3.65 336 -0.8 100 -0.8 0 0 995.5 NA 0.0000 9999 920 0 0 0
2019/03/03 08:29:00 BASE 2.56 331 3.34 332 -0.8 100 -0.8 0 0 995.5 NA 0.0000 9999 920 0 0 0
2019/03/03 08:30:00 BASE 2.09 327 3.29 332 -0.8 100 -0.8 0 0 995.5 NA 0.0000 9999 920 0 0 0
2019/03/03 08:31:00 BASE 2.36 322 3.34 312 -0.8 100 -0.8 0 0 995.5 NA 0.0000 9999 920 0 0 0
2019/03/03 08:32:00 BASE 3.09 317 3.45 316 -0.8 100 -0.8 0 0 995.5 NA 0.0000 9999 920 0 0 0
2019/03/03 08:33:00 BASE 3.16 316 3.45 316 -0.8 100 -0.8 0 0 995.5 NA 0.0000 9999 920 0 0 0
2019/03/03 08:34:00 BASE 2.94 317 3.45 316 -0.8 100 -0.8 0 0 995.5 NA 0.0000 9999 920 0 0 0
2019/03/03 08:35:00 BASE 2.65 313 3.45 316 -0.9 100 -0.9 0 0 995.5 NA 0.0000 9999 920 0 0 0
2019/03/03 08:36:00 BASE 2.07 305 3.45 316 -0.9 100 -0.9 0 0 995.5 NA 0.0000 9999 920 0 0 0
2019/03/03 08:37:00 BASE 1.71 302 3.45 316 -0.8 100 -0.8 0 0 995.6 NA 0.0000 9999 890 0 0 0
2019/03/03 08:38:00 BASE 1.24 281 3.45 316 -0.8 100 -0.8 0 0 995.6 NA 0.0000 9999 890 0 0 0
2019/03/03 08:39:00 BASE 0.38 231 3.45 316 -0.8 100 -0.8 0 0 995.7 NA 0.0000 9999 850 0 0 0
2019/03/03 08:40:00 BASE 0.00 227 3.45 316 -0.8 100 -0.8 0 0 995.7 NA 0.0000 9999 820 0 0 0
2019/03/03 08:41:00 BASE 0.00 317 3.45 316 -0.8 100 -0.8 0 0 995.7 NA 0.0000 9999 850 0 0 0
2019/03/03 08:42:00 BASE 0.00 16 3.19 318 -0.7 100 -0.7 0 0 995.7 NA 0.0000 9999 850 0 0 0
2019/03/03 08:43:00 BASE 0.00 65 2.98 319 -0.7 100 -0.7 0 0 995.6 NA 0.0000 9999 890 0 0 0
2019/03/03 08:44:00 BASE 0.00 97 2.93 313 -0.7 100 -0.7 0 0 995.5 NA 0.0000 9999 890 0 0 0
2019/03/03 08:45:00 BASE 0.00 94 2.16 300 -0.7 100 -0.7 0 0 995.5 NA 0.0000 9999 890 0 0 0
2019/03/03 08:46:00 BASE 0.00 73 2.06 301 -0.7 100 -0.7 0 0 995.5 NA 0.0000 9999 920 0 0 0
2019/03/03 08:47:00 BASE 0.00 47 1.54 291 -0.7 100 -0.7 0 0 995.5 NA 0.0000 9999 920 0 0 0
2019/03/03 08:48:00 BASE 0.00 32 M M -0.7 100 -0.7 0 0 995.5 NA 0.0000 9999 920 0 0 0
2019/03/03 08:49:00 BASE 0.00 40 M M -0.6 100 -0.6 0 0 995.5 NA 0.0000 9999 920 0 0 0
2019/03/03 08:50:00 BASE 0.00 89 M M -0.6 100 -0.6 0 0 995.5 NA 0.0000 9999 920 0 0 0
2019/03/03 08:51:00 BASE 0.00 182 M M -0.6 100 -0.6 0 0 995.5 NA 0.0000 9999 950 0 0 0
2019/03/03 08:52:00 BASE 0.10 235 1.34 253 -0.6 100 -0.6 0 0 995.5 NA 0.0000 9999 950 0 0 0
2019/03/03 08:53:00 BASE 0.62 250 1.39 253 -0.6 100 -0.6 0 0 995.5 NA 0.0000 9999 950 0 0 0
2019/03/03 08:54:00 BASE 0.51 264 1.39 253 -0.6 100 -0.6 0 0 995.5 NA 0.0000 9999 920 0 0 0
2019/03/03 08:55:00 BASE 0.00 276 1.39 253 -0.6 100 -0.6 0 0 995.5 NA 0.0000 9999 920 0 0 0
2019/03/03 08:56:00 BASE 0.00 279 1.39 253 -0.6 100 -0.6 0 0 995.5 NA 0.0000 9999 920 0 0 0
2019/03/03 08:57:00 BASE 0.00 284 1.39 253 -0.6 100 -0.6 0 0 995.5 NA 0.0000 9999 950 0 0 0
2019/03/03 08:58:00 BASE 0.20 296 1.39 253 -0.6 100 -0.6 0 0 995.5 NA 0.0000 9999 920 0 0 0
2019/03/03 08:59:00 BASE 0.74 307 1.49 310 -0.6 100 -0.6 0 0 995.5 NA 0.0000 9999 950 0 0 0
2019/03/03 09:00:00 BASE 0.87 305 1.49 310 -0.7 100 -0.7 0 0 995.5 NA 0.0000 9999 920 0 0 0
2019/03/03 09:01:00 BASE 0.62 300 1.85 279 -0.7 100 -0.7 0 0 995.5 NA 0.0000 9999 950 0 0 0
2019/03/03 09:02:00 BASE 1.01 276 1.85 279 -0.7 100 -0.7 0 0 995.5 NA 0.0000 9999 920 0 0 0
2019/03/03 09:03:00 BASE 1.15 255 2.01 267 -0.7 100 -0.7 1 0 995.5 NA 0.0000 9999 920 0 0 0
2019/03/03 09:04:00 BASE 1.11 258 2.01 267 -0.7 100 -0.7 1 0 995.5 NA 0.0000 9999 920 0 0 0
2019/03/03 09:05:00 BASE 0.96 259 2.01 267 -0.7 100 -0.7 1 0 995.5 NA 0.0000 9999 850 0 0 0
2019/03/03 09:06:00 BASE 0.38 251 2.01 267 -0.7 100 -0.7 1 0 995.5 NA 0.0000 9999 890 0 0 0
2019/03/03 09:07:00 BASE 0.19 242 2.01 267 -0.7 100 -0.7 1 0 995.5 NA 0.0000 9999 850 0 0 0
2019/03/03 09:08:00 BASE 0.13 234 2.01 267 -0.7 100 -0.7 1 0 995.5 NA 0.0000 9999 850 0 0 0
2019/03/03 09:09:00 BASE 0.04 212 2.01 267 -0.7 100 -0.7 1 0 995.4 NA 0.0000 9999 890 0 0 0
2019/03/03 09:10:00 BASE 0.00 144 2.01 267 -0.7 100 -0.7 1 0 995.4 NA 0.0000 9999 850 0 0 0
2019/03/03 09:11:00 BASE 0.00 109 2.01 267 -0.7 100 -0.7 1 0 995.4 NA 0.0000 9999 950 0 0 0
2019/03/03 09:12:00 BASE 0.00 124 2.01 267 -0.7 100 -0.7 2 0 995.4 NA 0.0000 9999 950 0 0 0
2019/03/03 09:13:00 BASE 0.09 143 1.70 269 -0.7 100 -0.7 2 0 995.4 NA 0.0000 9999 950 0 0 0
2019/03/03 09:14:00 BASE 0.58 161 1.54 267 -0.7 100 -0.7 2 0 995.4 NA 0.0000 9999 950 0 0 0
2019/03/03 09:15:00 BASE 0.74 158 1.29 144 -0.6 100 -0.6 2 0 995.4 NA 0.0000 9999 950 0 0 0
2019/03/03 09:16:00 BASE 0.25 149 1.29 144 -0.6 100 -0.6 3 0 995.4 NA 0.0000 9999 890 0 0 0
2019/03/03 09:17:00 BASE 0.14 145 1.29 144 -0.6 100 -0.6 3 0 995.4 NA 0.0000 9999 850 0 0 0
2019/03/03 09:18:00 BASE 0.78 148 1.65 158 -0.6 100 -0.6 3 0 995.4 NA 0.0000 9999 920 0 0 0
2019/03/03 09:19:00 BASE 0.91 147 1.90 164 -0.6 100 -0.6 3 0 995.4 NA 0.0000 9999 920 0 0 0
2019/03/03 09:20:00 BASE 0.27 143 1.90 164 -0.7 100 -0.7 4 0 995.4 NA 0.0000 9999 920 0 0 0
2019/03/03 09:21:00 BASE 0.00 141 1.90 164 -0.7 100 -0.7 4 0 995.4 NA 0.0000 9999 920 0 0 0
2019/03/03 09:22:00 BASE 0.00 135 1.90 164 -0.6 100 -0.6 4 0 995.4 NA 0.0000 9999 920 0 0 0
2019/03/03 09:23:00 BASE 0.00 126 1.90 164 -0.6 100 -0.6 4 0 995.4 NA 0.0000 9999 950 0 0 0
2019/03/03 09:24:00 BASE 0.00 139 1.90 164 -0.6 100 -0.6 5 0 995.4 NA 0.0000 9999 950 0 0 0
2019/03/03 09:25:00 BASE 0.00 162 1.90 164 -0.6 100 -0.6 5 0 995.4 NA 0.0000 9999 950 0 0 0
2019/03/03 09:26:00 BASE 0.00 177 1.90 164 -0.6 100 -0.6 5 0 995.4 NA 0.0000 9999 920 0 0 0
2019/03/03 09:27:00 BASE 0.00 169 1.90 164 -0.6 100 -0.6 6 0 995.4 NA 0.0000 9999 920 0 0 0
2019/03/03 09:28:00 BASE 0.41 145 1.90 164 -0.6 100 -0.6 7 0 995.4 NA 0.0000 9999 920 0 0 0
2019/03/03 09:29:00 BASE 0.61 132 1.85 136 -0.6 100 -0.6 8 0 995.4 NA 0.0000 9999 890 0 0 0
2019/03/03 09:30:00 BASE 0.92 120 2.26 106 -0.6 100 -0.6 9 0 995.4 NA 0.0000 9999 890 0 0 0
2019/03/03 09:31:00 BASE 1.90 120 2.78 122 -0.6 100 -0.6 10 0 995.4 NA 0.0000 9999 920 0 0 0
2019/03/03 09:32:00 BASE 2.49 120 2.78 122 -0.6 100 -0.6 11 0 995.4 NA 0.0000 9999 920 0 0 0
2019/03/03 09:33:00 BASE 2.74 123 3.40 124 -0.6 100 -0.6 12 0 995.3 NA 0.0000 9999 920 0 0 0
2019/03/03 09:34:00 BASE 2.94 135 3.70 151 -0.6 100 -0.6 13 0 995.3 NA 0.0000 9999 890 0 0 0
2019/03/03 09:35:00 BASE 3.53 142 4.84 134 -0.6 100 -0.6 15 0 995.3 NA 0.0000 9999 890 0 0 0
2019/03/03 09:36:00 BASE 3.91 134 4.84 134 -0.6 100 -0.6 17 0 995.3 NA 0.0000 9999 890 0 0 0
2019/03/03 09:37:00 BASE 3.44 123 4.84 134 -0.6 100 -0.6 19 0 995.3 NA 0.0000 9999 850 0 0 0
2019/03/03 09:38:00 BASE 3.00 119 4.84 134 -0.6 100 -0.6 20 0 995.3 NA 0.0000 9999 920 0 0 0
2019/03/03 09:39:00 BASE 3.15 119 4.84 134 -0.6 100 -0.6 21 0 995.3 NA 0.0000 9999 890 0 0 0
2019/03/03 09:40:00 BASE 3.49 122 4.84 134 -0.6 100 -0.6 22 0 995.3 NA 0.0000 9999 920 0 0 0
2019/03/03 09:41:00 BASE 4.05 122 5.61 121 -0.6 100 -0.6 24 0 995.3 NA 0.0000 9999 920 0 0 0
2019/03/03 09:42:00 BASE 4.49 117 5.61 121 -0.6 100 -0.6 25 0 995.3 NA 0.0000 9999 920 8830 0 0
2019/03/03 09:43:00 BASE 4.20 114 5.61 121 -0.6 100 -0.6 26 0 995.3 NA 0.0000 9999 920 0 0 0
2019/03/03 09:44:00 BASE 3.87 112 5.61 121 -0.6 100 -0.6 25 0 995.3 NA 0.0000 9999 890 0 0 0
2019/03/03 09:45:00 BASE 3.74 114 5.61 121 -0.6 100 -0.6 26 0 995.3 NA 0.0000 9999 950 8730 0 0
2019/03/03 09:46:00 BASE 3.95 122 5.61 121 -0.6 100 -0.6 27 0 995.3 NA 0.0000 9999 950 8690 0 0
2019/03/03 09:47:00 BASE 4.20 132 5.61 121 -0.6 100 -0.6 30 0 995.2 NA 0.0000 9999 920 0 0 0
2019/03/03 09:48:00 BASE 4.20 135 5.61 121 -0.6 100 -0.6 33 0 995.2 NA 0.0000 9999 920 0 0 0
2019/03/03 09:49:00 BASE 4.10 130 5.61 121 -0.6 100 -0.6 34 0 995.2 NA 0.0000 9999 920 0 0 0
2019/03/03 09:50:00 BASE 4.31 126 5.61 121 -0.6 100 -0.6 34 0 995.2 NA 0.0000 9999 850 0 0 0
2019/03/03 09:51:00 BASE 4.51 124 4.99 121 -0.6 100 -0.6 34 0 995.2 NA 0.0000 9999 850 0 0 0
2019/03/03 09:52:00 BASE 4.73 121 5.81 121 -0.6 100 -0.6 35 0 995.2 NA 0.0000 9999 890 0 0 0
2019/03/03 09:53:00 BASE 5.06 123 5.81 121 -0.6 100 -0.6 36 0 995.2 NA 0.0000 9999 890 0 0 0
2019/03/03 09:54:00 BASE 4.86 122 5.81 121 -0.6 100 -0.6 36 0 995.2 NA 0.0000 9999 890 0 0 0
2019/03/03 09:55:00 BASE 4.76 115 6.17 112 -0.6 100 -0.6 33 0 995.1 NA 0.0000 9999 890 0 0 0
2019/03/03 09:56:00 BASE 4.53 111 6.17 112 -0.6 100 -0.6 30 0 995.1 NA 0.0000 9999 850 0 0 0
2019/03/03 09:57:00 BASE 4.02 112 6.17 112 -0.6 100 -0.6 27 0 995.1 NA 0.0000 9999 890 0 0 0
2019/03/03 09:58:00 BASE 3.54 115 6.17 112 -0.6 100 -0.6 25 0 995.1 NA 0.0000 9999 890 0 0 0
2019/03/03 09:59:00 BASE 3.62 118 6.17 112 -0.6 100 -0.6 24 0 995.1 NA 0.0000 9999 890 0 0 0
2019/03/03 10:00:00 BASE 4.26 122 6.17 112 -0.6 100 -0.6 23 0 995.1 NA 0.0000 9999 890 0 0 0
2019/03/03 10:01:00 BASE 4.38 125 6.17 112 -0.6 100 -0.6 26 0 995.1 NA 0.0000 9999 850 0 0 0
2019/03/03 10:02:00 BASE 4.28 126 6.17 112 -0.6 100 -0.6 30 0 995.1 NA 0.0000 9999 890 0 0 0
2019/03/03 10:03:00 BASE 4.38 128 6.17 112 -0.7 100 -0.7 33 0 995.0 NA 0.0000 9999 850 0 0 0
2019/03/03 10:04:00 BASE 4.43 129 6.17 112 -0.7 100 -0.7 36 0 994.9 NA 0.0000 9999 850 0 0 0
2019/03/03 10:05:00 BASE 4.45 129 5.25 130 -0.7 100 -0.7 38 0 994.9 NA 0.0000 9999 850 8240 0 0
2019/03/03 10:06:00 BASE 4.70 127 5.25 124 -0.7 100 -0.7 38 0 994.8 NA 0.0000 9999 890 0 0 0
2019/03/03 10:07:00 BASE 5.03 122 5.56 114 -0.7 100 -0.7 34 0 994.8 NA 0.0000 9999 850 8240 0 0
2019/03/03 10:08:00 BASE 5.13 119 5.86 116 -0.6 100 -0.6 32 0 994.7 NA 0.0000 9999 890 8200 0 0
2019/03/03 10:09:00 BASE 5.33 117 6.17 113 -0.7 100 -0.7 30 0 994.7 NA 0.0000 9999 6630 8270 0 0
2019/03/03 10:10:00 BASE 5.67 116 6.17 118 -0.7 100 -0.7 29 0 994.7 NA 0.0000 9999 6690 8200 0 0
2019/03/03 10:11:00 BASE 5.69 119 6.17 118 -0.7 100 -0.7 29 0 994.7 NA 0.0000 9999 890 0 0 0
2019/03/03 10:12:00 BASE 5.28 118 6.17 118 -0.7 100 -0.7 30 0 994.7 NA 0.0000 9999 850 0 0 0
2019/03/03 10:13:00 BASE 5.03 121 6.17 118 -0.7 100 -0.7 30 0 994.7 NA 0.0000 9999 850 6820 0 0
2019/03/03 10:14:00 BASE 5.39 124 6.58 126 -0.7 100 -0.7 30 0 994.7 NA 0.0000 9999 850 0 0 0
2019/03/03 10:15:00 BASE 5.80 120 6.74 116 -0.7 100 -0.7 30 0 994.7 NA 0.0000 9999 850 0 0 0
2019/03/03 10:16:00 BASE 5.60 120 6.74 116 -0.7 100 -0.7 29 0 994.7 NA 0.0000 9999 6760 0 0 0
2019/03/03 10:17:00 BASE 5.32 120 6.74 116 -0.7 100 -0.7 29 0 994.7 NA 0.0000 9999 6660 0 0 0
2019/03/03 10:18:00 BASE 5.67 118 6.74 116 -0.7 100 -0.7 28 0 994.7 NA 0.0000 9999 6460 0 0 0
2019/03/03 10:19:00 BASE 5.76 118 6.74 116 -0.7 100 -0.7 27 0 994.7 NA 0.0000 9999 6860 0 0 0
2019/03/03 10:20:00 BASE 5.85 117 7.20 110 -0.7 100 -0.7 27 0 994.6 NA 0.0000 9999 6590 0 0 0
2019/03/03 10:21:00 BASE 6.39 114 7.41 110 -0.7 100 -0.7 27 0 994.6 NA 0.0000 9999 6370 0 0 0
2019/03/03 10:22:00 BASE 6.26 118 7.41 110 -0.7 100 -0.7 26 0 994.6 NA 0.0000 9999 6560 0 0 0
2019/03/03 10:23:00 BASE 6.43 122 7.51 127 -0.8 100 -0.8 26 0 994.5 NA 0.0000 9999 6400 0 0 0
2019/03/03 10:24:00 BASE 6.75 124 7.51 127 -0.8 100 -0.8 25 0 994.5 NA 0.0000 9999 6140 0 0 0
2019/03/03 10:25:00 BASE 6.73 127 7.56 125 -0.8 100 -0.8 24 0 994.5 NA 0.0000 9999 6070 0 0 0
2019/03/03 10:26:00 BASE 7.50 123 9.11 121 -0.8 100 -0.8 23 0 994.5 NA 0.0000 9999 6040 0 0 0
2019/03/03 10:27:00 BASE 8.27 119 9.31 122 -0.8 100 -0.8 21 0 994.5 NA 0.0000 9999 6300 0 0 0
2019/03/03 10:28:00 BASE 8.51 119 9.31 122 -0.9 100 -0.9 20 0 994.5 NA 0.0000 9999 6170 0 0 0
2019/03/03 10:29:00 BASE 8.85 121 10.08 125 -0.9 100 -0.9 18 0 994.4 NA 0.0000 9999 5810 0 0 0
2019/03/03 10:30:00 BASE 9.41 122 10.65 124 -0.9 100 -0.9 17 0 994.4 NA 0.0000 9999 5740 0 0 0
2019/03/03 10:31:00 BASE 9.85 123 11.11 128 -0.9 100 -0.9 17 0 994.4 NA 0.0000 9999 5540 0 0 0
2019/03/03 10:32:00 BASE 10.24 124 11.21 125 -0.9 100 -0.9 16 0 994.4 NA 0.0000 9999 5280 0 0 0
2019/03/03 10:33:00 BASE 10.70 123 11.21 120 -0.9 100 -0.9 16 0 994.3 NA 0.0000 9999 5810 0 0 0
2019/03/03 10:34:00 BASE 11.09 122 11.88 118 -0.9 100 -0.9 16 0 994.3 NA 0.0000 9999 5810 0 0 0
2019/03/03 10:35:00 BASE 11.36 122 11.88 118 -0.9 100 -0.9 16 0 994.2 NA 0.0000 9999 5640 0 0 0
2019/03/03 10:36:00 BASE 11.29 124 12.45 126 -0.9 100 -0.9 16 0 994.2 NA 0.0000 9999 5450 0 0 0
2019/03/03 10:37:00 BASE 11.64 124 13.02 125 -0.9 100 -0.9 16 0 994.2 NA 0.0000 9999 5410 0 0 0
2019/03/03 10:38:00 BASE 11.70 124 13.02 125 -0.9 100 -0.9 16 0 994.2 NA 0.0000 9999 5220 0 0 0
2019/03/03 10:39:00 BASE 11.72 124 13.38 125 -0.9 100 -0.9 16 0 994.2 NA 0.0000 9999 5810 0 0 0
2019/03/03 10:40:00 BASE 11.42 121 13.38 125 -0.9 100 -0.9 16 0 994.2 NA 0.0000 9999 5580 0 0 0
2019/03/03 10:41:00 BASE 11.24 121 13.38 125 -0.8 100 -0.8 16 0 994.2 NA 0.0000 9999 5350 0 0 0
2019/03/03 10:42:00 BASE 12.49 121 13.84 121 -0.8 100 -0.8 17 0 994.1 NA 0.0000 9999 3940 0 0 0
2019/03/03 10:43:00 BASE 12.45 119 13.84 121 -0.8 100 -0.8 17 0 994.2 NA 0.0000 9999 3940 0 0 0
2019/03/03 10:44:00 BASE 11.53 120 13.84 121 -0.8 100 -0.8 17 0 994.2 NA 0.0000 9999 5120 0 0 0
2019/03/03 10:45:00 BASE 11.79 119 13.84 121 -0.8 100 -0.8 17 0 994.1 NA 0.0000 9999 4890 0 0 0
2019/03/03 10:46:00 BASE 12.19 119 13.84 121 -0.8 100 -0.8 16 0 994.1 NA 0.0000 9999 4760 0 0 0
2019/03/03 10:47:00 BASE 12.54 120 13.84 121 -0.8 100 -0.8 16 0 994.1 NA 0.0000 9999 4720 0 0 0
2019/03/03 10:48:00 BASE 12.08 118 13.84 121 -0.8 100 -0.8 16 0 994.2 NA 0.0000 9999 4630 0 0 0
2019/03/03 10:49:00 BASE 11.13 118 13.84 121 -0.8 100 -0.8 16 0 994.2 NA 0.0000 9999 3900 0 0 0
2019/03/03 10:50:00 BASE 11.17 119 13.84 121 -0.8 100 -0.8 16 0 994.2 NA 0.0000 9999 3610 0 0 0
2019/03/03 10:51:00 BASE 10.63 118 13.84 121 -0.8 100 -0.8 16 0 994.2 NA 0.0000 9999 3280 0 0 0
2019/03/03 10:52:00 BASE 10.71 117 13.68 124 -0.8 100 -0.8 16 0 994.1 NA 0.0000 9999 4200 0 0 0
2019/03/03 10:53:00 BASE 11.43 117 13.68 124 -0.8 100 -0.8 17 0 994.2 NA 0.0000 9999 3180 0 0 0
2019/03/03 10:54:00 BASE 10.50 116 13.68 124 -0.8 100 -0.8 17 0 994.2 NA 0.0000 9999 3310 0 0 0
2019/03/03 10:55:00 BASE 9.66 112 13.68 124 -0.8 100 -0.8 17 0 994.2 NA 0.0000 9999 3050 0 0 0
2019/03/03 10:56:00 BASE 9.43 109 13.58 125 -0.8 100 -0.8 18 0 994.2 NA 0.0000 9999 0 0 0 3670
2019/03/03 10:57:00 BASE 9.72 109 12.76 116 -0.7 100 -0.7 19 0 994.2 NA 0.0000 9999 0 0 0 3450
2019/03/03 10:58:00 BASE 9.37 109 12.76 116 -0.7 100 -0.7 20 0 994.2 NA 0.0000 9999 0 0 0 3310
2019/03/03 10:59:00 BASE 9.73 117 12.35 117 -0.7 100 -0.7 20 0 994.1 NA 0.0000 UP 9999 0 0 0 3380
2019/03/03 11:00:00 BASE 9.86 125 12.24 119 -0.7 100 -0.7 21 0 994.1 NA 0.0000 UP 9999 0 0 0 4170
2019/03/03 11:01:00 BASE 6.39 128 12.24 119 -0.7 100 -0.7 22 0 994.1 NA 0.0000 UP 9999 4000 0 0 0
2019/03/03 11:02:00 BASE 4.33 129 12.09 125 -0.6 100 -0.6 23 0 994.1 NA 0.0000 UP 5000 3940 0 0 0
2019/03/03 11:03:00 BASE 7.38 125 12.09 125 -0.6 100 -0.6 25 0 994.1 NA 0.0000 -SN BR 3500 3900 0 0 0
2019/03/03 11:04:00 BASE 9.33 116 12.09 125 -0.5 100 -0.5 26 0 994.1 NA 0.0000 -SN BR 2600 3870 0 0 0
2019/03/03 11:05:00 BASE 9.95 113 12.40 115 -0.5 100 -0.5 28 0 994.1 NA 0.0000 -SN BR 3500 4000 0 0 0
2019/03/03 11:06:00 BASE 10.30 112 12.40 115 -0.4 100 -0.4 30 0 994.1 NA 0.0000 -SN BR 4100 4100 0 0 0
2019/03/03 11:07:00 BASE 8.46 108 12.40 115 -0.4 100 -0.4 32 0 994.1 NA 0.0000 -SN BR 6000 3900 0 0 0
2019/03/03 11:08:00 BASE 9.25 110 12.81 108 -0.4 100 -0.4 34 0 994.1 NA 0.0000 -SN BR 9999 3900 0 0 0
2019/03/03 11:09:00 BASE 11.55 117 13.84 122 -0.4 100 -0.4 35 0 994.1 NA 0.0000 -SN BR 9999 3940 0 0 0
2019/03/03 11:10:00 BASE 10.62 121 13.84 122 -0.4 100 -0.4 36 0 994.1 NA 0.0000 -SN BR 9999 3870 0 0 0
2019/03/03 11:11:00 BASE 8.38 127 13.84 122 -0.4 100 -0.4 37 0 994.1 NA 0.0000 -SN BR 9999 3840 4890 0 0
2019/03/03 11:12:00 BASE 9.21 127 13.84 122 -0.4 100 -0.4 39 0 994.0 NA 0.0000 -SN BR 9999 3840 0 0 0
2019/03/03 11:13:00 BASE 10.77 123 13.84 122 -0.4 100 -0.4 42 0 994.0 NA 0.0000 -SN BR 9999 3840 5090 0 0
2019/03/03 11:14:00 BASE 8.57 127 13.84 122 -0.4 100 -0.4 46 0 994.1 NA 0.0000 -SN BR 9999 3840 5050 0 0
2019/03/03 11:15:00 BASE 7.86 125 13.84 122 -0.4 100 -0.4 49 0 994.1 NA 0.0000 -SN 9999 3840 5050 0 0
2019/03/03 11:16:00 BASE 9.26 126 13.84 122 -0.4 100 -0.4 50 0 994.1 NA 0.0000 -SN 9999 3900 0 0 0
2019/03/03 11:17:00 BASE 9.35 129 13.84 122 -0.4 100 -0.4 49 0 994.1 NA 0.0000 -SN 9999 3940 0 0 0
2019/03/03 11:18:00 BASE 9.96 128 13.84 122 -0.4 100 -0.4 46 0 994.1 NA 0.0000 -SN 9999 4000 0 0 0
2019/03/03 11:19:00 BASE 9.03 130 12.55 120 -0.4 100 -0.4 43 0 994.1 NA 0.0000 9999 4040 0 0 0
2019/03/03 11:20:00 BASE 8.14 133 12.55 120 -0.4 100 -0.4 43 0 994.1 NA 0.0000 9999 4040 0 0 0
2019/03/03 11:21:00 BASE 9.29 133 12.55 120 -0.4 100 -0.4 43 0 994.0 NA 0.0000 9999 3970 0 0 0
2019/03/03 11:22:00 BASE 9.89 131 12.24 120 -0.4 100 -0.4 42 0 994.0 NA 0.0000 9999 4000 0 0 0
2019/03/03 11:23:00 BASE 8.20 132 11.47 129 -0.4 100 -0.4 40 0 994.0 NA 0.0000 9999 4040 0 0 0
2019/03/03 11:24:00 BASE 7.46 134 11.47 129 -0.4 100 -0.4 38 0 994.0 NA 0.0000 9999 4070 0 0 0
2019/03/03 11:25:00 BASE 8.77 131 11.47 129 -0.4 100 -0.4 36 0 994.0 NA 0.0000 9999 4100 0 0 0
2019/03/03 11:26:00 BASE 8.62 129 11.47 129 -0.4 100 -0.4 35 0 994.0 NA 0.0000 9999 1900 4170 0 0
2019/03/03 11:27:00 BASE 7.32 134 11.47 129 -0.4 100 -0.4 36 0 994.0 NA 0.0000 9999 1940 4170 4690 0
2019/03/03 11:28:00 BASE 7.31 136 11.21 129 -0.4 100 -0.4 39 0 993.9 NA 0.0000 9999 1970 4590 0 0
2019/03/03 11:29:00 BASE 8.54 133 11.21 129 -0.4 100 -0.4 43 0 993.9 NA 0.0000 9999 4560 0 0 0
2019/03/03 11:30:00 BASE 8.21 134 11.21 129 -0.4 100 -0.4 45 0 993.9 NA 0.0000 9999 2000 4530 0 0
2019/03/03 11:31:00 BASE 6.53 139 11.21 129 -0.4 100 -0.4 46 0 993.9 NA 0.0000 9999 4560 0 0 0
2019/03/03 11:32:00 BASE 6.68 140 11.21 129 -0.4 100 -0.4 44 0 993.9 NA 0.0000 9999 4530 0 0 0
2019/03/03 11:33:00 BASE 7.49 140 11.21 129 -0.4 100 -0.4 40 0 993.9 NA 0.0000 9999 4070 4560 0 0
2019/03/03 11:34:00 BASE 7.28 144 11.21 129 -0.3 100 -0.3 37 0 993.9 NA 0.0000 9999 4000 0 0 0
2019/03/03 11:35:00 BASE 6.82 146 9.98 131 -0.3 100 -0.3 34 0 993.9 NA 0.0000 9999 3940 0 0 0
2019/03/03 11:36:00 BASE 6.90 145 9.98 131 -0.3 100 -0.3 32 0 993.9 NA 0.0000 9999 3900 0 0 0
2019/03/03 11:37:00 BASE 6.84 144 9.98 131 -0.3 100 -0.3 31 0 993.9 NA 0.0000 9999 3870 0 0 0
2019/03/03 11:38:00 BASE 6.47 138 9.98 131 -0.3 100 -0.3 31 0 994.0 NA 0.0000 9999 3810 0 0 0
2019/03/03 11:39:00 BASE 6.40 131 9.11 134 -0.3 100 -0.3 30 0 994.0 NA 0.0000 9999 3870 0 0 0
2019/03/03 11:40:00 BASE 6.50 128 8.49 153 -0.3 100 -0.3 30 0 994.0 NA 0.0000 9999 4000 0 0 0
2019/03/03 11:41:00 BASE 6.53 130 8.49 153 -0.3 100 -0.3 30 0 994.0 NA 0.0000 9999 4070 0 0 0
2019/03/03 11:42:00 BASE 5.85 130 8.49 153 -0.3 100 -0.3 30 0 994.0 NA 0.0000 9999 3970 0 0 0
2019/03/03 11:43:00 BASE 5.45 127 8.49 153 -0.2 100 -0.2 31 0 994.0 NA 0.0000 9999 4000 0 0 0
2019/03/03 11:44:00 BASE 5.45 125 8.49 153 -0.2 100 -0.2 31 0 994.0 NA 0.0000 9999 3970 0 0 0
2019/03/03 11:45:00 BASE 5.10 125 8.49 153 -0.2 100 -0.2 31 0 994.1 NA 0.0000 9999 4040 0 0 0
2019/03/03 11:46:00 BASE 4.82 126 7.41 124 -0.2 100 -0.2 31 0 994.1 NA 0.0000 9999 4070 0 0 0
2019/03/03 11:47:00 BASE 4.58 124 7.41 124 -0.2 100 -0.2 31 0 994.1 NA 0.0000 9999 4040 0 0 0
2019/03/03 11:48:00 BASE 4.18 117 7.15 128 -0.1 100 -0.1 32 0 994.1 NA 0.0000 9999 3940 0 0 0
2019/03/03 11:49:00 BASE 4.36 113 7.15 128 -0.1 100 -0.1 32 0 994.0 NA 0.0000 9999 3710 0 0 0
2019/03/03 11:50:00 BASE 4.84 109 6.79 132 -0.1 100 -0.1 32 0 994.0 NA 0.0000 9999 3710 0 0 0
2019/03/03 11:51:00 BASE 4.69 107 6.58 134 -0.1 100 -0.1 33 0 994.0 NA 0.0000 9999 3640 0 0 0
2019/03/03 11:52:00 BASE 4.48 107 6.58 134 -0.1 100 -0.1 34 0 994.0 NA 0.0000 9999 3580 0 0 0
2019/03/03 11:53:00 BASE 4.79 103 6.17 123 -0.1 100 -0.1 34 0 994.0 NA 0.0000 9999 3540 0 0 0
2019/03/03 11:54:00 BASE 4.62 103 5.76 102 -0.1 100 -0.1 35 0 994.0 NA 0.0000 9999 3480 0 0 0
2019/03/03 11:55:00 BASE 3.66 108 5.76 102 -0.1 100 -0.1 36 0 994.0 NA 0.0000 9999 3580 0 0 0
2019/03/03 11:56:00 BASE 3.60 109 5.76 102 -0.0 100 -0.0 36 0 994.0 NA 0.0000 9999 3580 0 0 0
2019/03/03 11:57:00 BASE 4.36 113 5.76 102 0.1 100 0.1 36 0 994.0 NA 0.0000 9999 2400 3610 0 0
2019/03/03 11:58:00 BASE 4.78 118 5.76 102 0.1 100 0.1 36 0 993.9 NA 0.0000 9999 3640 0 0 0
2019/03/03 11:59:00 BASE 4.72 118 5.76 102 0.2 100 0.2 35 0 993.9 NA 0.0000 9999 3580 0 0 0
2019/03/03 12:00:00 BASE 4.47 119 5.76 102 0.3 100 0.3 35 0 993.9 NA 0.0000 9999 1970 3580 0 0
2019/03/03 12:01:00 BASE 4.15 116 5.76 102 0.4 100 0.4 36 0 994.0 NA 0.0000 9999 1970 3610 0 0
2019/03/03 12:02:00 BASE 3.90 112 5.76 102 0.5 100 0.5 36 0 993.9 NA 0.0000 9999 1940 0 0 0
2019/03/03 12:03:00 BASE 3.80 109 5.40 120 0.6 100 0.6 35 0 994.0 NA 0.0000 9999 1840 3480 0 0
2019/03/03 12:04:00 BASE 3.47 107 5.40 120 0.6 100 0.6 34 0 994.0 NA 0.0000 9999 1900 3480 0 0
2019/03/03 12:05:00 BASE 3.07 107 5.40 120 0.7 100 0.7 34 0 994.0 NA 0.0000 9999 1900 3410 0 0
2019/03/03 12:06:00 BASE 2.85 110 5.40 120 0.7 100 0.7 34 0 993.9 NA 0.0000 9999 3410 0 0 0
2019/03/03 12:07:00 BASE 2.59 114 5.20 116 0.8 99 0.7 35 0 993.9 NA 0.0000 9999 3410 0 0 0
2019/03/03 12:08:00 BASE 2.12 101 5.14 117 0.9 98 0.6 36 0 993.9 NA 0.0000 9999 3380 0 0 0
2019/03/03 12:09:00 BASE 1.74 78 4.78 119 1.0 97 0.5 39 0 993.9 NA 0.0000 9999 3350 0 0 0
2019/03/03 12:10:00 BASE 1.83 69 4.58 116 1.1 95 0.4 42 0 993.9 NA 0.0000 9999 3350 0 0 0
2019/03/03 12:11:00 BASE 1.89 76 4.58 116 1.1 94 0.3 44 0 993.9 NA 0.0000 9999 3410 0 0 0
2019/03/03 12:12:00 BASE 1.77 90 4.17 109 1.1 94 0.2 46 0 993.9 NA 0.0000 9999 3350 0 0 0
2019/03/03 12:13:00 BASE 1.60 101 3.91 103 1.1 94 0.2 49 0 993.9 NA 0.0000 9999 2920 0 0 0
2019/03/03 12:14:00 BASE 1.11 129 3.45 105 1.1 94 0.3 52 0 993.9 NA 0.0000 9999 2070 0 0 0
2019/03/03 12:15:00 BASE 1.95 199 3.70 245 1.1 94 0.3 55 0 994.0 NA 0.0000 9999 2100 0 0 0
2019/03/03 12:16:00 BASE 2.99 227 3.70 245 1.1 94 0.3 59 0 994.0 NA 0.0000 9999 3580 0 0 0
2019/03/03 12:17:00 BASE 2.53 228 3.70 245 1.0 95 0.3 63 0 994.0 NA 0.0000 UP 9999 2070 0 0 0
2019/03/03 12:18:00 BASE 2.58 223 3.70 245 1.0 95 0.3 67 0 994.0 NA 0.0000 UP 9999 2000 0 0 0
2019/03/03 12:19:00 BASE 2.50 202 3.70 245 0.9 96 0.4 72 0 994.0 NA 0.0000 UP 9999 2030 3480 0 0
2019/03/03 12:20:00 BASE 2.34 186 3.76 178 0.8 98 0.5 75 0 994.0 NA 0.0000 UP 9999 2000 0 0 0
2019/03/03 12:21:00 BASE 3.16 175 4.48 172 0.8 99 0.6 78 0 994.0 NA 0.0000 UP 9999 2030 2590 3450 0
2019/03/03 12:22:00 BASE 3.77 168 4.48 172 0.7 99 0.6 79 0 994.0 NA 0.0000 UP 9000 1970 3450 0 0
2019/03/03 12:23:00 BASE 3.63 161 4.48 172 0.7 100 0.6 79 0 994.0 NA 0.0000 UP 9000 1970 0 0 0
2019/03/03 12:24:00 BASE 3.24 154 4.48 172 0.6 100 0.6 80 0 994.0 NA 0.0000 UP 9999 2030 3610 0 0
2019/03/03 12:25:00 BASE 2.95 147 4.48 172 0.6 100 0.6 82 0 994.0 NA 0.0000 UP 9999 1970 3610 0 0
2019/03/03 12:26:00 BASE 2.89 146 4.48 172 0.6 100 0.6 84 0 994.0 NA 0.0000 UP 9999 1940 3610 0 0
2019/03/03 12:27:00 BASE 3.35 153 4.48 172 0.6 100 0.6 86 0 994.0 NA 0.0000 UP 9999 2030 3610 0 0
2019/03/03 12:28:00 BASE 4.01 162 4.58 167 0.5 100 0.5 87 0 994.0 NA 0.0000 UP 9999 2360 3610 0 0
2019/03/03 12:29:00 BASE 4.29 168 4.89 168 0.5 100 0.5 90 0 994.0 NA 0.0000 UP 9999 2430 3610 0 0
2019/03/03 12:30:00 BASE 4.01 165 4.89 168 0.5 100 0.5 93 0 994.0 NA 0.0000 UP 9999 3640 0 0 0
2019/03/03 12:31:00 BASE 3.69 158 4.89 168 0.5 100 0.5 96 0 994.0 NA 0.0000 UP 9999 3670 0 0 0
2019/03/03 12:32:00 BASE 4.06 152 4.89 146 0.5 100 0.5 100 0 994.0 NA 0.0000 UP 9999 3280 0 0 0
2019/03/03 12:33:00 BASE 4.14 147 4.89 146 0.4 100 0.4 102 0 993.9 NA 0.0000 UP 9999 3120 3670 0 0
2019/03/03 12:34:00 BASE 3.18 147 4.89 146 0.5 100 0.5 104 0 993.9 NA 0.0000 UP 9999 3120 3710 0 0
2019/03/03 12:35:00 BASE 2.75 145 4.89 146 0.5 100 0.5 106 0 993.9 NA 0.0000 UP 9000 3640 0 0 0
2019/03/03 12:36:00 BASE 3.32 138 4.89 146 0.5 100 0.5 105 0 993.9 NA 0.0000 UP 9000 3670 0 0 0
2019/03/03 12:37:00 BASE 3.30 123 4.99 102 0.6 100 0.6 102 0 993.8 NA 0.0000 UP 9999 3710 0 0 0
2019/03/03 12:38:00 BASE 3.17 111 4.99 102 0.6 100 0.6 101 0 993.7 NA 0.0000 UP 9999 3740 0 0 0
2019/03/03 12:39:00 BASE 3.97 121 6.12 138 0.7 100 0.7 104 0 993.7 NA 0.0000 UP 9999 3710 0 0 0
2019/03/03 12:40:00 BASE 5.12 132 6.69 137 0.7 100 0.7 107 0 993.6 NA 0.0000 UP 9999 2300 3670 0 0
2019/03/03 12:41:00 BASE 6.00 124 7.00 113 0.8 100 0.8 107 0 993.6 NA 0.0000 UP 9999 2430 3710 0 0
2019/03/03 12:42:00 BASE 5.79 120 7.00 113 0.8 100 0.8 103 0 993.6 NA 0.0000 UP 9999 2360 4000 0 0
2019/03/03 12:43:00 BASE 5.71 124 7.41 118 0.9 100 0.8 99 0 993.5 NA 0.0000 UP 9999 2230 4100 0 0
2019/03/03 12:44:00 BASE 6.17 125 7.41 118 0.9 100 0.8 95 0 993.5 NA 0.0000 UP 9999 2260 4100 0 0
2019/03/03 12:45:00 BASE 6.31 124 7.41 118 0.9 99 0.8 93 0 993.5 NA 0.0000 UP 9999 2330 4040 0 0
2019/03/03 12:46:00 BASE 6.39 123 7.41 118 0.9 99 0.8 94 0 993.5 NA 0.0000 UP 9999 4070 0 0 0
2019/03/03 12:47:00 BASE 6.20 124 7.41 118 0.9 99 0.8 96 0 993.5 NA 0.0000 UP 9999 4100 0 0 0
2019/03/03 12:48:00 BASE 5.41 126 7.41 118 0.9 99 0.8 98 0 993.5 NA 0.0000 UP 9999 4130 0 0 0
2019/03/03 12:49:00 BASE 4.52 126 7.41 118 1.0 99 0.8 100 0 993.5 NA 0.0000 9999 4100 0 0 0
2019/03/03 12:50:00 BASE 3.91 128 7.41 118 1.0 99 0.8 98 0 993.5 NA 0.0000 9999 3940 0 0 0
2019/03/03 12:51:00 BASE 3.85 131 7.41 118 1.1 98 0.8 95 0 993.5 NA 0.0000 9999 3870 0 0 0
2019/03/03 12:52:00 BASE 3.20 126 7.41 118 1.1 98 0.9 92 0 993.6 NA 0.0000 9999 3900 0 0 0
2019/03/03 12:53:00 BASE 2.63 127 7.25 118 1.2 98 0.9 89 0 993.6 NA 0.0000 9999 3900 0 0 0
2019/03/03 12:54:00 BASE 3.10 134 7.15 113 1.1 98 0.9 86 0 993.6 NA 0.0000 9999 2330 3900 0 0
2019/03/03 12:55:00 BASE 3.15 136 6.94 122 1.1 98 0.8 83 0 993.6 NA 0.0000 9999 2330 0 0 0
2019/03/03 12:56:00 BASE 3.98 139 7.15 145 1.0 98 0.8 82 0 993.6 NA 0.0000 9999 2070 0 0 0
2019/03/03 12:57:00 BASE 5.71 141 7.56 138 1.0 98 0.7 82 0 993.5 NA 0.0000 9999 1970 0 0 0
2019/03/03 12:58:00 BASE 5.76 143 7.56 138 0.9 99 0.8 84 0 993.5 NA 0.0000 9999 2000 0 0 0
2019/03/03 12:59:00 BASE 5.47 126 7.56 138 0.9 99 0.8 86 0 993.5 NA 0.0000 9999 2070 0 0 0
2019/03/03 13:00:00 BASE 6.29 111 9.26 119 0.9 100 0.9 88 0 993.5 NA 0.0000 9999 2070 0 0 0
2019/03/03 13:01:00 BASE 7.18 120 9.26 119 1.0 100 0.9 91 0 993.5 NA 0.0000 9999 2070 0 0 0
2019/03/03 13:02:00 BASE 7.21 127 9.26 119 1.0 100 1.0 94 0 993.5 NA 0.0000 9999 2030 3940 0 0
2019/03/03 13:03:00 BASE 7.06 125 9.26 119 1.0 100 1.0 97 0 993.5 NA 0.0000 9999 3510 0 0 0
2019/03/03 13:04:00 BASE 7.12 120 9.26 119 1.1 99 1.0 97 0 993.4 NA 0.0000 9999 2070 3510 0 0
2019/03/03 13:05:00 BASE 7.74 122 10.03 120 1.2 98 1.0 97 0 993.4 NA 0.0000 9999 3540 0 0 0
2019/03/03 13:06:00 BASE 9.16 123 10.70 123 1.3 97 0.9 95 0 993.4 NA 0.0000 9999 3480 0 0 0
2019/03/03 13:07:00 BASE 9.00 124 10.70 123 1.4 97 0.9 94 0 993.4 NA 0.0000 9999 2070 0 0 0
2019/03/03 13:08:00 BASE 8.44 124 10.70 123 1.4 96 0.8 95 0 993.4 NA 0.0000 9999 2070 0 0 0
2019/03/03 13:09:00 BASE 9.25 120 10.75 120 1.4 95 0.7 95 0 993.4 NA 0.0000 9999 3640 0 0 0
2019/03/03 13:10:00 BASE 9.56 115 10.75 120 1.3 96 0.7 95 0 993.4 NA 0.0000 9999 2130 3710 0 0
2019/03/03 13:11:00 BASE 9.25 116 10.75 120 1.2 96 0.7 97 0 993.4 NA 0.0000 9999 2100 0 0 0
2019/03/03 13:12:00 BASE 9.65 118 10.75 120 1.2 97 0.8 100 0 993.4 NA 0.0000 9999 2070 0 0 0
2019/03/03 13:13:00 BASE 9.31 118 10.75 120 1.2 97 0.9 103 0 993.3 NA 0.0000 9999 2100 0 0 0
2019/03/03 13:14:00 BASE 8.83 120 10.75 120 1.4 97 1.0 104 0 993.3 NA 0.0000 9999 2100 3870 0 0
2019/03/03 13:15:00 BASE 9.67 118 11.11 120 1.5 97 1.0 103 0 993.3 NA 0.0000 9999 2100 3940 0 0
2019/03/03 13:16:00 BASE 10.67 115 12.04 117 1.6 96 1.0 102 0 993.3 NA 0.0000 9999 3870 22610 0 0
2019/03/03 13:17:00 BASE 10.09 118 12.04 117 1.6 95 1.0 101 0 993.3 NA 0.0000 9999 2260 3940 0 0
2019/03/03 13:18:00 BASE 9.58 120 12.04 117 1.7 95 0.9 104 0 993.3 NA 0.0000 9999 2200 0 0 0
2019/03/03 13:19:00 BASE 10.21 118 12.04 117 1.7 94 0.8 111 0 993.3 NA 0.0000 9999 2230 0 0 0
2019/03/03 13:20:00 BASE 10.49 116 12.04 117 1.6 94 0.8 117 0 993.3 NA 0.0000 9999 2360 3940 0 0
2019/03/03 13:21:00 BASE 10.79 117 12.04 117 1.7 94 0.9 120 0 993.3 NA 0.0000 9999 3900 0 0 0
2019/03/03 13:22:00 BASE 10.70 118 12.04 117 1.7 94 0.9 124 0 993.3 NA 0.0000 9999 2200 0 0 0
2019/03/03 13:23:00 BASE 10.36 117 12.04 117 1.7 94 0.9 127 0 993.2 NA 0.0000 9999 2230 0 0 0
2019/03/03 13:24:00 BASE 10.06 116 12.04 117 1.8 93 0.9 128 0 993.2 NA 0.0000 9999 2200 3970 0 0
2019/03/03 13:25:00 BASE 9.91 115 12.04 117 1.9 93 0.8 127 0 993.2 NA 0.0000 9999 2200 0 0 0
2019/03/03 13:26:00 BASE 10.30 111 11.32 118 2.0 92 0.7 127 0 993.2 NA 0.0000 9999 2200 0 0 0
2019/03/03 13:27:00 BASE 10.19 112 11.32 118 2.0 91 0.7 129 0 993.2 NA 0.0000 9999 2230 0 0 0
2019/03/03 13:28:00 BASE 10.04 113 11.32 118 2.0 91 0.7 132 0 993.1 NA 0.0000 9999 2230 0 0 0
2019/03/03 13:29:00 BASE 10.28 115 11.32 118 2.0 91 0.7 135 0 993.1 NA 0.0000 9999 2200 0 0 0
2019/03/03 13:30:00 BASE 10.32 118 11.32 118 2.0 91 0.7 136 0 993.1 NA 0.0000 9999 2230 4070 0 0
2019/03/03 13:31:00 BASE 10.33 117 11.21 107 2.1 91 0.8 133 0 993.1 NA 0.0000 9999 2200 0 0 0
2019/03/03 13:32:00 BASE 9.92 118 11.21 107 2.1 90 0.7 128 0 993.2 NA 0.0000 9999 2230 3180 0 0
2019/03/03 13:33:00 BASE 9.29 117 11.21 107 2.2 89 0.6 121 0 993.2 NA 0.0000 9999 2260 3120 0 0
2019/03/03 13:34:00 BASE 9.21 116 11.21 107 2.3 88 0.5 116 0 993.2 NA 0.0000 9999 2360 0 0 0
2019/03/03 13:35:00 BASE 9.02 115 11.21 107 2.3 87 0.5 112 0 993.2 NA 0.0000 9999 2490 0 0 0
2019/03/03 13:36:00 BASE 8.67 115 10.91 118 2.4 87 0.4 110 0 993.1 NA 0.0000 9999 2590 0 0 0
2019/03/03 13:37:00 BASE 9.21 119 10.91 118 2.4 87 0.4 112 0 993.1 NA 0.0000 9999 2490 0 0 0
2019/03/03 13:38:00 BASE 9.93 120 10.91 118 2.4 87 0.4 117 0 993.1 NA 0.0000 9999 2460 0 0 0
2019/03/03 13:39:00 BASE 9.81 119 10.80 122 2.3 87 0.4 119 0 993.1 NA 0.0000 9999 2460 3450 3970 0
2019/03/03 13:40:00 BASE 9.96 119 10.70 120 2.3 87 0.4 114 0 993.0 NA 0.0000 9999 3050 3510 0 0
2019/03/03 13:41:00 BASE 9.85 121 10.70 120 2.3 87 0.4 110 0 993.1 NA 0.0000 9999 2820 0 0 0
2019/03/03 13:42:00 BASE 8.68 123 10.70 120 2.4 87 0.4 109 0 993.2 NA 0.0000 9999 2690 0 0 0
2019/03/03 13:43:00 BASE 7.56 129 10.70 120 2.5 86 0.4 110 0 993.2 NA 0.0000 9999 2620 0 0 0
2019/03/03 13:44:00 BASE 6.24 139 10.70 120 2.5 86 0.4 110 0 993.2 NA 0.0000 9999 2620 0 0 0
2019/03/03 13:45:00 BASE 6.10 149 10.70 120 2.4 86 0.3 112 0 993.2 NA 0.0000 9999 2720 0 0 0
2019/03/03 13:46:00 BASE 7.13 155 10.70 120 2.1 87 0.2 116 0 993.2 NA 0.0000 9999 2620 0 0 0
2019/03/03 13:47:00 BASE 7.35 157 10.70 120 1.8 90 0.3 116 0 993.2 NA 0.0000 9999 2560 0 0 0
2019/03/03 13:48:00 BASE 7.71 158 10.70 120 1.4 92 0.3 117 0 993.2 NA 0.0000 9999 2590 0 0 0
2019/03/03 13:49:00 BASE 8.11 157 10.70 120 1.1 95 0.4 121 0 993.2 NA 0.0000 9999 2560 0 0 0
2019/03/03 13:50:00 BASE 8.07 156 9.98 122 0.9 97 0.5 124 0 993.2 NA 0.0000 9999 2530 0 0 0
2019/03/03 13:51:00 BASE 8.22 152 9.05 152 0.8 99 0.6 125 0 993.2 NA 0.0000 9999 2530 0 0 0
2019/03/03 13:52:00 BASE 7.27 150 9.05 152 0.8 100 0.7 123 0 993.2 NA 0.0000 9999 2460 0 0 0
2019/03/03 13:53:00 BASE 5.74 152 9.05 152 0.8 100 0.8 123 0 993.2 NA 0.0000 9999 2460 0 0 0
2019/03/03 13:54:00 BASE 4.79 157 9.05 152 0.8 100 0.8 123 0 993.2 NA 0.0000 9999 2660 0 0 0
2019/03/03 13:55:00 BASE 5.00 161 9.05 152 0.9 100 0.9 121 0 993.2 NA 0.0000 9999 2620 0 0 0
2019/03/03 13:56:00 BASE 5.03 162 9.05 152 0.9 100 0.9 121 0 993.2 NA 0.0000 9999 2660 0 0 0
2019/03/03 13:57:00 BASE 4.43 167 9.05 152 0.9 100 0.9 119 0 993.2 NA 0.0000 9999 2620 0 0 0
2019/03/03 13:58:00 BASE 4.14 172 9.05 152 0.9 100 0.9 115 0 993.2 NA 0.0000 9999 2620 0 0 0
2019/03/03 13:59:00 BASE 3.53 176 9.05 152 1.0 100 1.0 113 0 993.2 NA 0.0000 9999 2660 0 0 0
2019/03/03 14:00:00 BASE 3.60 188 9.05 152 1.0 100 1.0 111 0 993.2 NA 0.0000 9999 2620 0 0 0
2019/03/03 14:01:00 BASE 4.01 196 7.61 140 1.0 100 1.0 103 0 993.2 NA 0.0000 9999 2590 0 0 0
2019/03/03 14:02:00 BASE 3.21 196 6.22 145 1.0 100 1.0 96 0 993.2 NA 0.0000 9999 2530 0 0 0
2019/03/03 14:03:00 BASE 2.15 203 6.07 156 0.9 100 0.9 92 0 993.3 NA 0.0000 9999 2490 0 0 0
2019/03/03 14:04:00 BASE 1.84 210 6.07 156 0.9 100 0.9 91 0 993.2 NA 0.0000 9999 2490 0 0 0
2019/03/03 14:05:00 BASE 1.88 197 5.04 174 0.9 100 0.9 90 0 993.2 NA 0.0000 9999 2430 0 0 0
2019/03/03 14:06:00 BASE 2.31 185 5.04 174 0.9 100 0.9 90 0 993.2 NA 0.0000 9999 2460 0 0 0
2019/03/03 14:07:00 BASE 2.83 179 5.04 174 0.9 100 0.9 93 0 993.0 NA 0.0000 9999 2460 0 0 0
2019/03/03 14:08:00 BASE 3.28 170 4.84 193 0.9 100 0.9 95 0 993.0 NA 0.0000 9999 2460 0 0 0
2019/03/03 14:09:00 BASE 3.84 159 5.04 152 0.9 100 0.9 98 0 993.0 NA 0.0000 9999 2430 0 0 0
2019/03/03 14:10:00 BASE 4.70 149 6.07 146 1.0 100 1.0 104 0 992.9 NA 0.0000 9999 2400 0 0 0
2019/03/03 14:11:00 BASE 5.12 150 6.07 146 1.0 100 1.0 109 0 992.9 NA 0.0000 9999 2360 0 0 0
2019/03/03 14:12:00 BASE 5.03 158 6.07 146 1.0 100 1.0 107 0 992.9 NA 0.0000 9999 2360 0 0 0
2019/03/03 14:13:00 BASE 5.53 163 6.48 157 1.0 100 1.0 108 0 992.9 NA 0.0000 9999 2400 0 0 0
2019/03/03 14:14:00 BASE 5.93 165 6.48 157 1.0 100 1.0 117 0 992.9 NA 0.0000 9999 2400 0 0 0
2019/03/03 14:15:00 BASE 5.35 163 6.48 157 1.0 100 1.0 123 0 992.9 NA 0.0000 9999 2330 0 0 0
2019/03/03 14:16:00 BASE 4.62 160 6.48 157 0.9 100 0.9 122 0 992.9 NA 0.0000 9999 2300 0 0 0
2019/03/03 14:17:00 BASE 4.45 161 6.48 157 0.8 100 0.8 116 0 992.9 NA 0.0000 9999 2360 0 0 0
2019/03/03 14:18:00 BASE 4.94 161 6.48 157 0.8 100 0.8 108 0 992.9 NA 0.0000 9999 2330 0 0 0
2019/03/03 14:19:00 BASE 5.55 159 6.48 161 0.8 100 0.8 104 0 992.9 NA 0.0000 9999 2230 0 0 0
2019/03/03 14:20:00 BASE 5.15 154 6.48 161 0.8 100 0.8 100 0 992.9 NA 0.0000 9999 2230 0 0 0
2019/03/03 14:21:00 BASE 4.49 150 6.48 161 0.9 100 0.9 101 0 992.9 NA 0.0000 9999 2230 0 0 0
2019/03/03 14:22:00 BASE 4.22 150 6.48 161 0.9 100 0.9 103 0 992.9 NA 0.0000 9999 2230 0 0 0
2019/03/03 14:23:00 BASE 3.85 151 6.48 161 0.9 100 0.9 107 0 992.9 NA 0.0000 9999 2400 0 0 0
2019/03/03 14:24:00 BASE 3.84 146 6.48 161 1.0 100 1.0 108 0 992.9 NA 0.0000 9999 2170 0 0 0
2019/03/03 14:25:00 BASE 3.66 125 6.48 161 1.1 100 1.1 109 0 992.9 NA 0.0000 9999 2200 0 0 0
2019/03/03 14:26:00 BASE 3.20 113 6.48 161 1.1 100 1.1 112 0 992.9 NA 0.0000 9999 2230 0 0 0
2019/03/03 14:27:00 BASE 3.09 122 6.48 161 1.2 100 1.1 114 0 992.9 NA 0.0000 9999 2200 0 0 0
2019/03/03 14:28:00 BASE 2.89 121 6.48 161 1.2 99 1.1 114 0 992.9 NA 0.0000 9999 2230 0 0 0
2019/03/03 14:29:00 BASE 2.57 113 5.56 151 1.3 99 1.1 112 0 992.9 NA 0.0000 9999 2230 0 0 0
2019/03/03 14:30:00 BASE 1.87 116 5.56 151 1.4 98 1.2 113 0 992.9 NA 0.0000 9999 2260 0 0 0
2019/03/03 14:31:00 BASE 1.02 113 5.25 130 1.5 98 1.2 112 0 992.9 NA 0.0000 9999 2300 0 0 0
2019/03/03 14:32:00 BASE 0.93 65 5.25 130 1.6 98 1.3 109 0 992.8 NA 0.0000 9999 2260 0 0 0
2019/03/03 14:33:00 BASE 0.72 24 5.25 130 1.7 97 1.3 108 0 992.8 NA 0.0000 9999 2300 0 0 0
2019/03/03 14:34:00 BASE 0.56 54 4.37 122 1.7 97 1.3 110 0 992.8 NA 0.0000 9999 2260 0 0 0
2019/03/03 14:35:00 BASE 0.77 116 4.01 122 1.7 96 1.2 116 0 992.8 NA 0.0000 9999 2230 0 0 0
2019/03/03 14:36:00 BASE 0.76 143 3.81 136 1.7 96 1.2 124 0 992.8 NA 0.0000 9999 2200 0 0 0
2019/03/03 14:37:00 BASE 1.82 148 3.76 152 1.6 96 1.0 132 0 992.8 NA 0.0000 9999 2260 22670 0 0
2019/03/03 14:38:00 BASE 2.72 146 3.76 152 1.6 96 1.0 138 0 992.8 NA 0.0000 9999 2200 0 0 0
2019/03/03 14:39:00 BASE 2.13 145 3.76 152 1.6 95 0.9 138 0 992.8 NA 0.0000 9999 2130 0 0 0
2019/03/03 14:40:00 BASE 1.70 155 3.76 152 1.5 95 0.8 138 0 992.8 NA 0.0000 9999 2100 0 0 0
2019/03/03 14:41:00 BASE 1.56 160 3.76 152 1.5 94 0.7 136 0 992.8 NA 0.0000 9999 2170 0 0 0
2019/03/03 14:42:00 BASE 1.71 156 3.76 152 1.5 94 0.7 133 0 992.8 NA 0.0000 9999 2100 0 0 0
2019/03/03 14:43:00 BASE 2.65 158 4.42 155 1.6 94 0.7 130 0 992.8 NA 0.0000 9999 2170 0 0 0
2019/03/03 14:44:00 BASE 3.86 160 4.68 158 1.6 94 0.7 135 0 992.7 NA 0.0000 9999 2200 0 0 0
2019/03/03 14:45:00 BASE 4.40 161 4.68 163 1.6 94 0.7 145 0 992.7 NA 0.0000 9999 2170 0 0 0
2019/03/03 14:46:00 BASE 3.95 158 4.68 163 1.5 94 0.7 151 0 992.7 NA 0.0000 9999 2070 0 0 0
2019/03/03 14:47:00 BASE 2.84 145 4.68 163 1.5 94 0.6 152 0 992.7 NA 0.0000 9999 2100 0 0 0
2019/03/03 14:48:00 BASE 1.37 113 4.68 163 1.5 95 0.7 162 0 992.8 NA 0.0000 9999 2170 0 0 0
2019/03/03 14:49:00 BASE 0.28 107 4.68 163 1.4 95 0.8 170 0 992.7 NA 0.0000 9999 2200 0 0 0
2019/03/03 14:50:00 BASE 0.00 137 4.68 163 1.5 96 0.9 169 0 992.7 NA 0.0000 9999 2200 0 0 0
2019/03/03 14:51:00 BASE 0.00 118 4.68 163 1.5 96 1.0 170 0 992.7 NA 0.0000 9999 2260 0 0 0
2019/03/03 14:52:00 BASE 0.04 360 4.68 163 1.5 97 1.0 171 0 992.7 NA 0.0000 9999 2330 0 0 0
2019/03/03 14:53:00 BASE 0.84 354 4.68 163 1.5 97 1.1 166 0 992.7 NA 0.0000 9999 2200 0 0 0
2019/03/03 14:54:00 BASE 1.92 3 4.68 163 1.6 97 1.1 178 0 992.7 NA 0.0000 9999 2130 0 0 0
2019/03/03 14:55:00 BASE 3.07 351 4.22 335 1.5 97 1.0 207 0 992.6 NA 0.0000 9999 2200 0 0 0
2019/03/03 14:56:00 BASE 4.03 337 4.99 332 1.4 97 0.9 206 0 992.6 NA 0.0000 9999 2170 0 0 0
2019/03/03 14:57:00 BASE 4.78 336 6.33 330 1.4 97 0.9 195 0 992.6 NA 0.0000 9999 2200 0 0 0
2019/03/03 14:58:00 BASE 5.52 341 6.33 330 1.3 97 0.9 190 0 992.6 NA 0.0000 9999 2170 23030 0 0
2019/03/03 14:59:00 BASE 5.50 339 6.33 330 1.1 98 0.8 192 0 992.6 NA 0.0000 9999 2170 0 0 0
2019/03/03 15:00:00 BASE 5.16 338 6.33 330 1.1 98 0.9 192 0 992.5 NA 0.0000 9999 2360 0 0 0
2019/03/03 15:01:00 BASE 4.53 342 6.33 330 1.1 99 0.9 191 0 992.5 NA 0.0000 9999 2300 0 0 0
2019/03/03 15:02:00 BASE 3.91 342 6.33 330 1.1 99 1.0 184 0 992.4 NA 0.0000 9999 2200 0 0 0
2019/03/03 15:03:00 BASE 3.54 338 6.33 330 1.1 100 1.1 173 0 992.5 NA 0.0000 9999 2260 0 0 0
2019/03/03 15:04:00 BASE 3.10 334 6.33 330 1.2 100 1.2 167 0 992.6 NA 0.0000 9999 2230 0 0 0
2019/03/03 15:05:00 BASE 2.56 333 6.33 330 1.2 100 1.2 164 0 992.5 NA 0.0000 9999 2170 0 0 0
2019/03/03 15:06:00 BASE 2.64 330 6.33 330 1.3 100 1.3 161 0 992.4 NA 0.0000 9999 2300 0 0 0
2019/03/03 15:07:00 BASE 3.02 329 6.28 334 1.3 100 1.3 155 0 992.4 NA 0.0000 9999 2230 0 0 0
2019/03/03 15:08:00 BASE 3.11 325 5.92 337 1.3 100 1.3 151 0 992.4 NA 0.0000 9999 2230 0 0 0
2019/03/03 15:09:00 BASE 3.40 320 5.56 341 1.2 100 1.2 153 0 992.4 NA 0.0000 9999 2200 0 0 0
2019/03/03 15:10:00 BASE 3.83 317 4.73 310 1.2 100 1.2 159 0 992.4 NA 0.0000 9999 2170 0 0 0
2019/03/03 15:11:00 BASE 4.18 313 4.73 310 1.2 100 1.2 168 0 992.4 NA 0.0000 9999 2130 0 0 0
2019/03/03 15:12:00 BASE 4.08 311 4.73 310 1.2 100 1.2 173 0 992.4 NA 0.0000 9999 2130 0 0 0
2019/03/03 15:13:00 BASE 3.42 308 4.73 310 1.2 100 1.2 175 0 992.4 NA 0.0000 9999 2130 0 0 0
2019/03/03 15:14:00 BASE 2.89 306 4.73 310 1.2 100 1.2 178 0 992.4 NA 0.0000 9999 2170 0 0 0
2019/03/03 15:15:00 BASE 3.01 306 4.73 310 1.3 100 1.3 186 0 992.4 NA 0.0000 9999 2260 0 0 0
2019/03/03 15:16:00 BASE 3.35 306 4.73 310 1.3 100 1.3 188 0 992.4 NA 0.0000 9999 2230 0 0 0
2019/03/03 15:17:00 BASE 3.71 301 4.73 310 1.4 100 1.4 186 0 992.3 NA 0.0000 9999 2200 0 0 0
2019/03/03 15:18:00 BASE 3.67 300 4.73 310 1.4 100 1.4 184 0 992.3 NA 0.0000 9999 2100 0 0 0
2019/03/03 15:19:00 BASE 3.28 303 4.73 310 1.5 100 1.5 181 0 992.3 NA 0.0000 9999 2030 3150 0 0
2019/03/03 15:20:00 BASE 3.05 308 4.58 316 1.5 100 1.5 183 0 992.3 NA 0.0000 9999 2230 0 0 0
2019/03/03 15:21:00 BASE 3.17 311 4.48 318 1.5 100 1.5 186 0 992.3 NA 0.0000 9999 2200 0 0 0
2019/03/03 15:22:00 BASE 3.54 312 4.06 299 1.4 100 1.4 188 0 992.3 NA 0.0000 9999 2130 0 0 0
2019/03/03 15:23:00 BASE 3.72 311 4.06 299 1.4 100 1.4 194 0 992.2 NA 0.0000 9999 2070 0 0 0
2019/03/03 15:24:00 BASE 3.86 310 4.32 308 1.4 100 1.4 198 0 992.2 NA 0.0000 9999 2000 0 0 0
2019/03/03 15:25:00 BASE 3.91 310 4.32 307 1.3 100 1.3 205 0 992.2 NA 0.0000 9999 2000 0 0 0
2019/03/03 15:26:00 BASE 3.32 316 4.32 307 1.3 100 1.3 212 0 992.2 NA 0.0000 9999 2330 0 0 0
2019/03/03 15:27:00 BASE 2.65 327 4.32 307 1.3 100 1.3 211 0 992.2 NA 0.0000 9999 2170 0 0 0
2019/03/03 15:28:00 BASE 2.06 330 4.32 307 1.3 100 1.3 206 0 992.2 NA 0.0000 9999 2260 0 0 0
2019/03/03 15:29:00 BASE 1.28 306 4.32 307 1.2 100 1.2 205 0 992.2 NA 0.0000 9999 2130 0 0 0
2019/03/03 15:30:00 BASE 1.20 280 4.32 307 1.2 100 1.2 207 0 992.2 NA 0.0000 9999 2130 3080 0 0
2019/03/03 15:31:00 BASE 1.73 290 4.32 307 1.2 100 1.2 207 0 992.2 NA 0.0000 9999 2590 0 0 0
2019/03/03 15:32:00 BASE 2.13 307 4.32 307 1.3 100 1.3 207 0 992.1 NA 0.0000 9999 2360 2920 0 0
2019/03/03 15:33:00 BASE 2.27 306 4.32 307 1.3 100 1.3 212 0 992.1 NA 0.0000 9999 2460 0 0 0
2019/03/03 15:34:00 BASE 2.01 295 4.32 307 1.3 100 1.3 218 0 992.1 NA 0.0000 9999 2820 0 0 0
2019/03/03 15:35:00 BASE 1.31 287 3.29 314 1.3 100 1.3 224 0 992.1 NA 0.0000 9999 2820 0 0 0
2019/03/03 15:36:00 BASE 0.44 293 2.68 336 1.3 100 1.3 225 0 992.1 NA 0.0000 9999 2790 0 0 0
2019/03/03 15:37:00 BASE 0.00 309 2.52 311 1.3 100 1.3 217 0 992.1 NA 0.0000 9999 2790 0 0 0
2019/03/03 15:38:00 BASE 0.09 320 2.52 311 1.3 100 1.3 208 0 992.1 NA 0.0000 9999 2760 0 0 0
2019/03/03 15:39:00 BASE 0.69 317 2.52 311 1.3 100 1.3 204 0 992.1 NA 0.0000 9999 2330 2890 0 0
2019/03/03 15:40:00 BASE 1.39 310 2.52 311 1.4 100 1.4 206 0 992.1 NA 0.0000 9999 2760 0 0 0
2019/03/03 15:41:00 BASE 1.15 307 2.52 311 1.4 100 1.4 209 0 992.1 NA 0.0000 9999 2720 0 0 0
2019/03/03 15:42:00 BASE 0.36 309 2.52 311 1.5 100 1.5 210 0 992.1 NA 0.0000 9999 2720 0 0 0
2019/03/03 15:43:00 BASE 0.00 322 2.21 294 1.5 100 1.5 211 0 992.1 NA 0.0000 9999 2230 2720 0 0
2019/03/03 15:44:00 BASE 0.05 342 1.85 313 1.5 100 1.5 215 0 992.1 NA 0.0000 9999 2330 0 0 0
2019/03/03 15:45:00 BASE 0.05 348 1.85 313 1.5 100 1.5 220 0 992.1 NA 0.0000 9999 2530 0 0 0
2019/03/03 15:46:00 BASE 0.00 343 1.85 313 1.6 100 1.6 223 0 992.0 NA 0.0000 9999 2690 0 0 0
2019/03/03 15:47:00 BASE 0.00 318 1.85 313 1.7 100 1.7 226 0 992.0 NA 0.0000 9999 2590 0 0 0
2019/03/03 15:48:00 BASE 0.00 294 1.85 313 1.7 100 1.7 227 0 992.0 NA 0.0000 9999 2660 0 0 0
2019/03/03 15:49:00 BASE 0.00 265 1.85 313 1.7 100 1.7 225 0 992.0 NA 0.0000 9999 2720 21650 0 0
2019/03/03 15:50:00 BASE 0.00 224 1.70 302 1.8 100 1.8 226 0 992.0 NA 0.0000 9999 2760 0 0 0
2019/03/03 15:51:00 BASE 0.00 224 1.08 51 1.8 100 1.8 229 0 992.0 NA 0.0000 9999 2660 0 0 0
2019/03/03 15:52:00 BASE 0.00 233 1.08 51 1.9 100 1.9 232 0 991.9 NA 0.0000 9999 2660 0 0 0
2019/03/03 15:53:00 BASE 0.28 227 1.54 225 1.9 100 1.9 232 0 991.9 NA 0.0000 9999 2720 0 0 0
2019/03/03 15:54:00 BASE 0.90 204 1.54 225 2.0 100 2.0 223 0 991.8 NA 0.0000 9999 2690 0 0 0
2019/03/03 15:55:00 BASE 1.34 187 1.59 178 2.0 100 2.0 208 0 991.8 NA 0.0000 9999 2590 0 0 0
2019/03/03 15:56:00 BASE 1.51 184 1.80 192 2.0 100 2.0 200 0 991.8 NA 0.0000 9999 2530 0 0 0
2019/03/03 15:57:00 BASE 1.62 192 1.85 193 2.0 100 2.0 199 0 991.8 NA 0.0000 9999 2720 0 0 0
2019/03/03 15:58:00 BASE 1.78 192 2.31 194 2.0 100 2.0 199 0 991.9 NA 0.0000 9999 2760 0 0 0
2019/03/03 15:59:00 BASE 2.03 189 2.37 187 2.0 100 1.9 200 0 991.8 NA 0.0000 9999 2590 0 0 0
2019/03/03 16:00:00 BASE 2.05 185 2.42 192 2.0 99 1.9 201 0 991.8 NA 0.0000 9999 2590 0 0 0
2019/03/03 16:01:00 BASE 1.39 174 2.42 192 2.0 99 1.8 205 0 991.8 NA 0.0000 9999 2590 0 0 0
2019/03/03 16:02:00 BASE 1.18 168 2.52 173 2.0 99 1.8 212 0 991.8 NA 0.0000 9999 2590 0 0 0
2019/03/03 16:03:00 BASE 1.93 175 2.68 183 2.0 98 1.7 218 0 991.8 NA 0.0000 9999 2660 0 0 0
2019/03/03 16:04:00 BASE 2.40 170 2.73 150 2.0 98 1.7 220 0 991.8 NA 0.0000 9999 2690 0 0 0
2019/03/03 16:05:00 BASE 2.20 160 2.78 161 2.0 97 1.7 221 0 991.8 NA 0.0000 9999 2720 0 0 0
2019/03/03 16:06:00 BASE 1.66 176 2.78 161 2.1 97 1.7 221 0 991.8 NA 0.0000 9999 2760 0 0 0
2019/03/03 16:07:00 BASE 1.32 180 2.78 161 2.0 97 1.6 225 0 991.7 NA 0.0000 9999 2690 0 0 0
2019/03/03 16:08:00 BASE 0.69 163 2.78 161 2.1 97 1.6 232 0 991.7 NA 0.0000 9999 2690 0 0 0
2019/03/03 16:09:00 BASE 0.05 148 2.78 161 2.1 97 1.7 233 0 991.7 NA 0.0000 9999 2690 0 0 0
2019/03/03 16:10:00 BASE 0.00 159 2.78 161 2.1 97 1.7 233 0 991.7 NA 0.0000 9999 2820 0 0 0
2019/03/03 16:11:00 BASE 0.00 245 2.78 161 2.1 98 1.7 234 0 991.7 NA 0.0000 9999 2760 0 0 0
2019/03/03 16:12:00 BASE 0.00 307 2.78 161 2.0 98 1.7 232 0 991.7 NA 0.0000 9999 2720 0 0 0
2019/03/03 16:13:00 BASE 0.00 351 2.78 161 2.0 98 1.8 229 0 991.6 NA 0.0000 9999 2760 0 0 0
2019/03/03 16:14:00 BASE 0.00 16 2.78 161 1.9 99 1.7 220 0 991.7 NA 0.0000 9999 2790 0 0 0
2019/03/03 16:15:00 BASE 0.50 31 1.54 170 1.8 99 1.7 209 0 991.7 NA 0.0000 9999 2760 0 0 0
2019/03/03 16:16:00 BASE 1.28 32 1.75 36 1.7 100 1.7 204 0 991.7 NA 0.0000 9999 2820 0 0 0
2019/03/03 16:17:00 BASE 1.52 25 1.95 27 1.6 100 1.6 205 0 991.7 NA 0.0000 9999 2850 0 0 0
2019/03/03 16:18:00 BASE 1.26 29 1.95 27 1.6 100 1.6 211 0 991.7 NA 0.0000 9999 2850 0 0 0
2019/03/03 16:19:00 BASE 0.77 34 1.95 27 1.6 100 1.6 220 0 991.7 NA 0.0000 9999 2850 0 0 0
2019/03/03 16:20:00 BASE 0.34 10 1.95 27 1.7 100 1.7 225 0 991.7 NA 0.0000 9999 2890 0 0 0
2019/03/03 16:21:00 BASE 0.09 319 1.95 27 1.8 100 1.8 225 0 991.6 NA 0.0000 9999 2890 0 0 0
2019/03/03 16:22:00 BASE 0.05 293 1.95 27 1.9 100 1.9 221 0 991.6 NA 0.0000 9999 2990 0 0 0
2019/03/03 16:23:00 BASE 0.05 287 1.95 27 1.9 100 1.9 216 0 991.6 NA 0.0000 9999 2920 0 0 0
2019/03/03 16:24:00 BASE 0.00 264 1.95 27 1.9 100 1.9 208 0 991.6 NA 0.0000 9999 2950 0 0 0
2019/03/03 16:25:00 BASE 0.00 245 1.95 27 1.9 100 1.9 199 0 991.6 NA 0.0000 9999 2850 0 0 0
2019/03/03 16:26:00 BASE 0.00 252 1.95 27 1.9 100 1.9 191 0 991.6 NA 0.0000 9999 2790 0 0 0
2019/03/03 16:27:00 BASE 0.00 249 1.75 28 1.8 100 1.8 185 0 991.5 NA 0.0000 9999 2820 0 0 0
2019/03/03 16:28:00 BASE 0.00 240 1.39 49 1.8 100 1.8 183 0 991.5 NA 0.0000 9999 2820 0 0 0
2019/03/03 16:29:00 BASE 0.00 222 1.29 316 1.8 100 1.8 186 0 991.6 NA 0.0000 9999 2790 0 0 0
2019/03/03 16:30:00 BASE 0.00 206 1.29 316 1.9 100 1.9 190 0 991.6 NA 0.0000 9999 2790 0 0 0
2019/03/03 16:31:00 BASE 0.13 245 1.29 316 1.9 100 1.9 195 0 991.5 NA 0.0000 9999 2820 0 0 0
2019/03/03 16:32:00 BASE 0.58 276 1.44 283 2.0 100 2.0 196 0 991.5 NA 0.0000 9999 2820 0 0 0
2019/03/03 16:33:00 BASE 0.50 264 1.44 283 2.0 100 2.0 196 0 991.5 NA 0.0000 9999 2820 0 0 0
2019/03/03 16:34:00 BASE 0.05 263 1.44 283 2.0 100 2.0 194 0 991.5 NA 0.0000 9999 2790 0 0 0
2019/03/03 16:35:00 BASE 0.56 256 2.26 220 1.9 100 1.9 191 0 991.6 NA 0.0000 9999 2890 0 0 0
2019/03/03 16:36:00 BASE 1.67 234 2.52 224 1.8 100 1.8 185 0 991.6 NA 0.0000 9999 2850 0 0 0
2019/03/03 16:37:00 BASE 2.06 230 2.52 224 1.8 100 1.8 180 0 991.6 NA 0.0000 9999 2820 0 0 0
2019/03/03 16:38:00 BASE 1.59 241 2.52 224 1.7 100 1.7 172 0 991.6 NA 0.0000 9999 2820 0 0 0
2019/03/03 16:39:00 BASE 1.46 254 2.52 224 1.7 100 1.7 163 0 991.6 NA 0.0000 9999 2820 0 0 0
2019/03/03 16:40:00 BASE 1.76 263 2.52 224 1.7 100 1.7 155 0 991.6 NA 0.0000 9999 2820 0 0 0
2019/03/03 16:41:00 BASE 2.24 264 2.88 270 1.7 100 1.7 149 0 991.6 NA 0.0000 9999 2820 0 0 0
2019/03/03 16:42:00 BASE 2.97 274 3.91 282 1.7 100 1.7 146 0 991.6 NA 0.0000 9999 2820 0 0 0
2019/03/03 16:43:00 BASE 3.56 292 4.06 306 1.7 100 1.7 147 0 991.6 NA 0.0000 9999 2890 0 0 0
2019/03/03 16:44:00 BASE 4.13 303 4.89 310 1.7 100 1.7 149 0 991.6 NA 0.0000 9999 2920 0 0 0
2019/03/03 16:45:00 BASE 4.50 309 4.99 310 1.7 100 1.7 152 0 991.6 NA 0.0000 9999 2920 0 0 0
2019/03/03 16:46:00 BASE 4.76 310 6.17 304 1.7 100 1.7 156 0 991.6 NA 0.0000 9999 2890 19720 20470 0
2019/03/03 16:47:00 BASE 5.58 307 6.53 310 1.7 100 1.7 161 0 991.5 NA 0.0000 9999 2890 0 0 0
2019/03/03 16:48:00 BASE 6.51 306 7.15 311 1.6 100 1.6 166 0 991.5 NA 0.0000 9999 2920 0 0 0
2019/03/03 16:49:00 BASE 6.72 311 7.15 311 1.5 100 1.5 171 0 991.5 NA 0.0000 9999 2990 0 0 0
2019/03/03 16:50:00 BASE 6.46 315 7.15 311 1.4 100 1.4 175 0 991.5 NA 0.0000 9999 2890 0 0 0
2019/03/03 16:51:00 BASE 6.28 319 7.15 311 1.3 100 1.3 179 0 991.5 NA 0.0000 9999 2950 0 0 0
2019/03/03 16:52:00 BASE 5.98 319 7.15 311 1.2 100 1.2 184 0 991.5 NA 0.0000 9999 2990 0 0 0
2019/03/03 16:53:00 BASE 5.89 321 7.15 311 1.1 100 1.1 190 0 991.4 NA 0.0000 9999 2850 0 0 0
2019/03/03 16:54:00 BASE 5.87 328 7.15 311 1.1 100 1.1 198 0 991.4 NA 0.0000 9999 2920 0 0 0
2019/03/03 16:55:00 BASE 5.69 332 7.15 311 1.2 100 1.2 205 0 991.3 NA 0.0000 9999 2920 0 0 0
2019/03/03 16:56:00 BASE 5.15 331 7.15 311 1.3 100 1.3 210 0 991.3 NA 0.0000 9999 2890 0 0 0
2019/03/03 16:57:00 BASE 5.09 329 7.15 311 1.3 100 1.3 210 0 991.2 NA 0.0000 9999 2820 0 0 0
2019/03/03 16:58:00 BASE 5.12 329 6.79 310 1.4 100 1.4 207 0 991.2 NA 0.0000 9999 2820 0 0 0
2019/03/03 16:59:00 BASE 4.60 330 6.74 315 1.5 100 1.5 203 0 991.2 NA 0.0000 9999 2820 0 0 0
2019/03/03 17:00:00 BASE 4.21 334 6.48 333 1.5 100 1.5 201 0 991.2 NA 0.0000 9999 2790 0 0 0
2019/03/03 17:01:00 BASE 3.64 335 6.48 333 1.5 100 1.5 202 0 991.3 NA 0.0000 9999 2760 0 0 0
2019/03/03 17:02:00 BASE 3.45 336 6.48 333 1.5 100 1.5 200 0 991.3 NA 0.0000 9999 2760 0 0 0
2019/03/03 17:03:00 BASE 3.83 338 6.38 327 1.5 100 1.5 195 0 991.3 NA 0.0000 9999 2760 0 0 0
2019/03/03 17:04:00 BASE 4.21 337 6.17 333 1.5 100 1.5 190 0 991.3 NA 0.0000 9999 2760 0 0 0
2019/03/03 17:05:00 BASE 4.31 335 5.97 337 1.5 100 1.5 187 0 991.3 NA 0.0000 9999 2760 0 0 0
2019/03/03 17:06:00 BASE 5.20 335 6.58 335 1.4 100 1.4 185 0 991.3 NA 0.0000 9999 2760 0 0 0
2019/03/03 17:07:00 BASE 6.21 335 6.69 335 1.4 100 1.4 183 0 991.3 NA 0.0000 9999 2720 0 0 0
2019/03/03 17:08:00 BASE 6.08 333 6.69 335 1.5 100 1.5 182 0 991.3 NA 0.0000 9999 2690 0 0 0
2019/03/03 17:09:00 BASE 5.83 334 6.69 335 1.5 100 1.5 182 0 991.3 NA 0.0000 9999 2690 23130 0 0
2019/03/03 17:10:00 BASE 5.47 337 6.69 335 1.5 100 1.5 183 0 991.3 NA 0.0000 9999 2720 0 0 0
2019/03/03 17:11:00 BASE 4.89 338 6.69 335 1.5 100 1.5 187 0 991.3 NA 0.0000 9999 2760 21130 0 0
2019/03/03 17:12:00 BASE 4.74 339 6.69 335 1.5 100 1.5 191 0 991.3 NA 0.0000 9999 2760 0 0 0
2019/03/03 17:13:00 BASE 4.68 340 6.69 335 1.5 100 1.5 194 0 991.3 NA 0.0000 9999 2760 0 0 0
2019/03/03 17:14:00 BASE 4.55 341 6.69 335 1.5 100 1.5 195 0 991.3 NA 0.0000 9999 2720 0 0 0
2019/03/03 17:15:00 BASE 4.65 340 6.69 335 1.5 100 1.5 195 0 991.2 NA 0.0000 9999 2790 0 0 0
2019/03/03 17:16:00 BASE 5.13 338 6.69 335 1.6 100 1.6 193 0 991.2 NA 0.0000 9999 2760 0 0 0
2019/03/03 17:17:00 BASE 5.85 336 6.38 335 1.6 100 1.6 187 0 991.2 NA 0.0000 9999 2760 0 0 0
2019/03/03 17:18:00 BASE 6.34 335 6.74 336 1.6 100 1.6 180 0 991.2 NA 0.0000 9999 2760 0 0 0
2019/03/03 17:19:00 BASE 6.86 336 7.72 337 1.6 100 1.6 172 0 991.2 NA 0.0000 9999 2790 0 0 0
2019/03/03 17:20:00 BASE 7.34 338 7.77 336 1.6 100 1.6 167 0 991.2 NA 0.0000 9999 2820 0 0 0
2019/03/03 17:21:00 BASE 7.59 338 7.97 338 1.6 100 1.6 163 0 991.2 NA 0.0000 9999 2820 0 0 0
2019/03/03 17:22:00 BASE 7.91 338 8.64 337 1.6 100 1.6 161 0 991.2 NA 0.0000 9999 2850 0 0 0
2019/03/03 17:23:00 BASE 8.24 339 8.95 344 1.6 100 1.6 159 0 991.2 NA 0.0000 9999 2820 0 0 0
2019/03/03 17:24:00 BASE 8.63 340 9.36 339 1.6 100 1.6 158 0 991.2 NA 0.0000 9999 2850 0 0 0
2019/03/03 17:25:00 BASE 9.02 341 9.62 339 1.6 100 1.6 157 0 991.2 NA 0.0000 9999 2820 0 0 0
2019/03/03 17:26:00 BASE 9.32 341 9.93 341 1.6 100 1.6 156 0 991.2 NA 0.0000 9999 2890 0 0 0
2019/03/03 17:27:00 BASE 9.73 341 10.34 341 1.6 100 1.6 155 0 991.2 NA 0.0000 9999 2890 0 0 0
2019/03/03 17:28:00 BASE 9.82 341 10.34 341 1.6 100 1.6 155 0 991.2 NA 0.0000 9999 2820 0 0 0
2019/03/03 17:29:00 BASE 9.69 341 10.34 341 1.6 100 1.6 154 0 991.2 NA 0.0000 9999 2850 0 0 0
2019/03/03 17:30:00 BASE 9.61 340 10.34 338 1.6 100 1.6 155 0 991.2 NA 0.0000 9999 2920 0 0 0
2019/03/03 17:31:00 BASE 9.64 340 10.34 338 1.6 100 1.6 157 0 991.2 NA 0.0000 9999 2950 0 0 0
2019/03/03 17:32:00 BASE 9.72 341 10.44 339 1.6 100 1.6 162 0 991.2 NA 0.0000 9999 2950 0 0 0
2019/03/03 17:33:00 BASE 9.40 342 10.44 339 1.5 100 1.5 167 0 991.3 NA 0.0000 9999 2850 0 0 0
2019/03/03 17:34:00 BASE 9.08 342 10.44 339 1.5 100 1.5 169 0 991.3 NA 0.0000 9999 2850 0 0 0
2019/03/03 17:35:00 BASE 8.73 343 10.44 339 1.6 100 1.6 168 0 991.3 NA 0.0000 9999 2890 0 0 0
2019/03/03 17:36:00 BASE 8.49 343 10.44 339 1.6 100 1.6 166 0 991.3 NA 0.0000 9999 2920 0 0 0
2019/03/03 17:37:00 BASE 8.46 344 10.44 339 1.6 100 1.6 165 0 991.3 NA 0.0000 9999 2950 0 0 0
2019/03/03 17:38:00 BASE 8.09 342 10.44 339 1.6 100 1.6 167 0 991.3 NA 0.0000 9999 2950 0 0 0
2019/03/03 17:39:00 BASE 7.88 343 10.44 339 1.6 100 1.6 172 0 991.3 NA 0.0000 9999 3020 0 0 0
2019/03/03 17:40:00 BASE 7.96 347 10.44 339 1.6 100 1.6 176 0 991.2 NA 0.0000 9999 2950 0 0 0
2019/03/03 17:41:00 BASE 7.97 348 10.44 339 1.5 100 1.5 180 0 991.3 NA 0.0000 9999 2950 0 0 0
2019/03/03 17:42:00 BASE 7.90 347 9.83 344 1.5 100 1.5 187 0 991.3 NA 0.0000 9999 2920 0 0 0
2019/03/03 17:43:00 BASE 8.05 348 9.83 344 1.5 100 1.5 194 0 991.3 NA 0.0000 9999 2920 0 0 0
2019/03/03 17:44:00 BASE 8.10 348 9.05 344 1.5 100 1.5 202 0 991.2 NA 0.0000 9999 2920 0 0 0
2019/03/03 17:45:00 BASE 7.73 349 9.05 344 1.5 100 1.5 211 0 991.2 NA 0.0000 9999 2890 0 0 0
2019/03/03 17:46:00 BASE 7.43 350 9.05 344 1.5 100 1.5 220 0 991.2 NA 0.0000 9999 2890 0 0 0
2019/03/03 17:47:00 BASE 6.93 347 8.49 345 1.5 100 1.5 231 0 991.2 NA 0.0000 9999 2850 0 0 0
2019/03/03 17:48:00 BASE 6.47 348 8.49 345 1.5 100 1.5 246 0 991.2 NA 0.0000 9999 2820 0 0 0
2019/03/03 17:49:00 BASE 6.54 349 8.49 345 1.5 100 1.5 261 0 991.2 NA 0.0000 9999 2820 0 0 0
2019/03/03 17:50:00 BASE 6.51 350 8.49 345 1.5 100 1.5 278 0 991.2 NA 0.0000 9999 2760 3580 0 0
2019/03/03 17:51:00 BASE 6.30 350 8.49 345 1.5 100 1.5 288 0 991.2 NA 0.0000 9999 2720 4950 0 0
2019/03/03 17:52:00 BASE 6.18 348 8.49 345 1.6 100 1.6 292 0 991.2 NA 0.0000 9999 3640 4950 0 0
2019/03/03 17:53:00 BASE 5.84 348 8.23 345 1.6 100 1.6 295 0 991.1 NA 0.0000 9999 3640 4920 0 0
2019/03/03 17:54:00 BASE 5.74 348 8.08 349 1.6 100 1.6 296 0 991.0 NA 0.0000 9999 3710 4990 0 0
2019/03/03 17:55:00 BASE 5.94 347 8.08 349 1.7 100 1.7 294 0 991.0 NA 0.0000 9999 3670 0 0 0
2019/03/03 17:56:01 BASE 6.48 343 8.28 329 1.7 100 1.7 292 0 991.0 NA 0.0000 9999 1050 4920 0 0
2019/03/03 17:57:00 BASE 6.63 340 8.28 329 1.7 100 1.7 288 0 991.0 NA 0.0000 9999 1120 4860 0 0
2019/03/03 17:58:00 BASE 5.83 342 8.28 329 1.8 100 1.8 282 0 991.0 NA 0.0000 9999 1120 4820 21390 0
2019/03/03 17:59:00 BASE 6.02 342 8.28 329 1.9 100 1.9 284 0 991.0 NA 0.0000 9999 1180 4990 0 0
2019/03/03 18:00:00 BASE 6.09 335 8.28 329 1.9 100 1.9 289 0 991.0 NA 0.0000 9999 1150 5090 0 0
2019/03/03 18:01:00 BASE 5.66 331 8.28 329 2.0 100 2.0 295 0 991.0 NA 0.0000 9999 1080 5120 0 0
2019/03/03 18:02:00 BASE 5.84 335 8.28 329 2.1 100 2.1 298 0 991.0 NA 0.0000 9999 1080 5120 0 0
2019/03/03 18:03:00 BASE 5.94 332 8.28 329 2.2 100 2.1 302 0 991.0 NA 0.0000 9999 1080 5090 0 0
2019/03/03 18:04:00 BASE 5.78 330 8.28 329 2.2 100 2.2 308 0 991.0 NA 0.0000 9999 1080 4950 0 0
2019/03/03 18:05:00 BASE 5.53 334 8.28 329 2.3 99 2.2 316 0 991.0 NA 0.0000 9999 4990 0 0 0
2019/03/03 18:06:01 BASE 5.32 338 8.13 329 2.4 99 2.2 322 0 991.0 NA 0.0000 9999 5090 0 0 0
2019/03/03 18:07:00 BASE 5.03 342 8.13 329 2.4 98 2.2 327 0 991.0 NA 0.0000 9999 5090 19620 23590 0
2019/03/03 18:08:00 BASE 5.22 344 8.13 329 2.5 98 2.2 336 0 991.0 NA 0.0000 9999 5090 0 0 0
2019/03/03 18:09:00 BASE 5.05 345 7.36 322 2.5 97 2.1 349 0 990.9 NA 0.0000 9999 4920 0 0 0
2019/03/03 18:10:00 BASE 4.72 343 7.36 322 2.5 97 2.1 350 0 990.9 NA 0.0000 9999 4890 0 0 0
2019/03/03 18:11:00 BASE 4.94 338 7.36 322 2.5 97 2.0 350 0 990.9 NA 0.0000 9999 4760 0 0 0
2019/03/03 18:12:00 BASE 4.83 338 7.36 322 2.5 97 2.0 347 0 990.9 NA 0.0000 9999 4590 0 0 0
2019/03/03 18:13:00 BASE 4.67 341 6.69 338 2.5 96 2.0 337 0 990.9 NA 0.0000 9999 5020 0 0 0
2019/03/03 18:14:00 BASE 4.83 341 6.69 338 2.6 96 2.1 323 0 990.9 NA 0.0000 9999 5020 0 0 0
2019/03/03 18:15:00 BASE 4.82 338 6.69 338 2.7 96 2.1 314 0 990.9 NA 0.0000 9999 1020 5020 0 0
2019/03/03 18:16:00 BASE 4.39 335 6.69 338 2.7 96 2.2 308 0 991.0 NA 0.0000 9999 1020 0 0 0
2019/03/03 18:17:00 BASE 4.31 335 6.69 338 2.8 96 2.2 307 0 991.0 NA 0.0000 9999 1020 0 0 0
2019/03/03 18:18:00 BASE 4.02 336 5.76 348 2.8 96 2.2 302 0 990.9 NA 0.0000 9999 1050 0 0 0
2019/03/03 18:19:00 BASE 3.51 338 5.76 348 2.8 96 2.2 289 0 990.9 NA 0.0000 9999 1050 0 0 0
2019/03/03 18:20:00 BASE 3.51 338 5.76 348 2.7 96 2.1 277 0 990.9 NA 0.0000 9999 1020 0 0 0
2019/03/03 18:21:00 BASE 3.63 335 5.76 348 2.7 96 2.1 274 0 990.9 NA 0.0000 9999 1020 5090 0 0
2019/03/03 18:22:00 BASE 4.20 339 5.76 348 2.7 96 2.1 279 0 990.9 NA 0.0000 9999 980 0 0 0
2019/03/03 18:23:00 BASE 4.65 340 5.76 348 2.7 96 2.1 289 0 990.9 NA 0.0000 9999 980 5050 0 0
2019/03/03 18:24:00 BASE 4.42 343 5.76 348 2.6 97 2.2 304 0 990.8 NA 0.0000 9999 980 5050 0 0
2019/03/03 18:25:00 BASE 4.18 351 5.76 348 2.7 97 2.2 316 0 990.8 NA 0.0000 9999 950 5120 0 0
2019/03/03 18:26:00 BASE 3.84 360 5.76 348 2.6 97 2.2 322 0 990.8 NA 0.0000 9999 950 5120 0 0
2019/03/03 18:27:00 BASE 3.79 2 5.35 338 2.6 97 2.2 327 0 990.7 NA 0.0000 9999 950 5090 0 0
2019/03/03 18:28:00 BASE 4.09 360 5.35 338 2.6 97 2.2 335 0 990.7 NA 0.0000 9999 920 4990 0 0
2019/03/03 18:29:00 BASE 4.37 2 5.35 338 2.6 97 2.3 347 0 990.7 NA 0.0000 9999 920 5120 0 0
2019/03/03 18:30:00 BASE 4.38 360 5.35 338 2.6 98 2.3 378 0 990.6 NA 0.0000 9999 890 5020 0 0
2019/03/03 18:31:00 BASE 4.25 358 5.35 338 2.7 98 2.3 379 0 990.5 NA 0.0000 9999 5050 0 0 0
2019/03/03 18:32:00 BASE 4.44 355 5.25 347 2.7 98 2.4 402 0 990.5 NA 0.0000 9999 5020 0 0 0
2019/03/03 18:33:00 BASE 4.52 351 5.25 347 2.7 98 2.4 415 0 990.5 NA 0.0000 9999 5050 0 0 0
2019/03/03 18:34:00 BASE 4.51 1 5.25 347 2.7 98 2.4 381 0 990.5 NA 0.0000 9999 5120 0 0 0
2019/03/03 18:35:00 BASE 4.48 6 5.25 347 2.7 98 2.4 375 0 990.5 NA 0.0000 9999 5050 0 0 0
2019/03/03 18:36:00 BASE 4.20 3 5.25 347 2.7 98 2.4 358 0 990.5 NA 0.0000 9999 4920 0 0 0
2019/03/03 18:37:00 BASE 4.00 1 5.25 347 2.7 98 2.4 334 0 990.5 NA 0.0000 9999 5050 0 0 0
2019/03/03 18:38:00 BASE 4.03 1 5.25 347 2.6 98 2.4 316 0 990.5 NA 0.0000 9999 4990 0 0 0
2019/03/03 18:39:00 BASE 4.18 2 5.25 347 2.6 98 2.4 312 0 990.5 NA 0.0000 9999 4990 0 0 0
2019/03/03 18:40:00 BASE 4.31 359 5.25 347 2.6 99 2.5 298 0 990.5 NA 0.0000 9999 4560 4950 0 0
2019/03/03 18:41:00 BASE 4.19 357 5.25 347 2.7 99 2.5 280 0 990.5 NA 0.0000 9999 4790 0 0 0
2019/03/03 18:42:00 BASE 3.75 2 5.09 271 2.7 99 2.6 272 0 990.5 NA 0.0000 9999 4790 0 0 0
2019/03/03 18:43:00 BASE 3.20 4 4.78 353 2.8 100 2.7 273 0 990.6 NA 0.0000 9999 4890 0 0 0
2019/03/03 18:44:00 BASE 2.82 5 4.78 353 2.8 100 2.8 270 0 990.6 NA 0.0000 9999 5020 0 0 0
2019/03/03 18:45:00 BASE 2.71 7 4.78 353 2.8 99 2.7 268 0 990.6 NA 0.0000 9999 5050 0 0 0
2019/03/03 18:46:00 BASE 2.70 3 4.78 353 2.8 99 2.7 268 0 990.6 NA 0.0000 9999 5020 0 0 0
2019/03/03 18:47:00 BASE 2.72 359 4.78 353 2.8 99 2.8 274 0 990.5 NA 0.0000 9999 4660 0 0 0
2019/03/03 18:48:00 BASE 2.82 356 4.78 353 2.8 99 2.7 283 0 990.5 NA 0.0000 9999 4590 0 0 0
2019/03/03 18:49:00 BASE 3.00 351 4.78 353 2.8 99 2.7 282 0 990.5 NA 0.0000 9999 4530 0 0 0
2019/03/03 18:50:00 BASE 3.03 351 4.42 1 2.8 99 2.7 284 0 990.4 NA 0.0000 9999 4660 0 0 0
2019/03/03 18:51:00 BASE 2.92 1 4.01 360 2.8 99 2.7 283 0 990.4 NA 0.0000 9999 4590 22080 0 0
2019/03/03 18:52:00 BASE 2.78 3 3.29 208 2.8 99 2.7 275 0 990.4 NA 0.0000 9999 4630 24080 0 0
2019/03/03 18:53:00 BASE 2.40 1 3.29 208 2.8 99 2.7 263 0 990.4 NA 0.0000 9999 4720 0 0 0
2019/03/03 18:54:00 BASE 1.96 3 3.29 208 2.8 99 2.7 248 0 990.4 NA 0.0000 9999 4760 0 0 0
2019/03/03 18:55:00 BASE 1.69 6 3.29 208 2.8 99 2.7 236 0 990.4 NA 0.0000 9999 4660 0 0 0
2019/03/03 18:56:00 BASE 1.70 15 3.29 208 2.8 99 2.6 229 0 990.4 NA 0.0000 9999 4660 0 0 0
2019/03/03 18:57:00 BASE 1.92 23 3.29 208 2.7 99 2.6 225 0 990.4 NA 0.0000 9999 4660 0 0 0
2019/03/03 18:58:00 BASE 2.07 20 3.29 208 2.7 100 2.6 223 0 990.3 NA 0.0000 9999 4490 0 0 0
2019/03/03 18:59:00 BASE 2.08 15 3.19 1 2.6 100 2.6 221 0 990.3 NA 0.0000 9999 4560 0 0 0
2019/03/03 19:00:00 BASE 2.00 16 3.19 1 2.6 100 2.6 225 0 990.4 NA 0.0000 9999 4560 0 0 0
2019/03/03 19:01:00 BASE 1.88 19 3.19 1 2.6 100 2.6 232 0 990.4 NA 0.0000 9999 4590 0 0 0
2019/03/03 19:02:00 BASE 1.75 16 2.52 360 2.7 100 2.7 240 0 990.3 NA 0.0000 9999 4590 0 0 0
2019/03/03 19:03:00 BASE 1.69 14 2.42 16 2.7 100 2.7 245 0 990.3 NA 0.0000 9999 4530 21560 0 0
2019/03/03 19:04:00 BASE 1.23 13 2.42 16 2.7 100 2.7 246 0 990.2 NA 0.0000 9999 4560 0 0 0
2019/03/03 19:05:00 BASE 0.51 16 2.42 16 2.7 100 2.7 242 0 990.2 NA 0.0000 9999 4560 0 0 0
2019/03/03 19:06:00 BASE 0.13 19 2.42 16 2.7 100 2.7 234 0 990.2 NA 0.0000 9999 4430 19720 20180 0
2019/03/03 19:07:00 BASE 0.05 13 2.42 16 2.7 100 2.7 225 0 990.2 NA 0.0000 9999 4430 0 0 0
2019/03/03 19:08:00 BASE 0.28 1 2.42 16 2.7 100 2.7 217 0 990.2 NA 0.0000 9999 4430 0 0 0
2019/03/03 19:09:00 BASE 1.04 353 2.42 16 2.7 100 2.7 212 0 990.2 NA 0.0000 9999 4360 0 0 0
2019/03/03 19:10:00 BASE 1.86 358 2.52 5 2.7 100 2.7 215 0 990.2 NA 0.0000 9999 4330 0 0 0
2019/03/03 19:11:00 BASE 1.90 3 2.52 5 2.7 100 2.7 227 0 990.1 NA 0.0000 9999 4300 0 0 0
2019/03/03 19:12:00 BASE 1.42 356 2.52 5 2.7 100 2.7 241 0 990.1 NA 0.0000 9999 4300 0 0 0
2019/03/03 19:13:00 BASE 0.62 347 2.52 5 2.7 100 2.7 252 0 990.1 NA 0.0000 9999 4430 0 0 0
2019/03/03 19:14:00 BASE 0.04 345 2.52 5 2.7 100 2.7 250 0 990.0 NA 0.0000 9999 4400 0 0 0
2019/03/03 19:15:00 BASE 0.00 355 2.52 5 2.7 100 2.7 234 0 989.9 NA 0.0000 9999 4400 0 0 0
2019/03/03 19:16:00 BASE 0.04 12 2.52 5 2.7 100 2.7 222 0 989.9 NA 0.0000 9999 4330 0 0 0
2019/03/03 19:17:00 BASE 0.04 35 2.52 5 2.7 100 2.7 203 0 989.9 NA 0.0000 9999 4400 0 0 0
2019/03/03 19:18:00 BASE 0.52 49 2.52 5 2.8 100 2.8 182 0 989.9 NA 0.0000 9999 4430 0 0 0
2019/03/03 19:19:00 BASE 0.76 52 2.52 5 2.9 100 2.9 166 0 989.9 NA 0.0000 9999 4400 0 0 0
2019/03/03 19:20:00 BASE 0.65 55 2.01 354 3.0 100 3.0 162 0 989.9 NA 0.0000 9999 4330 0 0 0
2019/03/03 19:21:00 BASE 0.80 50 1.85 350 3.0 100 3.0 166 0 989.9 NA 0.0000 9999 4330 0 0 0
2019/03/03 19:22:00 BASE 0.39 42 1.59 32 3.0 100 3.0 172 0 989.8 NA 0.0000 9999 4330 0 0 0
2019/03/03 19:23:00 BASE 0.00 45 1.59 32 3.0 100 3.0 173 0 989.8 NA 0.0000 9999 4400 0 0 0
2019/03/03 19:24:00 BASE 0.25 77 1.59 32 3.0 100 2.9 168 0 989.8 NA 0.0000 9999 4400 0 0 0
2019/03/03 19:25:00 BASE 1.03 109 2.11 104 3.0 100 3.0 160 0 989.8 NA 0.0000 9999 4360 0 0 0
2019/03/03 19:26:00 BASE 1.35 118 2.11 104 3.0 100 3.0 160 0 989.8 NA 0.0000 9999 4330 0 0 0
2019/03/03 19:27:00 BASE 1.15 118 2.11 104 3.1 100 3.1 161 0 989.8 NA 0.0000 9999 4360 0 0 0
2019/03/03 19:28:00 BASE 1.06 109 2.11 104 3.1 100 3.1 153 0 989.8 NA 0.0000 9999 4400 0 0 0
2019/03/03 19:29:00 BASE 0.63 106 2.11 104 3.1 100 3.1 135 0 989.8 NA 0.0000 9999 4330 0 0 0
2019/03/03 19:30:00 BASE 0.68 111 2.11 104 3.1 100 3.1 121 0 989.8 NA 0.0000 9999 4360 0 0 0
2019/03/03 19:31:00 BASE 1.72 118 2.83 112 3.0 100 3.0 114 0 989.8 NA 0.0000 9999 4300 0 0 0
2019/03/03 19:32:00 BASE 2.17 131 2.83 112 3.0 100 3.0 115 0 989.8 NA 0.0000 9999 4300 0 0 0
2019/03/03 19:33:00 BASE 2.71 135 4.06 132 3.0 100 3.0 119 0 989.8 NA 0.0000 9999 4330 0 0 0
2019/03/03 19:34:00 BASE 3.95 134 5.25 138 2.9 100 2.9 121 0 989.8 NA 0.0000 9999 4270 0 0 0
2019/03/03 19:35:00 BASE 4.26 137 5.25 138 2.7 100 2.7 121 0 989.8 NA 0.0000 9999 4300 0 0 0
2019/03/03 19:36:00 BASE 4.20 140 5.25 138 2.6 100 2.6 121 0 989.8 NA 0.0000 9999 4270 0 0 0
2019/03/03 19:37:00 BASE 5.24 141 7.61 137 2.4 100 2.4 122 0 989.8 NA 0.0000 9999 4270 0 0 0
2019/03/03 19:38:00 BASE 6.54 137 7.77 134 2.3 100 2.3 124 0 989.7 NA 0.0000 9999 4270 0 0 0
2019/03/03 19:39:00 BASE 7.12 136 8.08 136 2.2 100 2.2 128 0 989.7 NA 0.0000 9999 4270 0 0 0
2019/03/03 19:40:00 BASE 7.42 136 8.54 135 2.1 100 2.1 134 0 989.7 NA 0.0000 9999 4330 0 0 0
2019/03/03 19:41:00 BASE 7.79 135 9.41 133 2.0 100 2.0 140 0 989.7 NA 0.0000 9999 4230 0 0 0
2019/03/03 19:42:00 BASE 8.05 133 9.41 133 2.0 100 2.0 143 0 989.6 NA 0.0000 9999 4300 0 0 0
2019/03/03 19:43:00 BASE 8.46 131 9.62 123 2.0 100 2.0 146 0 989.6 NA 0.0000 9999 4300 0 0 0
2019/03/03 19:44:00 BASE 8.87 130 10.44 124 2.0 100 2.0 154 0 989.6 NA 0.0000 9999 4330 0 0 0
2019/03/03 19:45:00 BASE 8.67 131 10.44 124 2.0 100 2.0 165 0 989.5 NA 0.0000 9999 4360 0 0 0
2019/03/03 19:46:00 BASE 8.14 132 10.44 124 2.0 100 2.0 166 0 989.5 NA 0.0000 9999 4360 0 0 0
2019/03/03 19:47:00 BASE 7.50 132 10.44 124 2.0 100 2.0 166 0 989.5 NA 0.0000 9999 4270 0 0 0
2019/03/03 19:48:00 BASE 7.53 130 10.44 124 2.0 100 2.0 169 0 989.4 NA 0.0000 9999 4360 0 0 0
2019/03/03 19:49:00 BASE 8.03 129 10.44 124 2.1 100 2.1 177 0 989.4 NA 0.0000 9999 4400 0 0 0
2019/03/03 19:50:00 BASE 8.00 130 10.44 124 2.1 100 2.1 185 0 989.4 NA 0.0000 9999 4430 0 0 0
2019/03/03 19:51:00 BASE 7.96 131 10.44 124 2.1 100 2.1 194 0 989.4 NA 0.0000 9999 4330 0 0 0
2019/03/03 19:52:00 BASE 8.12 133 10.44 124 2.1 100 2.1 206 0 989.4 NA 0.0000 9999 4360 0 0 0
2019/03/03 19:53:00 BASE 8.17 134 10.44 124 2.1 100 2.1 212 0 989.4 NA 0.0000 9999 4360 0 0 0
2019/03/03 19:54:00 BASE 8.19 136 9.77 133 2.1 100 2.1 215 0 989.4 NA 0.0000 9999 4330 0 0 0
2019/03/03 19:55:00 BASE 8.33 137 9.16 136 2.1 100 2.1 217 0 989.4 NA 0.0000 9999 4460 0 0 0
2019/03/03 19:56:00 BASE 8.40 137 9.16 136 2.1 100 2.1 211 0 989.4 NA 0.0000 9999 4430 0 0 0
2019/03/03 19:57:00 BASE 7.89 138 9.16 136 2.1 100 2.1 202 0 989.4 NA 0.0000 9999 4460 0 0 0
2019/03/03 19:58:00 BASE 7.55 139 9.16 136 2.0 100 2.0 196 0 989.4 NA 0.0000 9999 4490 0 0 0
2019/03/03 19:59:00 BASE 7.95 138 9.16 136 2.0 100 2.0 191 0 989.3 NA 0.0000 9999 4530 0 0 0
2019/03/03 20:00:00 BASE 8.41 139 9.16 136 2.0 100 2.0 184 0 989.3 NA 0.0000 9999 4460 0 0 0
2019/03/03 20:01:00 BASE 8.16 140 9.16 136 2.0 100 2.0 179 0 989.2 NA 0.0000 9999 4170 0 0 0
2019/03/03 20:02:00 BASE 7.56 140 9.16 136 2.0 100 2.0 178 0 989.2 NA 0.0000 9999 4300 0 0 0
2019/03/03 20:03:00 BASE 7.12 139 9.11 135 2.0 100 2.0 180 0 989.2 NA 0.0000 9999 10930 0 0 0
2019/03/03 20:04:00 BASE 6.62 142 9.11 135 1.9 100 1.9 181 0 989.2 NA 0.0000 9999 4230 0 0 0
2019/03/03 20:05:00 BASE 6.35 146 8.95 140 2.0 100 2.0 176 0 989.2 NA 0.0000 9999 4460 0 0 0
2019/03/03 20:06:00 BASE 7.19 147 8.90 138 2.0 100 2.0 166 0 989.2 NA 0.0000 9999 4360 0 0 0
2019/03/03 20:07:00 BASE 7.68 146 8.90 138 2.1 100 2.1 156 0 989.2 NA 0.0000 9999 4170 0 0 0
2019/03/03 20:08:00 BASE 7.49 146 8.90 138 2.1 100 2.1 148 0 989.1 NA 0.0000 9999 4130 0 0 0
2019/03/03 20:09:00 BASE 7.45 147 8.90 138 2.1 100 2.1 143 0 989.1 NA 0.0000 9999 4200 0 0 0
2019/03/03 20:10:00 BASE 7.37 146 8.64 147 2.1 100 2.1 139 0 989.1 NA 0.0000 9999 4490 0 0 0
2019/03/03 20:11:00 BASE 7.71 146 8.64 147 2.1 100 2.1 136 0 989.1 NA 0.0000 9999 9940 0 0 0
2019/03/03 20:12:00 BASE 7.69 145 8.64 147 2.1 100 2.1 134 0 989.0 NA 0.0000 9999 9880 0 0 0
2019/03/03 20:13:00 BASE 7.24 144 8.64 147 2.1 100 2.1 133 0 989.0 NA 0.0000 9999 9810 0 0 0
2019/03/03 20:14:00 BASE 7.51 143 8.64 147 2.1 100 2.1 132 0 989.0 NA 0.0000 9999 9780 0 0 0
2019/03/03 20:15:00 BASE 7.73 143 8.64 147 2.0 100 2.0 131 0 989.0 NA 0.0000 9999 9710 0 0 0
2019/03/03 20:16:00 BASE 7.57 144 8.49 144 2.0 100 2.0 129 0 988.9 NA 0.0000 9999 9740 0 0 0
2019/03/03 20:17:00 BASE 7.64 142 8.49 144 2.0 100 2.0 129 0 988.9 NA 0.0000 9999 9680 0 0 0
2019/03/03 20:18:00 BASE 7.55 138 8.49 144 2.0 100 2.0 128 0 988.9 NA 0.0000 9999 10990 0 0 0
2019/03/03 20:19:00 BASE 7.39 136 8.49 144 2.0 100 2.0 128 0 989.0 NA 0.0000 9999 9710 10960 0 0
2019/03/03 20:20:00 BASE 6.50 135 8.49 144 2.0 100 2.0 130 0 989.0 NA 0.0000 9999 10960 0 0 0
2019/03/03 20:21:00 BASE 5.38 134 8.49 144 2.0 100 2.0 133 0 989.0 NA 0.0000 9999 10930 0 0 0
2019/03/03 20:22:00 BASE 5.36 135 8.39 144 2.0 100 2.0 138 0 988.9 NA 0.0000 9999 10960 0 0 0
2019/03/03 20:23:00 BASE 5.55 138 8.39 144 2.0 100 2.0 143 0 988.9 NA 0.0000 9999 10960 0 0 0
2019/03/03 20:24:00 BASE 5.58 141 8.39 144 2.0 100 2.0 145 0 988.8 NA 0.0000 9999 10930 0 0 0
2019/03/03 20:25:00 BASE 6.02 146 8.39 144 2.0 100 2.0 144 0 988.7 NA 0.0000 9999 11060 0 0 0
2019/03/03 20:26:00 BASE 6.30 149 8.39 144 2.0 100 2.0 137 0 988.7 NA 0.0000 9999 11160 0 0 0
2019/03/03 20:27:00 BASE 5.32 146 7.97 134 2.0 100 2.0 129 0 988.7 NA 0.0000 9999 11120 0 0 0
2019/03/03 20:28:00 BASE 4.06 142 7.97 134 2.1 100 2.1 120 0 988.7 NA 0.0000 9999 9650 0 0 0
2019/03/03 20:29:00 BASE 3.68 140 7.05 152 2.1 100 2.1 113 0 988.7 NA 0.0000 9999 9450 0 0 0
2019/03/03 20:30:00 BASE 3.48 136 7.05 152 2.1 100 2.1 108 0 988.7 NA 0.0000 9999 9420 0 0 0
2019/03/03 20:31:00 BASE 3.16 131 7.05 152 2.2 100 2.2 105 0 988.7 NA 0.0000 9999 9420 0 0 0
2019/03/03 20:32:00 BASE 2.64 129 7.05 152 2.2 100 2.2 102 0 988.7 NA 0.0000 9999 9480 0 0 0
2019/03/03 20:33:00 BASE 1.80 117 7.05 152 2.2 100 2.2 100 0 988.7 NA 0.0000 9999 9580 0 0 0
2019/03/03 20:34:00 BASE 0.91 82 7.05 152 2.3 100 2.3 100 0 988.7 NA 0.0000 9999 9510 0 0 0
2019/03/03 20:35:00 BASE 0.78 41 6.58 148 2.3 100 2.3 102 0 988.7 NA 0.0000 9999 9480 0 0 0
2019/03/03 20:36:00 BASE 1.71 18 5.66 152 2.3 100 2.3 107 0 988.7 NA 0.0000 9999 9650 0 0 0
2019/03/03 20:37:00 BASE 2.34 359 4.27 132 2.3 100 2.3 114 0 988.6 NA 0.0000 9999 9680 0 0 0
2019/03/03 20:38:00 BASE 2.16 350 4.22 130 2.2 100 2.2 122 0 988.5 NA 0.0000 9999 9780 0 0 0
2019/03/03 20:39:00 BASE 1.53 349 3.76 130 2.1 100 2.1 129 0 988.5 NA 0.0000 9999 9480 0 0 0
2019/03/03 20:40:00 BASE 1.32 6 3.76 130 2.1 100 2.1 133 0 988.5 NA 0.0000 9999 9120 0 0 0
2019/03/03 20:41:00 BASE 1.10 16 2.98 355 2.0 100 2.0 133 0 988.4 NA 0.0000 9999 9710 0 0 0
2019/03/03 20:42:00 BASE 0.30 359 2.98 355 2.0 100 2.0 132 0 988.4 NA 0.0000 9999 9680 0 0 0
2019/03/03 20:43:00 BASE 0.00 344 2.98 355 2.0 100 2.0 129 0 988.4 NA 0.0000 9999 11390 0 0 0
2019/03/03 20:44:00 BASE 0.00 334 2.98 355 2.1 100 2.1 125 0 988.3 NA 0.0000 9999 11290 0 0 0
2019/03/03 20:45:00 BASE 0.00 329 2.98 355 2.1 100 2.1 120 0 988.3 NA 0.0000 9999 11220 0 0 0
2019/03/03 20:46:00 BASE 0.00 299 2.83 350 2.1 100 2.1 113 0 988.3 NA 0.0000 9999 11220 0 0 0
2019/03/03 20:47:00 BASE 0.00 231 2.52 360 2.2 100 2.2 106 0 988.3 NA 0.0000 9999 11190 0 0 0
2019/03/03 20:48:00 BASE 0.19 188 2.06 27 2.2 100 2.2 99 0 988.3 NA 0.0000 9999 11220 0 0 0
2019/03/03 20:49:00 BASE 0.55 184 2.06 27 2.3 100 2.3 93 0 988.3 NA 0.0000 9999 9320 11060 0 0
2019/03/03 20:50:00 BASE 0.37 180 1.59 3 2.3 100 2.3 88 0 988.2 NA 0.0000 9999 8990 20930 0 0
2019/03/03 20:51:00 BASE 0.00 175 1.39 189 2.3 100 2.3 83 0 988.2 NA 0.0000 9999 0 0 0 0
2019/03/03 20:52:00 BASE 0.00 192 1.39 189 2.4 100 2.4 78 0 988.2 NA 0.0000 9999 11220 0 0 0
2019/03/03 20:53:00 BASE 0.00 214 1.39 189 2.4 100 2.4 72 0 988.3 NA 0.0000 9999 0 0 0 0
2019/03/03 20:54:00 BASE 0.21 232 1.39 189 2.5 100 2.4 66 0 988.3 NA 0.0000 9999 8430 0 0 0
2019/03/03 20:55:00 BASE 0.77 247 1.39 252 2.5 100 2.4 61 0 988.3 NA 0.0000 9999 8330 8960 0 0
2019/03/03 20:56:00 BASE 0.95 259 1.39 252 2.5 99 2.4 56 0 988.3 NA 0.0000 9999 8330 8760 0 0
2019/03/03 20:57:00 BASE 1.03 270 1.54 287 2.4 99 2.3 52 0 988.4 NA 0.0000 9999 8300 0 0 0
2019/03/03 20:58:00 BASE 1.54 285 2.16 291 2.4 99 2.2 50 0 988.4 NA 0.0000 9999 7580 0 0 0
2019/03/03 20:59:00 BASE 1.54 300 2.16 291 2.3 99 2.2 49 0 988.3 NA 0.0000 9999 8370 0 0 0
2019/03/03 21:00:00 BASE 1.73 310 2.73 317 2.3 99 2.2 48 0 988.3 NA 0.0000 9999 7450 8330 0 0
2019/03/03 21:01:00 BASE 2.75 317 3.76 320 2.3 99 2.2 48 0 988.3 NA 0.0000 9999 8330 0 0 0
2019/03/03 21:02:00 BASE 3.64 321 4.42 327 2.3 100 2.3 49 0 988.3 NA 0.0000 9999 8330 0 0 0
2019/03/03 21:03:00 BASE 4.59 326 5.61 327 2.3 100 2.2 50 0 988.3 NA 0.0000 9999 8200 0 0 0
2019/03/03 21:04:00 BASE 5.26 330 5.61 327 2.3 100 2.3 52 0 988.2 NA 0.0000 9999 8200 0 0 0
2019/03/03 21:05:00 BASE 5.06 329 5.61 327 2.2 100 2.2 52 0 988.2 NA 0.0000 9999 6960 8200 0 0
2019/03/03 21:06:00 BASE 4.89 333 5.61 327 2.2 100 2.2 52 0 988.2 NA 0.0000 9999 6400 0 0 0
2019/03/03 21:07:00 BASE 4.76 338 5.61 327 2.2 100 2.2 52 0 988.2 NA 0.0000 9999 7510 8240 0 0
2019/03/03 21:08:00 BASE 4.18 335 5.61 327 2.2 100 2.2 53 0 988.2 NA 0.0000 9999 7380 0 0 0
2019/03/03 21:09:00 BASE 3.76 333 5.61 327 2.2 100 2.2 52 0 988.2 NA 0.0000 9999 7380 8070 0 0
2019/03/03 21:10:00 BASE 3.95 336 5.61 327 2.2 100 2.2 51 0 988.2 NA 0.0000 9999 7450 8100 0 0
2019/03/03 21:11:00 BASE 4.07 337 5.61 327 2.2 100 2.2 49 0 988.1 NA 0.0000 9999 7350 0 0 0
2019/03/03 21:12:00 BASE 4.21 335 5.61 327 2.2 100 2.2 48 0 988.0 NA 0.0000 9999 7280 0 0 0
2019/03/03 21:13:00 BASE 4.62 335 5.56 333 2.2 100 2.2 48 0 988.0 NA 0.0000 9999 6230 7280 0 0
2019/03/03 21:14:00 BASE 4.61 339 5.45 333 2.1 100 2.1 47 0 988.0 NA 0.0000 9999 6170 7220 0 0
2019/03/03 21:15:00 BASE 4.26 344 5.45 333 2.1 100 2.1 46 0 988.0 NA 0.0000 9999 6170 7550 0 0
2019/03/03 21:16:00 BASE 4.07 346 5.09 334 2.1 100 2.1 46 0 988.0 NA 0.0000 9999 6100 0 0 0
2019/03/03 21:17:00 BASE 4.08 347 5.09 334 2.0 100 2.0 46 0 988.0 NA 0.0000 9999 6070 0 0 0
2019/03/03 21:18:00 BASE 3.74 355 5.09 334 2.0 100 2.0 47 0 988.0 NA 0.0000 9999 6100 0 0 0
2019/03/03 21:19:00 BASE 2.88 1 5.09 334 2.0 100 2.0 48 0 988.0 NA 0.0000 9999 5970 0 0 0
2019/03/03 21:20:00 BASE 1.91 356 5.09 334 1.9 100 1.9 49 0 988.0 NA 0.0000 9999 5870 0 0 0
2019/03/03 21:21:00 BASE 1.63 349 5.09 334 1.9 100 1.9 51 0 987.9 NA 0.0000 9999 5910 6370 0 0
2019/03/03 21:22:00 BASE 2.02 348 5.09 334 1.9 100 1.9 52 0 987.9 NA 0.0000 9999 5970 0 0 0
2019/03/03 21:23:00 BASE 1.68 345 4.68 341 1.9 100 1.9 52 0 987.9 NA 0.0000 9999 5970 0 0 0
2019/03/03 21:24:00 BASE 1.29 330 4.37 350 1.9 100 1.9 53 0 987.9 NA 0.0000 9999 5910 0 0 0
2019/03/03 21:25:00 BASE 1.19 319 4.37 350 1.9 100 1.9 55 0 987.9 NA 0.0000 9999 5940 0 0 0
2019/03/03 21:26:00 BASE 0.95 319 4.37 350 2.0 100 2.0 58 0 987.8 NA 0.0000 9999 5840 0 0 0
2019/03/03 21:27:00 BASE 1.37 321 4.32 352 2.0 100 2.0 61 0 987.8 NA 0.0000 9999 5680 0 0 0
2019/03/03 21:28:00 BASE 1.86 322 2.98 360 2.0 100 2.0 64 0 987.8 NA 0.0000 9999 5840 0 0 0
2019/03/03 21:29:00 BASE 1.91 321 2.73 346 2.0 100 2.0 67 0 987.8 NA 0.0000 9999 5640 0 0 0
2019/03/03 21:30:00 BASE 1.87 314 2.73 346 2.0 100 2.0 68 0 987.8 NA 0.0000 9999 5910 0 0 0
2019/03/03 21:31:00 BASE 1.77 310 2.73 346 2.0 100 2.0 70 0 987.8 NA 0.0000 9999 5910 0 0 0
2019/03/03 21:32:00 BASE 1.90 313 2.37 314 2.0 100 2.0 71 0 987.7 NA 0.0000 9999 5910 0 0 0
2019/03/03 21:33:00 BASE 2.22 315 2.52 318 2.0 100 2.0 72 0 987.7 NA 0.0000 9999 5940 0 0 0
2019/03/03 21:34:00 BASE 2.34 317 2.52 319 2.0 100 2.0 73 0 987.6 NA 0.0000 9999 5540 0 0 0
2019/03/03 21:35:00 BASE 2.24 317 2.52 319 2.0 100 2.0 74 0 987.6 NA 0.0000 9999 5350 0 0 0
2019/03/03 21:36:00 BASE 2.42 315 3.04 319 2.0 100 2.0 73 0 987.6 NA 0.0000 9999 5350 0 0 0
2019/03/03 21:37:00 BASE 3.02 319 3.76 323 2.0 100 2.0 73 0 987.5 NA 0.0000 9999 5220 0 0 0
2019/03/03 21:38:00 BASE 3.26 326 3.76 327 1.9 100 1.9 71 0 987.4 NA 0.0000 9999 4950 0 0 0
2019/03/03 21:39:00 BASE 2.88 328 3.76 327 1.9 100 1.9 70 0 987.4 NA 0.0000 9999 4950 0 0 0
2019/03/03 21:40:00 BASE 2.10 321 3.76 327 1.8 100 1.8 69 0 987.5 NA 0.0000 9999 4990 0 0 0
2019/03/03 21:41:00 BASE 1.70 312 3.76 327 1.7 100 1.7 68 0 987.4 NA 0.0000 9999 5480 0 0 0
2019/03/03 21:42:00 BASE 1.81 313 3.76 327 1.7 100 1.7 69 0 987.5 NA 0.0000 9999 4760 0 0 0
2019/03/03 21:43:00 BASE 2.07 321 3.76 327 1.7 100 1.7 69 0 987.4 NA 0.0000 9999 5580 0 0 0
2019/03/03 21:44:00 BASE 2.25 332 3.76 327 1.7 100 1.7 70 0 987.4 NA 0.0000 9999 5510 0 0 0
2019/03/03 21:45:00 BASE 2.11 340 3.76 327 1.7 100 1.7 72 0 987.4 NA 0.0000 9999 4430 0 0 0
2019/03/03 21:46:00 BASE 1.95 344 3.76 327 1.7 100 1.7 73 0 987.4 NA 0.0000 9999 0 0 0 0
2019/03/03 21:47:00 BASE 1.74 345 3.76 327 1.7 100 1.7 73 0 987.4 NA 0.0000 9999 0 0 0 0
2019/03/03 21:48:00 BASE 1.63 337 3.19 329 1.8 100 1.8 73 0 987.4 NA 0.0000 9999 0 0 0 0
2019/03/03 21:49:00 BASE 1.36 335 2.68 337 1.9 100 1.9 73 0 987.4 NA 0.0000 9999 0 0 0 0
2019/03/03 21:50:00 BASE 1.08 342 2.68 337 1.8 100 1.8 72 0 987.4 NA 0.0000 9999 0 0 0 0
2019/03/03 21:51:00 BASE 1.29 344 2.68 337 1.8 100 1.8 69 0 987.4 NA 0.0000 9999 0 0 0 0
2019/03/03 21:52:00 BASE 1.97 342 2.98 349 1.8 100 1.8 66 0 987.3 NA 0.0000 9999 0 0 0 0
2019/03/03 21:53:00 BASE 2.79 349 3.40 195 1.8 100 1.8 62 0 987.3 NA 0.0000 9999 6460 0 0 0
2019/03/03 21:54:00 BASE 3.18 360 3.40 360 1.8 100 1.8 59 0 987.3 NA 0.0000 9999 0 0 0 0
2019/03/03 21:55:00 BASE 3.11 356 3.40 360 1.9 100 1.9 57 0 987.3 NA 0.0000 9999 0 0 0 0
2019/03/03 21:56:00 BASE 2.71 350 3.40 360 1.9 100 1.9 55 0 987.3 NA 0.0000 9999 0 0 0 0
2019/03/03 21:57:00 BASE 1.94 347 3.40 360 1.8 100 1.8 54 0 987.3 NA 0.0000 9999 0 0 0 0
2019/03/03 21:58:00 BASE 1.17 340 3.40 360 1.8 100 1.8 53 0 987.3 NA 0.0000 9999 0 0 0 0
2019/03/03 21:59:00 BASE 1.10 330 3.40 360 1.9 100 1.9 52 0 987.3 NA 0.0000 9999 0 0 0 0
2019/03/03 22:00:00 BASE 1.17 328 3.40 360 1.9 100 1.9 50 0 987.3 NA 0.0000 9999 0 0 0 0
2019/03/03 22:01:00 BASE 1.21 341 3.40 360 1.9 100 1.9 49 0 987.3 NA 0.0000 9999 0 0 0 0
2019/03/03 22:02:00 BASE 1.36 354 3.40 360 2.0 100 2.0 47 0 987.3 NA 0.0000 9999 0 0 0 0
2019/03/03 22:04:56 BASE M M 3.40 360 2.0 100 2.0 47 0 M NA 0.0000 9999 0 0 0 0
2019/03/03 22:05:03 BASE M M 3.24 284 2.0 100 2.0 M M M NA 0.0000 M M M M M
2019/03/03 22:05:13 BASE M M 2.98 346 2.0 100 2.0 41 0 M NA 0.0000 M 0 0 0 0
2019/03/03 22:06:01 BASE M M 1.95 341 2.0 100 2.0 38 0 987.3 NA 0.0000 9999 0 0 0 0
2019/03/03 22:07:00 BASE 0.56 336 1.95 341 2.0 100 2.0 36 0 987.2 NA 0.0000 9999 0 0 0 0
2019/03/03 22:08:00 BASE 0.28 339 1.95 341 2.0 100 2.0 35 0 987.2 NA 0.0000 9999 0 0 0 0
2019/03/03 22:09:00 BASE 0.05 351 1.65 353 2.0 100 2.0 35 0 987.2 NA 0.0000 9999 0 0 0 0
2019/03/03 22:10:00 BASE 0.13 2 1.65 353 2.0 100 2.0 35 0 987.1 NA 0.0000 9999 2950 0 0 0
2019/03/03 22:11:00 BASE 0.09 10 1.65 353 1.9 100 1.9 34 0 987.1 NA 0.0000 9999 3020 0 0 0
2019/03/03 22:12:00 BASE 0.00 16 1.65 353 1.9 100 1.9 34 0 987.1 NA 0.0000 9999 2620 0 0 0
2019/03/03 22:13:00 BASE 0.00 19 1.23 322 1.9 100 1.9 33 0 987.0 NA 0.0000 9999 2950 0 0 0
2019/03/03 22:14:00 BASE 0.00 24 1.23 322 1.9 100 1.9 33 0 987.0 NA 0.0000 9999 0 0 0 4860
2019/03/03 22:15:00 BASE 0.00 29 1.23 322 2.0 100 2.0 33 0 987.0 NA 0.0000 9999 0 0 0 4950
2019/03/03 22:16:00 BASE 0.00 34 1.23 322 2.0 100 2.0 33 0 987.0 NA 0.0000 9999 0 0 0 4920
2019/03/03 22:17:00 BASE 0.00 49 1.13 360 2.1 100 2.1 32 0 987.0 NA 0.0000 9999 0 0 0 4430
2019/03/03 22:18:00 BASE 0.00 75 1.13 360 2.2 100 2.2 31 0 987.0 NA 0.0000 UP 9999 0 0 0 4400
2019/03/03 22:19:00 BASE 0.00 104 1.03 5 2.3 100 2.3 30 0 987.0 NA 0.0000 UP 9999 0 0 0 7190
2019/03/03 22:20:00 BASE 0.00 133 M M 2.4 100 2.4 28 0 987.0 NA 0.0000 UP 9999 0 0 0 2720
2019/03/03 22:21:00 BASE 0.00 148 M M 2.4 100 2.4 26 0 987.0 NA 0.0000 UP 9999 0 0 0 2660
2019/03/03 22:22:00 BASE 0.00 146 M M 2.4 100 2.4 25 0 986.9 NA 0.0000 UP 9999 0 0 0 5910
2019/03/03 22:23:00 BASE 0.00 127 M M 2.4 100 2.4 23 0 986.8 NA 0.0000 UP 9999 0 0 0 2560
2019/03/03 22:24:00 BASE 0.00 97 M M 2.4 100 2.4 23 0 986.8 NA 0.0000 UP 9999 0 0 0 2130
2019/03/03 22:25:00 BASE 0.00 73 M M 2.3 100 2.3 22 0 986.8 NA 0.0000 UP 9999 0 0 0 2200
2019/03/03 22:26:00 BASE 0.00 61 M M 2.4 100 2.4 21 0 986.8 NA 0.0000 UP 9999 0 0 0 0
2019/03/03 22:27:00 BASE 0.09 54 1.08 48 2.4 100 2.4 21 0 986.7 NA 0.0000 UP 9999 2720 0 0 0
2019/03/03 22:28:00 BASE 0.66 50 1.54 47 2.5 100 2.5 20 0 986.7 NA 0.0000 UP 9999 0 0 0 0
2019/03/03 22:29:00 BASE 1.24 46 1.65 47 2.5 100 2.5 19 0 986.7 NA 0.0000 UP 9999 4040 0 0 0
2019/03/03 22:30:00 BASE 0.90 43 1.65 47 2.5 100 2.5 19 0 986.6 NA 0.0000 UP 9999 0 0 0 6000
2019/03/03 22:31:00 BASE 0.46 49 1.65 47 2.6 100 2.6 18 0 986.6 NA 0.0000 UP 9999 0 0 0 5740
2019/03/03 22:32:00 BASE 0.27 53 1.65 47 2.6 100 2.6 17 0 986.6 NA 0.0000 UP 9999 0 0 0 5970
2019/03/03 22:33:00 BASE 0.04 51 1.65 47 2.7 100 2.7 16 0 986.6 NA 0.0000 UP 9999 0 0 0 6040
2019/03/03 22:34:00 BASE 0.00 48 1.65 47 2.7 100 2.7 15 0 986.6 NA 0.0000 UP 9999 0 0 0 6000
2019/03/03 22:35:00 BASE 0.00 48 1.65 47 2.8 100 2.8 13 0 986.6 NA 0.0000 UP 9999 0 0 0 7350
2019/03/03 22:36:00 BASE 0.00 51 1.65 47 2.9 100 2.9 12 0 986.5 NA 0.0000 UP 9999 0 0 0 6990
2019/03/03 22:37:00 BASE 0.00 59 1.65 47 2.9 100 2.9 10 0 986.5 NA 0.0000 UP 9999 0 0 0 6400
2019/03/03 22:38:00 BASE 0.00 83 1.65 47 3.0 100 3.0 9 0 986.5 NA 0.0000 UP 9999 0 0 0 5940
2019/03/03 22:39:00 BASE 0.09 117 1.18 57 3.0 100 3.0 9 0 986.4 NA 0.0000 UP 9999 0 0 0 5740
2019/03/03 22:40:00 BASE 0.09 148 1.18 57 3.0 100 3.0 8 0 986.4 NA 0.0000 UP 9999 0 0 0 6330
2019/03/03 22:41:00 BASE 0.00 171 1.08 132 3.0 100 3.0 8 0 986.4 NA 0.0000 UP 9999 0 0 0 6300
2019/03/03 22:42:00 BASE 0.00 183 1.08 132 3.0 100 3.0 7 0 986.3 NA 0.0000 UP 9999 0 0 0 5970
2019/03/03 22:43:00 BASE 0.00 190 1.08 132 2.9 100 2.9 7 0 986.3 NA 0.0000 UP 9999 0 0 0 6040
2019/03/03 22:44:00 BASE 0.00 191 1.08 132 2.8 100 2.8 7 0 986.3 NA 0.0000 UP 9999 0 0 0 5870
2019/03/03 22:45:00 BASE 0.23 193 1.65 183 2.8 100 2.8 7 0 986.3 NA 0.0000 UP 9999 0 0 0 5610
2019/03/03 22:46:00 BASE 1.28 188 2.31 183 2.8 100 2.8 7 0 986.3 NA 0.0000 UP 9999 0 0 0 5280
2019/03/03 22:47:00 BASE 1.40 180 2.31 183 2.8 100 2.8 7 0 986.2 NA 0.0000 UP 9000 0 0 0 5610
2019/03/03 22:48:00 BASE 0.35 181 2.31 183 2.8 100 2.8 7 0 986.2 NA 0.0000 UP 9000 0 0 0 6230
2019/03/03 22:49:00 BASE 0.00 181 2.31 183 2.8 100 2.8 7 0 986.2 NA 0.0000 UP 9999 0 0 0 6660
2019/03/03 22:50:00 BASE 0.00 189 2.31 183 2.8 100 2.8 8 0 986.2 NA 0.0000 UP BR 9999 0 0 0 6630
2019/03/03 22:51:00 BASE 0.00 297 2.31 183 2.8 100 2.8 8 0 986.1 NA 0.0000 UP BR 9999 0 0 0 6200
2019/03/03 22:52:00 BASE 0.00 338 2.31 183 2.8 100 2.8 8 0 986.1 NA 0.0000 UP BR 9999 0 0 0 5910
2019/03/03 22:53:00 BASE 0.00 342 2.31 183 2.8 100 2.8 8 0 986.1 NA 0.0000 UP BR 9999 0 0 0 5380
2019/03/03 22:54:00 BASE 0.00 350 2.31 183 2.8 100 2.8 8 0 986.1 NA 0.0000 UP 9999 0 0 0 5870
2019/03/03 22:55:00 BASE 0.00 66 2.31 183 2.9 100 2.9 8 0 986.1 NA 0.0000 UP 9999 3840 0 0 0
2019/03/03 22:56:00 BASE 0.00 112 1.65 181 2.9 100 2.9 8 0 986.0 NA 0.0000 UP 9999 0 0 0 5610
2019/03/03 22:57:00 BASE 0.16 128 1.29 152 3.0 100 3.0 8 0 986.0 NA 0.0000 UP 9999 0 0 0 5740
2019/03/03 22:58:00 BASE 0.90 147 1.80 159 3.0 100 3.0 7 0 986.0 NA 0.0000 UP 9999 0 0 0 6070
2019/03/03 22:59:00 BASE 1.69 160 2.21 164 3.0 100 3.0 7 0 986.0 NA 0.0000 UP 9999 0 0 0 5840
2019/03/03 23:00:00 BASE 1.70 167 2.21 164 2.9 100 2.9 6 0 986.0 NA 0.0000 UP 9999 0 0 0 5540
2019/03/03 23:01:00 BASE 1.36 170 2.21 164 2.8 100 2.8 6 0 986.0 NA 0.0000 9999 0 0 0 5480
2019/03/03 23:02:00 BASE 1.00 177 2.21 164 2.6 100 2.6 6 0 986.0 NA 0.0000 9999 0 0 0 5220
2019/03/03 23:03:00 BASE 0.61 183 2.21 164 2.4 100 2.4 6 0 986.0 NA 0.0000 9999 0 0 0 6400
2019/03/03 23:04:00 BASE 0.23 196 2.21 164 2.3 100 2.3 6 0 986.0 NA 0.0000 UP 9999 0 0 0 6370
2019/03/03 23:05:00 BASE 0.15 235 2.21 164 2.2 100 2.2 6 0 986.0 NA 0.0000 UP 9999 0 0 0 6990
2019/03/03 23:06:00 BASE 0.72 265 2.21 164 2.0 100 2.0 5 0 986.0 NA 0.0000 UP 9999 5450 0 0 0
2019/03/03 23:07:00 BASE 1.38 271 2.21 164 2.0 100 2.0 5 0 986.0 NA 0.0000 UP 9999 0 0 0 6500
2019/03/03 23:08:00 BASE 1.83 281 2.21 164 1.9 100 1.9 5 0 986.0 NA 0.0000 UP 9999 0 0 0 5910
2019/03/03 23:09:00 BASE 1.82 289 2.16 281 1.9 100 1.9 5 0 986.0 NA 0.0000 UP 9999 3770 0 0 0
2019/03/03 23:10:00 BASE 1.48 295 2.16 281 1.9 100 1.9 4 0 986.0 NA 0.0000 UP 9999 0 0 0 5320
2019/03/03 23:11:00 BASE 1.21 305 2.16 281 1.9 100 1.9 4 0 986.0 NA 0.0000 UP 9999 3450 0 0 0
2019/03/03 23:12:00 BASE 0.58 308 2.16 281 1.9 100 1.9 4 0 986.0 NA 0.0000 UP 9999 3540 0 0 0
2019/03/03 23:13:00 BASE 0.04 304 2.16 281 1.8 100 1.8 4 0 986.0 NA 0.0000 UP 9999 0 0 0 4860
2019/03/03 23:14:00 BASE 0.00 302 2.16 281 1.8 100 1.8 3 0 985.9 NA 0.0000 UP 9999 0 0 0 4760
2019/03/03 23:15:00 BASE 0.00 297 2.16 281 1.8 100 1.8 3 0 985.9 NA 0.0000 UP 9999 0 0 0 4760
2019/03/03 23:16:00 BASE 0.00 293 2.16 281 1.8 100 1.8 3 0 985.9 NA 0.0000 UP 9999 0 0 0 4590
2019/03/03 23:17:00 BASE 0.00 291 2.16 281 1.8 100 1.8 3 0 985.9 NA 0.0000 UP 9000 0 0 0 4890
2019/03/03 23:18:00 BASE 0.00 305 2.01 297 1.9 100 1.9 2 0 985.9 NA 0.0000 UP 9000 0 0 0 4660
2019/03/03 23:19:00 BASE 0.27 337 1.49 300 1.9 100 1.9 2 0 985.9 NA 0.0000 UP BR 7000 3410 0 0 0
2019/03/03 23:20:00 BASE 0.31 356 1.39 311 1.9 100 1.9 2 0 985.8 NA 0.0000 UP BR 6000 3480 0 0 0
2019/03/03 23:21:00 BASE 0.05 11 1.08 351 1.9 100 1.9 2 0 985.8 NA 0.0000 UP BR 7000 0 0 0 4690
2019/03/03 23:22:00 BASE 0.79 133 2.52 176 2.0 100 2.0 2 0 985.7 NA 0.0000 UP BR 9000 0 0 0 4790
2019/03/03 23:23:00 BASE 2.30 175 3.40 178 2.0 100 2.0 2 0 985.7 NA 0.0000 UP BR 9000 0 0 0 4920
2019/03/03 23:24:00 BASE 2.91 179 3.40 178 1.9 100 1.9 2 0 985.7 NA 0.0000 UP BR 8000 0 0 0 4890
2019/03/03 23:25:00 BASE 2.26 192 3.40 178 1.9 100 1.9 2 0 985.7 NA 0.0000 UP BR 7000 0 0 0 4860
2019/03/03 23:26:00 BASE 0.86 228 3.40 178 1.9 100 1.9 2 0 985.7 NA 0.0000 UP BR 7000 0 0 0 5840
2019/03/03 23:27:00 BASE 0.87 309 3.40 178 1.8 100 1.8 2 0 985.7 NA 0.0000 UP BR 8000 0 0 0 5840
2019/03/03 23:28:00 BASE 2.08 343 3.40 178 1.7 100 1.7 2 0 985.7 NA 0.0000 UP BR 8000 0 0 0 5870
2019/03/03 23:29:00 BASE 1.55 338 3.40 178 1.7 100 1.7 1 0 985.7 NA 0.0000 UP BR 9000 0 0 0 6140
2019/03/03 23:30:00 BASE 0.39 301 3.40 178 1.7 100 1.7 1 0 985.6 NA 0.0000 UP BR 9999 0 0 0 6100
2019/03/03 23:31:00 BASE 1.03 215 3.40 178 1.6 100 1.6 1 0 985.6 NA 0.0000 UP BR 9999 0 0 0 6170
2019/03/03 23:32:00 BASE 2.07 205 3.40 178 1.6 100 1.6 1 0 985.5 NA 0.0000 UP BR 9999 0 0 0 6070
2019/03/03 23:33:00 BASE 1.98 242 3.24 175 1.5 100 1.5 1 0 985.6 NA 0.0000 UP BR 9999 0 0 0 6270
2019/03/03 23:34:00 BASE 3.12 303 5.14 335 1.5 100 1.5 1 0 985.6 NA 0.0000 UP BR 9999 0 0 0 6000
2019/03/03 23:35:00 BASE 4.13 331 5.14 335 1.4 100 1.4 1 0 985.6 NA 0.0000 UP BR 9999 0 0 0 5870
2019/03/03 23:36:00 BASE 3.31 329 5.14 335 1.3 100 1.3 1 0 985.5 NA 0.0000 UP BR 9999 3310 0 0 0
2019/03/03 23:37:00 BASE 2.87 314 5.14 335 1.3 100 1.3 1 0 985.4 NA 0.0000 UP BR 9999 3310 0 0 0
2019/03/03 23:38:00 BASE 3.89 303 5.35 300 1.2 100 1.2 1 0 985.4 NA 0.0000 UP BR 9999 4890 0 0 0
2019/03/03 23:39:00 BASE 4.85 308 5.35 300 1.1 100 1.1 1 0 985.4 NA 0.0000 9999 3180 0 0 0
2019/03/03 23:40:00 BASE 4.86 316 5.35 300 1.1 100 1.1 1 0 985.4 NA 0.0000 9999 2490 5020 0 0
2019/03/03 23:41:00 BASE 4.88 323 5.35 300 1.1 100 1.1 1 0 985.4 NA 0.0000 9999 4720 0 0 0
2019/03/03 23:42:00 BASE 4.25 332 5.35 300 1.1 100 1.1 1 0 985.4 NA 0.0000 9999 460 0 0 0
2019/03/03 23:43:00 BASE 3.00 341 5.35 300 1.2 100 1.2 0 0 985.4 NA 0.0000 9999 0 0 0 5680
2019/03/03 23:44:00 BASE 2.11 343 5.35 300 1.2 100 1.2 1 0 985.4 NA 0.0000 UP 9999 4920 0 0 0
2019/03/03 23:45:00 BASE 2.03 344 5.35 300 1.2 100 1.2 0 0 985.4 NA 0.2540 UP 9999 4950 0 0 0
2019/03/03 23:46:00 BASE 2.80 341 5.35 300 1.3 100 1.3 0 0 985.4 NA 0.0000 UP 9999 4760 0 0 0
2019/03/03 23:47:00 BASE 3.42 339 5.35 300 1.3 100 1.3 0 0 985.4 NA 0.0000 UP 9999 4660 0 0 0
2019/03/03 23:48:00 BASE 2.79 348 5.09 312 1.2 100 1.2 0 0 985.4 NA 0.0000 UP 9999 4660 0 0 0
2019/03/03 23:49:00 BASE 1.33 9 5.04 315 1.2 100 1.2 0 0 985.4 NA 0.0000 UP 9999 4490 0 0 0
2019/03/03 23:50:00 BASE 0.25 17 4.99 327 1.2 100 1.2 0 0 985.4 NA 0.0000 UP 9999 4560 0 0 0
2019/03/03 23:51:00 BASE 0.55 359 4.48 333 1.2 100 1.2 0 0 985.4 NA 0.0000 UP 9999 4530 0 0 0
2019/03/03 23:52:00 BASE 1.49 351 4.48 333 1.2 100 1.2 0 0 985.4 NA 0.0000 UP 9999 4490 0 0 0
2019/03/03 23:53:00 BASE 1.70 359 4.48 333 1.3 100 1.3 0 0 985.4 NA 0.0000 UP 9999 4490 0 0 0
2019/03/03 23:54:00 BASE 0.90 7 4.48 333 1.2 100 1.2 0 0 985.4 NA 0.0000 UP 9999 4360 0 0 0
2019/03/03 23:55:00 BASE 0.13 16 4.48 333 1.2 100 1.2 0 0 985.4 NA 0.0000 9999 4560 0 0 0
2019/03/03 23:56:00 BASE 0.00 15 4.01 337 1.2 100 1.2 0 0 985.3 NA 0.0000 9999 4300 0 0 0
2019/03/03 23:57:00 BASE 0.49 333 2.83 346 1.2 100 1.2 0 0 985.3 NA 0.0000 9999 4860 0 0 0
2019/03/03 23:58:00 BASE 1.32 308 2.42 337 1.2 100 1.2 0 0 985.3 NA 0.0000 9999 4720 0 0 0
2019/03/03 23:59:00 BASE 1.95 324 2.62 344 1.3 100 1.3 0 0 985.3 NA 0.0000 9999 4330 0 0 0